<?xml version="1.0" encoding="utf-8"?>
<gpx xmlns:tc2="http://www.garmin.com/xmlschemas/TrainingCenterDatabase/v2" xmlns:xsi="http://www.w3.org/2001/XMLSchema-instance" xmlns:tp1="http://www.garmin.com/xmlschemas/TrackPointExtension/v1" xmlns="http://www.topografix.com/GPX/1/1" version="1.1" creator="TC2 to GPX11 XSLT stylesheet" xsi:schemaLocation="http://www.topografix.com/GPX/1/1 http://www.topografix.com/GPX/1/1/gpx.xsd http://www.garmin.com/xmlschemas/TrackPointExtension/v1 http://www.garmin.com/xmlschemas/TrackPointExtensionv1.xsd">
<trk>
<name>2010-05-04T06:17:16Z</name>
<trkseg>
<trkpt lat="35.3506258" lon="24.5127554">
<ele>95.3077393</ele>
<time>2010-05-04T06:17:16Z</time>
</trkpt>
<trkpt lat="35.3506194" lon="24.5128223">
<ele>93.8658447</ele>
<time>2010-05-04T06:17:24Z</time>
</trkpt>
<trkpt lat="35.3505972" lon="24.5128876">
<ele>94.3465576</ele>
<time>2010-05-04T06:17:31Z</time>
</trkpt>
<trkpt lat="35.3505796" lon="24.5129270">
<ele>91.9432373</ele>
<time>2010-05-04T06:17:35Z</time>
</trkpt>
<trkpt lat="35.3505292" lon="24.5129809">
<ele>93.8658447</ele>
<time>2010-05-04T06:17:41Z</time>
</trkpt>
<trkpt lat="35.3504522" lon="24.5130237">
<ele>94.3465576</ele>
<time>2010-05-04T06:17:49Z</time>
</trkpt>
<trkpt lat="35.3504090" lon="24.5130492">
<ele>95.3077393</ele>
<time>2010-05-04T06:17:54Z</time>
</trkpt>
<trkpt lat="35.3502757" lon="24.5130957">
<ele>97.7111816</ele>
<time>2010-05-04T06:18:06Z</time>
</trkpt>
<trkpt lat="35.3501663" lon="24.5131439">
<ele>101.5563965</ele>
<time>2010-05-04T06:18:16Z</time>
</trkpt>
<trkpt lat="35.3500690" lon="24.5131596">
<ele>96.2692871</ele>
<time>2010-05-04T06:18:26Z</time>
</trkpt>
<trkpt lat="35.3500066" lon="24.5131664">
<ele>93.3851318</ele>
<time>2010-05-04T06:18:34Z</time>
</trkpt>
<trkpt lat="35.3499710" lon="24.5131498">
<ele>90.9819336</ele>
<time>2010-05-04T06:18:40Z</time>
</trkpt>
<trkpt lat="35.3499257" lon="24.5131466">
<ele>89.0593262</ele>
<time>2010-05-04T06:18:46Z</time>
</trkpt>
<trkpt lat="35.3498083" lon="24.5131103">
<ele>88.5787354</ele>
<time>2010-05-04T06:18:56Z</time>
</trkpt>
<trkpt lat="35.3497219" lon="24.5130849">
<ele>90.0206299</ele>
<time>2010-05-04T06:19:04Z</time>
</trkpt>
<trkpt lat="35.3496524" lon="24.5130941">
<ele>99.1530762</ele>
<time>2010-05-04T06:19:14Z</time>
</trkpt>
<trkpt lat="35.3496249" lon="24.5131488">
<ele>103.9597168</ele>
<time>2010-05-04T06:19:21Z</time>
</trkpt>
<trkpt lat="35.3496167" lon="24.5132460">
<ele>103.4790039</ele>
<time>2010-05-04T06:19:30Z</time>
</trkpt>
<trkpt lat="35.3496223" lon="24.5132435">
<ele>92.4239502</ele>
<time>2010-05-04T06:19:38Z</time>
</trkpt>
<trkpt lat="35.3496369" lon="24.5132730">
<ele>86.1752930</ele>
<time>2010-05-04T06:19:46Z</time>
</trkpt>
<trkpt lat="35.3496512" lon="24.5133296">
<ele>82.8107910</ele>
<time>2010-05-04T06:19:52Z</time>
</trkpt>
<trkpt lat="35.3496767" lon="24.5134284">
<ele>78.4847412</ele>
<time>2010-05-04T06:20:01Z</time>
</trkpt>
<trkpt lat="35.3497283" lon="24.5134935">
<ele>76.5621338</ele>
<time>2010-05-04T06:20:08Z</time>
</trkpt>
<trkpt lat="35.3497727" lon="24.5135582">
<ele>75.6008301</ele>
<time>2010-05-04T06:20:14Z</time>
</trkpt>
<trkpt lat="35.3498863" lon="24.5136149">
<ele>72.2362061</ele>
<time>2010-05-04T06:20:24Z</time>
</trkpt>
<trkpt lat="35.3499558" lon="24.5136313">
<ele>71.7554932</ele>
<time>2010-05-04T06:20:29Z</time>
</trkpt>
<trkpt lat="35.3500138" lon="24.5136688">
<ele>71.2749023</ele>
<time>2010-05-04T06:20:36Z</time>
</trkpt>
<trkpt lat="35.3500886" lon="24.5137013">
<ele>71.7554932</ele>
<time>2010-05-04T06:20:43Z</time>
</trkpt>
<trkpt lat="35.3501150" lon="24.5137134">
<ele>72.2362061</ele>
<time>2010-05-04T06:20:46Z</time>
</trkpt>
<trkpt lat="35.3501320" lon="24.5137407">
<ele>74.6395264</ele>
<time>2010-05-04T06:20:53Z</time>
</trkpt>
<trkpt lat="35.3501797" lon="24.5137573">
<ele>73.6782227</ele>
<time>2010-05-04T06:20:59Z</time>
</trkpt>
<trkpt lat="35.3502382" lon="24.5137761">
<ele>73.1976318</ele>
<time>2010-05-04T06:21:06Z</time>
</trkpt>
<trkpt lat="35.3502859" lon="24.5137921">
<ele>73.1976318</ele>
<time>2010-05-04T06:21:12Z</time>
</trkpt>
<trkpt lat="35.3503424" lon="24.5138169">
<ele>73.1976318</ele>
<time>2010-05-04T06:21:18Z</time>
</trkpt>
<trkpt lat="35.3504439" lon="24.5138471">
<ele>74.6395264</ele>
<time>2010-05-04T06:21:27Z</time>
</trkpt>
<trkpt lat="35.3505483" lon="24.5138857">
<ele>74.1588135</ele>
<time>2010-05-04T06:21:37Z</time>
</trkpt>
<trkpt lat="35.3506159" lon="24.5139234">
<ele>74.1588135</ele>
<time>2010-05-04T06:21:43Z</time>
</trkpt>
<trkpt lat="35.3506915" lon="24.5139833">
<ele>73.6782227</ele>
<time>2010-05-04T06:21:51Z</time>
</trkpt>
<trkpt lat="35.3507003" lon="24.5140884">
<ele>74.1588135</ele>
<time>2010-05-04T06:21:59Z</time>
</trkpt>
<trkpt lat="35.3506740" lon="24.5142002">
<ele>73.6782227</ele>
<time>2010-05-04T06:22:09Z</time>
</trkpt>
<trkpt lat="35.3506391" lon="24.5143246">
<ele>75.6008301</ele>
<time>2010-05-04T06:22:20Z</time>
</trkpt>
<trkpt lat="35.3506129" lon="24.5144380">
<ele>77.0428467</ele>
<time>2010-05-04T06:22:31Z</time>
</trkpt>
<trkpt lat="35.3506014" lon="24.5145592">
<ele>77.5234375</ele>
<time>2010-05-04T06:22:42Z</time>
</trkpt>
<trkpt lat="35.3505924" lon="24.5146571">
<ele>77.5234375</ele>
<time>2010-05-04T06:22:51Z</time>
</trkpt>
<trkpt lat="35.3505775" lon="24.5147556">
<ele>78.4847412</ele>
<time>2010-05-04T06:23:00Z</time>
</trkpt>
<trkpt lat="35.3505551" lon="24.5148456">
<ele>79.4460449</ele>
<time>2010-05-04T06:23:09Z</time>
</trkpt>
<trkpt lat="35.3505303" lon="24.5149581">
<ele>80.4074707</ele>
<time>2010-05-04T06:23:19Z</time>
</trkpt>
<trkpt lat="35.3505150" lon="24.5150722">
<ele>80.8881836</ele>
<time>2010-05-04T06:23:29Z</time>
</trkpt>
<trkpt lat="35.3505227" lon="24.5150879">
<ele>81.3687744</ele>
<time>2010-05-04T06:23:30Z</time>
</trkpt>
<trkpt lat="35.3505496" lon="24.5152180">
<ele>83.7719727</ele>
<time>2010-05-04T06:23:40Z</time>
</trkpt>
<trkpt lat="35.3505838" lon="24.5153042">
<ele>84.2526855</ele>
<time>2010-05-04T06:23:49Z</time>
</trkpt>
<trkpt lat="35.3506103" lon="24.5153797">
<ele>84.2526855</ele>
<time>2010-05-04T06:23:57Z</time>
</trkpt>
<trkpt lat="35.3506480" lon="24.5154937">
<ele>83.2913818</ele>
<time>2010-05-04T06:24:07Z</time>
</trkpt>
<trkpt lat="35.3506707" lon="24.5155518">
<ele>83.7719727</ele>
<time>2010-05-04T06:24:13Z</time>
</trkpt>
<trkpt lat="35.3506940" lon="24.5156433">
<ele>83.2913818</ele>
<time>2010-05-04T06:24:22Z</time>
</trkpt>
<trkpt lat="35.3506965" lon="24.5157470">
<ele>82.3300781</ele>
<time>2010-05-04T06:24:31Z</time>
</trkpt>
<trkpt lat="35.3506926" lon="24.5158076">
<ele>83.2913818</ele>
<time>2010-05-04T06:24:37Z</time>
</trkpt>
<trkpt lat="35.3506582" lon="24.5158811">
<ele>82.3300781</ele>
<time>2010-05-04T06:24:45Z</time>
</trkpt>
<trkpt lat="35.3506152" lon="24.5159459">
<ele>84.2526855</ele>
<time>2010-05-04T06:24:52Z</time>
</trkpt>
<trkpt lat="35.3506013" lon="24.5159660">
<ele>85.2139893</ele>
<time>2010-05-04T06:24:54Z</time>
</trkpt>
<trkpt lat="35.3505430" lon="24.5160582">
<ele>86.1752930</ele>
<time>2010-05-04T06:25:02Z</time>
</trkpt>
<trkpt lat="35.3505189" lon="24.5161353">
<ele>85.2139893</ele>
<time>2010-05-04T06:25:08Z</time>
</trkpt>
<trkpt lat="35.3505424" lon="24.5162619">
<ele>86.1752930</ele>
<time>2010-05-04T06:25:17Z</time>
</trkpt>
<trkpt lat="35.3505784" lon="24.5163632">
<ele>87.1365967</ele>
<time>2010-05-04T06:25:25Z</time>
</trkpt>
<trkpt lat="35.3506397" lon="24.5164696">
<ele>89.0593262</ele>
<time>2010-05-04T06:25:35Z</time>
</trkpt>
<trkpt lat="35.3506955" lon="24.5165466">
<ele>90.0206299</ele>
<time>2010-05-04T06:25:44Z</time>
</trkpt>
<trkpt lat="35.3507458" lon="24.5166209">
<ele>90.9819336</ele>
<time>2010-05-04T06:25:53Z</time>
</trkpt>
<trkpt lat="35.3508015" lon="24.5167380">
<ele>91.4625244</ele>
<time>2010-05-04T06:26:04Z</time>
</trkpt>
<trkpt lat="35.3508283" lon="24.5168438">
<ele>91.4625244</ele>
<time>2010-05-04T06:26:13Z</time>
</trkpt>
<trkpt lat="35.3508314" lon="24.5168523">
<ele>91.9432373</ele>
<time>2010-05-04T06:26:20Z</time>
</trkpt>
<trkpt lat="35.3508381" lon="24.5168576">
<ele>94.3465576</ele>
<time>2010-05-04T06:26:37Z</time>
</trkpt>
<trkpt lat="35.3508421" lon="24.5168633">
<ele>95.7884521</ele>
<time>2010-05-04T06:26:46Z</time>
</trkpt>
<trkpt lat="35.3508484" lon="24.5168726">
<ele>95.7884521</ele>
<time>2010-05-04T06:26:56Z</time>
</trkpt>
<trkpt lat="35.3508645" lon="24.5169446">
<ele>95.3077393</ele>
<time>2010-05-04T06:27:03Z</time>
</trkpt>
<trkpt lat="35.3509029" lon="24.5170484">
<ele>96.2692871</ele>
<time>2010-05-04T06:27:13Z</time>
</trkpt>
<trkpt lat="35.3509051" lon="24.5171309">
<ele>96.2692871</ele>
<time>2010-05-04T06:27:21Z</time>
</trkpt>
<trkpt lat="35.3509049" lon="24.5171629">
<ele>96.7498779</ele>
<time>2010-05-04T06:27:27Z</time>
</trkpt>
<trkpt lat="35.3509039" lon="24.5171543">
<ele>96.2692871</ele>
<time>2010-05-04T06:27:39Z</time>
</trkpt>
<trkpt lat="35.3509101" lon="24.5171286">
<ele>96.7498779</ele>
<time>2010-05-04T06:27:46Z</time>
</trkpt>
<trkpt lat="35.3509125" lon="24.5171535">
<ele>97.2304688</ele>
<time>2010-05-04T06:27:58Z</time>
</trkpt>
<trkpt lat="35.3509157" lon="24.5171599">
<ele>98.1918945</ele>
<time>2010-05-04T06:28:12Z</time>
</trkpt>
<trkpt lat="35.3509158" lon="24.5171969">
<ele>98.1918945</ele>
<time>2010-05-04T06:28:20Z</time>
</trkpt>
<trkpt lat="35.3509094" lon="24.5172902">
<ele>98.1918945</ele>
<time>2010-05-04T06:28:28Z</time>
</trkpt>
<trkpt lat="35.3508770" lon="24.5173890">
<ele>98.1918945</ele>
<time>2010-05-04T06:28:36Z</time>
</trkpt>
<trkpt lat="35.3508669" lon="24.5174078">
<ele>98.1918945</ele>
<time>2010-05-04T06:28:38Z</time>
</trkpt>
<trkpt lat="35.3508314" lon="24.5174513">
<ele>97.7111816</ele>
<time>2010-05-04T06:28:45Z</time>
</trkpt>
<trkpt lat="35.3507607" lon="24.5174922">
<ele>97.2304688</ele>
<time>2010-05-04T06:28:52Z</time>
</trkpt>
<trkpt lat="35.3507160" lon="24.5175148">
<ele>96.2692871</ele>
<time>2010-05-04T06:28:56Z</time>
</trkpt>
<trkpt lat="35.3505662" lon="24.5175855">
<ele>95.3077393</ele>
<time>2010-05-04T06:29:09Z</time>
</trkpt>
<trkpt lat="35.3504397" lon="24.5176154">
<ele>95.3077393</ele>
<time>2010-05-04T06:29:20Z</time>
</trkpt>
<trkpt lat="35.3503455" lon="24.5176258">
<ele>92.9045410</ele>
<time>2010-05-04T06:29:29Z</time>
</trkpt>
<trkpt lat="35.3502388" lon="24.5176298">
<ele>94.8271484</ele>
<time>2010-05-04T06:29:38Z</time>
</trkpt>
<trkpt lat="35.3501383" lon="24.5176249">
<ele>98.1918945</ele>
<time>2010-05-04T06:29:46Z</time>
</trkpt>
<trkpt lat="35.3500492" lon="24.5176008">
<ele>97.7111816</ele>
<time>2010-05-04T06:29:55Z</time>
</trkpt>
<trkpt lat="35.3500163" lon="24.5175944">
<ele>97.7111816</ele>
<time>2010-05-04T06:29:58Z</time>
</trkpt>
<trkpt lat="35.3499637" lon="24.5175932">
<ele>97.2304688</ele>
<time>2010-05-04T06:30:03Z</time>
</trkpt>
<trkpt lat="35.3498752" lon="24.5175840">
<ele>96.2692871</ele>
<time>2010-05-04T06:30:12Z</time>
</trkpt>
<trkpt lat="35.3497845" lon="24.5175961">
<ele>96.2692871</ele>
<time>2010-05-04T06:30:21Z</time>
</trkpt>
<trkpt lat="35.3497123" lon="24.5176085">
<ele>95.3077393</ele>
<time>2010-05-04T06:30:30Z</time>
</trkpt>
<trkpt lat="35.3496879" lon="24.5176101">
<ele>95.3077393</ele>
<time>2010-05-04T06:30:49Z</time>
</trkpt>
<trkpt lat="35.3496461" lon="24.5176345">
<ele>96.2692871</ele>
<time>2010-05-04T06:31:03Z</time>
</trkpt>
<trkpt lat="35.3495783" lon="24.5176574">
<ele>97.7111816</ele>
<time>2010-05-04T06:31:11Z</time>
</trkpt>
<trkpt lat="35.3494973" lon="24.5176651">
<ele>99.6337891</ele>
<time>2010-05-04T06:31:20Z</time>
</trkpt>
<trkpt lat="35.3494333" lon="24.5176652">
<ele>98.6724854</ele>
<time>2010-05-04T06:31:28Z</time>
</trkpt>
<trkpt lat="35.3493347" lon="24.5176721">
<ele>97.2304688</ele>
<time>2010-05-04T06:31:38Z</time>
</trkpt>
<trkpt lat="35.3492832" lon="24.5176609">
<ele>95.7884521</ele>
<time>2010-05-04T06:31:44Z</time>
</trkpt>
<trkpt lat="35.3492338" lon="24.5176901">
<ele>98.1918945</ele>
<time>2010-05-04T06:31:50Z</time>
</trkpt>
<trkpt lat="35.3491748" lon="24.5177337">
<ele>102.0371094</ele>
<time>2010-05-04T06:31:57Z</time>
</trkpt>
<trkpt lat="35.3490898" lon="24.5177783">
<ele>101.5563965</ele>
<time>2010-05-04T06:32:06Z</time>
</trkpt>
<trkpt lat="35.3490259" lon="24.5178210">
<ele>98.1918945</ele>
<time>2010-05-04T06:32:15Z</time>
</trkpt>
<trkpt lat="35.3489640" lon="24.5178884">
<ele>96.7498779</ele>
<time>2010-05-04T06:32:25Z</time>
</trkpt>
<trkpt lat="35.3489247" lon="24.5179733">
<ele>98.6724854</ele>
<time>2010-05-04T06:32:33Z</time>
</trkpt>
<trkpt lat="35.3488517" lon="24.5180452">
<ele>100.5950928</ele>
<time>2010-05-04T06:32:43Z</time>
</trkpt>
<trkpt lat="35.3487636" lon="24.5181028">
<ele>102.0371094</ele>
<time>2010-05-04T06:32:53Z</time>
</trkpt>
<trkpt lat="35.3486805" lon="24.5181470">
<ele>103.4790039</ele>
<time>2010-05-04T06:33:03Z</time>
</trkpt>
<trkpt lat="35.3486833" lon="24.5181473">
<ele>104.4404297</ele>
<time>2010-05-04T06:33:10Z</time>
</trkpt>
<trkpt lat="35.3486890" lon="24.5181258">
<ele>105.8824463</ele>
<time>2010-05-04T06:33:26Z</time>
</trkpt>
<trkpt lat="35.3486805" lon="24.5181354">
<ele>110.6888428</ele>
<time>2010-05-04T06:33:46Z</time>
</trkpt>
<trkpt lat="35.3486405" lon="24.5181691">
<ele>113.0922852</ele>
<time>2010-05-04T06:34:10Z</time>
</trkpt>
<trkpt lat="35.3485978" lon="24.5181670">
<ele>111.6502686</ele>
<time>2010-05-04T06:34:18Z</time>
</trkpt>
<trkpt lat="35.3485264" lon="24.5181894">
<ele>109.2469482</ele>
<time>2010-05-04T06:34:30Z</time>
</trkpt>
<trkpt lat="35.3484464" lon="24.5182148">
<ele>109.2469482</ele>
<time>2010-05-04T06:34:40Z</time>
</trkpt>
<trkpt lat="35.3483868" lon="24.5182448">
<ele>109.2469482</ele>
<time>2010-05-04T06:34:47Z</time>
</trkpt>
<trkpt lat="35.3483128" lon="24.5182586">
<ele>111.1695557</ele>
<time>2010-05-04T06:34:55Z</time>
</trkpt>
<trkpt lat="35.3482389" lon="24.5182526">
<ele>112.1309814</ele>
<time>2010-05-04T06:35:03Z</time>
</trkpt>
<trkpt lat="35.3481771" lon="24.5182686">
<ele>111.1695557</ele>
<time>2010-05-04T06:35:10Z</time>
</trkpt>
<trkpt lat="35.3480774" lon="24.5183006">
<ele>109.2469482</ele>
<time>2010-05-04T06:35:21Z</time>
</trkpt>
<trkpt lat="35.3479951" lon="24.5183736">
<ele>113.5729980</ele>
<time>2010-05-04T06:35:31Z</time>
</trkpt>
<trkpt lat="35.3479657" lon="24.5184489">
<ele>116.9375000</ele>
<time>2010-05-04T06:35:40Z</time>
</trkpt>
<trkpt lat="35.3479127" lon="24.5185200">
<ele>119.3408203</ele>
<time>2010-05-04T06:35:48Z</time>
</trkpt>
<trkpt lat="35.3478492" lon="24.5185845">
<ele>121.2635498</ele>
<time>2010-05-04T06:35:57Z</time>
</trkpt>
<trkpt lat="35.3477710" lon="24.5185982">
<ele>120.7828369</ele>
<time>2010-05-04T06:36:06Z</time>
</trkpt>
<trkpt lat="35.3476708" lon="24.5185952">
<ele>120.3021240</ele>
<time>2010-05-04T06:36:17Z</time>
</trkpt>
<trkpt lat="35.3476095" lon="24.5185899">
<ele>121.2635498</ele>
<time>2010-05-04T06:36:26Z</time>
</trkpt>
<trkpt lat="35.3475669" lon="24.5185952">
<ele>121.2635498</ele>
<time>2010-05-04T06:36:32Z</time>
</trkpt>
<trkpt lat="35.3474975" lon="24.5186017">
<ele>121.7441406</ele>
<time>2010-05-04T06:36:42Z</time>
</trkpt>
<trkpt lat="35.3474173" lon="24.5186044">
<ele>122.7054443</ele>
<time>2010-05-04T06:36:52Z</time>
</trkpt>
<trkpt lat="35.3473349" lon="24.5185961">
<ele>125.1087646</ele>
<time>2010-05-04T06:37:01Z</time>
</trkpt>
<trkpt lat="35.3472783" lon="24.5185692">
<ele>127.9925537</ele>
<time>2010-05-04T06:37:09Z</time>
</trkpt>
<trkpt lat="35.3472654" lon="24.5185581">
<ele>127.9925537</ele>
<time>2010-05-04T06:37:14Z</time>
</trkpt>
<trkpt lat="35.3472545" lon="24.5185407">
<ele>128.9541016</ele>
<time>2010-05-04T06:37:20Z</time>
</trkpt>
<trkpt lat="35.3472197" lon="24.5185028">
<ele>129.9152832</ele>
<time>2010-05-04T06:37:29Z</time>
</trkpt>
<trkpt lat="35.3471635" lon="24.5184333">
<ele>129.9152832</ele>
<time>2010-05-04T06:37:37Z</time>
</trkpt>
<trkpt lat="35.3471134" lon="24.5183464">
<ele>129.4346924</ele>
<time>2010-05-04T06:37:46Z</time>
</trkpt>
<trkpt lat="35.3470839" lon="24.5182806">
<ele>128.9541016</ele>
<time>2010-05-04T06:37:52Z</time>
</trkpt>
<trkpt lat="35.3470085" lon="24.5181490">
<ele>129.9152832</ele>
<time>2010-05-04T06:38:04Z</time>
</trkpt>
<trkpt lat="35.3469235" lon="24.5180193">
<ele>129.4346924</ele>
<time>2010-05-04T06:38:16Z</time>
</trkpt>
<trkpt lat="35.3468327" lon="24.5179303">
<ele>129.4346924</ele>
<time>2010-05-04T06:38:26Z</time>
</trkpt>
<trkpt lat="35.3467524" lon="24.5178559">
<ele>129.4346924</ele>
<time>2010-05-04T06:38:34Z</time>
</trkpt>
<trkpt lat="35.3466655" lon="24.5177574">
<ele>128.4733887</ele>
<time>2010-05-04T06:38:44Z</time>
</trkpt>
<trkpt lat="35.3466065" lon="24.5176849">
<ele>128.4733887</ele>
<time>2010-05-04T06:38:51Z</time>
</trkpt>
<trkpt lat="35.3465709" lon="24.5176486">
<ele>128.4733887</ele>
<time>2010-05-04T06:38:55Z</time>
</trkpt>
<trkpt lat="35.3464382" lon="24.5175233">
<ele>127.5119629</ele>
<time>2010-05-04T06:39:09Z</time>
</trkpt>
<trkpt lat="35.3463470" lon="24.5174472">
<ele>127.0313721</ele>
<time>2010-05-04T06:39:18Z</time>
</trkpt>
<trkpt lat="35.3462453" lon="24.5173643">
<ele>126.0699463</ele>
<time>2010-05-04T06:39:28Z</time>
</trkpt>
<trkpt lat="35.3461310" lon="24.5172715">
<ele>124.1473389</ele>
<time>2010-05-04T06:39:40Z</time>
</trkpt>
<trkpt lat="35.3460889" lon="24.5172644">
<ele>123.6667480</ele>
<time>2010-05-04T06:39:44Z</time>
</trkpt>
<trkpt lat="35.3460450" lon="24.5172602">
<ele>123.1861572</ele>
<time>2010-05-04T06:39:48Z</time>
</trkpt>
<trkpt lat="35.3459191" lon="24.5172525">
<ele>121.7441406</ele>
<time>2010-05-04T06:39:59Z</time>
</trkpt>
<trkpt lat="35.3458114" lon="24.5172457">
<ele>121.7441406</ele>
<time>2010-05-04T06:40:08Z</time>
</trkpt>
<trkpt lat="35.3457124" lon="24.5172596">
<ele>119.8214111</ele>
<time>2010-05-04T06:40:17Z</time>
</trkpt>
<trkpt lat="35.3456508" lon="24.5173324">
<ele>119.3408203</ele>
<time>2010-05-04T06:40:26Z</time>
</trkpt>
<trkpt lat="35.3456258" lon="24.5174348">
<ele>121.2635498</ele>
<time>2010-05-04T06:40:33Z</time>
</trkpt>
<trkpt lat="35.3456796" lon="24.5175555">
<ele>121.2635498</ele>
<time>2010-05-04T06:40:43Z</time>
</trkpt>
<trkpt lat="35.3457260" lon="24.5176317">
<ele>121.2635498</ele>
<time>2010-05-04T06:40:51Z</time>
</trkpt>
<trkpt lat="35.3457378" lon="24.5177432">
<ele>124.1473389</ele>
<time>2010-05-04T06:41:00Z</time>
</trkpt>
<trkpt lat="35.3457165" lon="24.5178403">
<ele>125.5893555</ele>
<time>2010-05-04T06:41:08Z</time>
</trkpt>
<trkpt lat="35.3457046" lon="24.5179294">
<ele>126.0699463</ele>
<time>2010-05-04T06:41:16Z</time>
</trkpt>
<trkpt lat="35.3456771" lon="24.5180473">
<ele>126.5506592</ele>
<time>2010-05-04T06:41:27Z</time>
</trkpt>
<trkpt lat="35.3456293" lon="24.5181647">
<ele>127.5119629</ele>
<time>2010-05-04T06:41:38Z</time>
</trkpt>
<trkpt lat="35.3456048" lon="24.5182044">
<ele>127.9925537</ele>
<time>2010-05-04T06:41:42Z</time>
</trkpt>
<trkpt lat="35.3455661" lon="24.5182856">
<ele>129.9152832</ele>
<time>2010-05-04T06:41:51Z</time>
</trkpt>
<trkpt lat="35.3455677" lon="24.5183219">
<ele>130.8767090</ele>
<time>2010-05-04T06:41:58Z</time>
</trkpt>
<trkpt lat="35.3455285" lon="24.5184266">
<ele>132.7993164</ele>
<time>2010-05-04T06:42:08Z</time>
</trkpt>
<trkpt lat="35.3455226" lon="24.5184468">
<ele>133.7604980</ele>
<time>2010-05-04T06:42:15Z</time>
</trkpt>
<trkpt lat="35.3455205" lon="24.5184712">
<ele>134.7219238</ele>
<time>2010-05-04T06:42:26Z</time>
</trkpt>
<trkpt lat="35.3455145" lon="24.5184964">
<ele>134.7219238</ele>
<time>2010-05-04T06:42:34Z</time>
</trkpt>
<trkpt lat="35.3454985" lon="24.5185316">
<ele>134.2412109</ele>
<time>2010-05-04T06:42:42Z</time>
</trkpt>
<trkpt lat="35.3454708" lon="24.5186094">
<ele>134.2412109</ele>
<time>2010-05-04T06:42:50Z</time>
</trkpt>
<trkpt lat="35.3454617" lon="24.5186713">
<ele>133.7604980</ele>
<time>2010-05-04T06:42:56Z</time>
</trkpt>
<trkpt lat="35.3454487" lon="24.5187556">
<ele>133.7604980</ele>
<time>2010-05-04T06:43:03Z</time>
</trkpt>
<trkpt lat="35.3454524" lon="24.5188266">
<ele>133.2799072</ele>
<time>2010-05-04T06:43:10Z</time>
</trkpt>
<trkpt lat="35.3454380" lon="24.5189048">
<ele>132.7993164</ele>
<time>2010-05-04T06:43:19Z</time>
</trkpt>
<trkpt lat="35.3454169" lon="24.5189892">
<ele>132.7993164</ele>
<time>2010-05-04T06:43:26Z</time>
</trkpt>
<trkpt lat="35.3453722" lon="24.5190981">
<ele>132.7993164</ele>
<time>2010-05-04T06:43:35Z</time>
</trkpt>
<trkpt lat="35.3453016" lon="24.5191939">
<ele>132.3186035</ele>
<time>2010-05-04T06:43:44Z</time>
</trkpt>
<trkpt lat="35.3452051" lon="24.5193028">
<ele>133.2799072</ele>
<time>2010-05-04T06:43:55Z</time>
</trkpt>
<trkpt lat="35.3451404" lon="24.5194222">
<ele>135.2025146</ele>
<time>2010-05-04T06:44:05Z</time>
</trkpt>
<trkpt lat="35.3450740" lon="24.5195508">
<ele>136.1639404</ele>
<time>2010-05-04T06:44:15Z</time>
</trkpt>
<trkpt lat="35.3450070" lon="24.5196658">
<ele>136.6446533</ele>
<time>2010-05-04T06:44:25Z</time>
</trkpt>
<trkpt lat="35.3449219" lon="24.5197600">
<ele>137.6058350</ele>
<time>2010-05-04T06:44:36Z</time>
</trkpt>
<trkpt lat="35.3448415" lon="24.5197957">
<ele>138.0865479</ele>
<time>2010-05-04T06:44:44Z</time>
</trkpt>
<trkpt lat="35.3447592" lon="24.5198030">
<ele>138.5672607</ele>
<time>2010-05-04T06:44:53Z</time>
</trkpt>
<trkpt lat="35.3446685" lon="24.5198057">
<ele>139.0478516</ele>
<time>2010-05-04T06:45:03Z</time>
</trkpt>
<trkpt lat="35.3445826" lon="24.5198124">
<ele>139.5284424</ele>
<time>2010-05-04T06:45:12Z</time>
</trkpt>
<trkpt lat="35.3444957" lon="24.5198372">
<ele>140.0091553</ele>
<time>2010-05-04T06:45:22Z</time>
</trkpt>
<trkpt lat="35.3444143" lon="24.5198492">
<ele>140.4898682</ele>
<time>2010-05-04T06:45:29Z</time>
</trkpt>
<trkpt lat="35.3443284" lon="24.5198522">
<ele>141.4510498</ele>
<time>2010-05-04T06:45:37Z</time>
</trkpt>
<trkpt lat="35.3442506" lon="24.5198657">
<ele>142.4124756</ele>
<time>2010-05-04T06:45:44Z</time>
</trkpt>
<trkpt lat="35.3441537" lon="24.5198963">
<ele>142.4124756</ele>
<time>2010-05-04T06:45:53Z</time>
</trkpt>
<trkpt lat="35.3440537" lon="24.5199418">
<ele>142.8930664</ele>
<time>2010-05-04T06:46:02Z</time>
</trkpt>
<trkpt lat="35.3439631" lon="24.5199999">
<ele>144.3352051</ele>
<time>2010-05-04T06:46:11Z</time>
</trkpt>
<trkpt lat="35.3438673" lon="24.5200802">
<ele>145.7770996</ele>
<time>2010-05-04T06:46:21Z</time>
</trkpt>
<trkpt lat="35.3437831" lon="24.5201558">
<ele>148.1804199</ele>
<time>2010-05-04T06:46:31Z</time>
</trkpt>
<trkpt lat="35.3436982" lon="24.5202310">
<ele>150.1030273</ele>
<time>2010-05-04T06:46:41Z</time>
</trkpt>
<trkpt lat="35.3436316" lon="24.5203046">
<ele>152.5063477</ele>
<time>2010-05-04T06:46:50Z</time>
</trkpt>
<trkpt lat="35.3435930" lon="24.5203391">
<ele>153.9483643</ele>
<time>2010-05-04T06:46:55Z</time>
</trkpt>
<trkpt lat="35.3434925" lon="24.5203552">
<ele>154.4289551</ele>
<time>2010-05-04T06:47:05Z</time>
</trkpt>
<trkpt lat="35.3434231" lon="24.5203390">
<ele>156.3515625</ele>
<time>2010-05-04T06:47:12Z</time>
</trkpt>
<trkpt lat="35.3433421" lon="24.5203240">
<ele>156.8321533</ele>
<time>2010-05-04T06:47:21Z</time>
</trkpt>
<trkpt lat="35.3432546" lon="24.5202993">
<ele>158.2741699</ele>
<time>2010-05-04T06:47:31Z</time>
</trkpt>
<trkpt lat="35.3431808" lon="24.5202562">
<ele>157.7935791</ele>
<time>2010-05-04T06:47:41Z</time>
</trkpt>
<trkpt lat="35.3431047" lon="24.5202221">
<ele>158.7547607</ele>
<time>2010-05-04T06:47:50Z</time>
</trkpt>
<trkpt lat="35.3430127" lon="24.5201803">
<ele>160.6774902</ele>
<time>2010-05-04T06:48:00Z</time>
</trkpt>
<trkpt lat="35.3429101" lon="24.5201391">
<ele>161.1582031</ele>
<time>2010-05-04T06:48:11Z</time>
</trkpt>
<trkpt lat="35.3428629" lon="24.5201281">
<ele>162.1195068</ele>
<time>2010-05-04T06:48:16Z</time>
</trkpt>
<trkpt lat="35.3428223" lon="24.5201097">
<ele>162.1195068</ele>
<time>2010-05-04T06:48:24Z</time>
</trkpt>
<trkpt lat="35.3428015" lon="24.5201123">
<ele>163.0808105</ele>
<time>2010-05-04T06:48:38Z</time>
</trkpt>
<trkpt lat="35.3427339" lon="24.5201112">
<ele>164.0421143</ele>
<time>2010-05-04T06:48:45Z</time>
</trkpt>
<trkpt lat="35.3426780" lon="24.5201174">
<ele>164.5227051</ele>
<time>2010-05-04T06:48:51Z</time>
</trkpt>
<trkpt lat="35.3425910" lon="24.5201285">
<ele>165.0034180</ele>
<time>2010-05-04T06:49:00Z</time>
</trkpt>
<trkpt lat="35.3425052" lon="24.5201575">
<ele>165.9647217</ele>
<time>2010-05-04T06:49:09Z</time>
</trkpt>
<trkpt lat="35.3424945" lon="24.5201619">
<ele>166.4453125</ele>
<time>2010-05-04T06:49:10Z</time>
</trkpt>
<trkpt lat="35.3424550" lon="24.5201750">
<ele>166.9260254</ele>
<time>2010-05-04T06:49:14Z</time>
</trkpt>
<trkpt lat="35.3423666" lon="24.5201910">
<ele>167.8873291</ele>
<time>2010-05-04T06:49:23Z</time>
</trkpt>
<trkpt lat="35.3422843" lon="24.5202383">
<ele>169.8100586</ele>
<time>2010-05-04T06:49:30Z</time>
</trkpt>
<trkpt lat="35.3421754" lon="24.5202937">
<ele>169.3294678</ele>
<time>2010-05-04T06:49:40Z</time>
</trkpt>
<trkpt lat="35.3421499" lon="24.5202747">
<ele>169.3294678</ele>
<time>2010-05-04T06:49:49Z</time>
</trkpt>
<trkpt lat="35.3421291" lon="24.5202975">
<ele>168.3680420</ele>
<time>2010-05-04T06:49:54Z</time>
</trkpt>
<trkpt lat="35.3421152" lon="24.5203064">
<ele>167.4067383</ele>
<time>2010-05-04T06:50:01Z</time>
</trkpt>
<trkpt lat="35.3421221" lon="24.5203065">
<ele>169.3294678</ele>
<time>2010-05-04T06:50:22Z</time>
</trkpt>
<trkpt lat="35.3421162" lon="24.5203025">
<ele>169.3294678</ele>
<time>2010-05-04T06:50:27Z</time>
</trkpt>
<trkpt lat="35.3421169" lon="24.5203095">
<ele>170.2906494</ele>
<time>2010-05-04T06:50:35Z</time>
</trkpt>
<trkpt lat="35.3421154" lon="24.5203134">
<ele>170.7713623</ele>
<time>2010-05-04T06:50:45Z</time>
</trkpt>
<trkpt lat="35.3421216" lon="24.5203235">
<ele>171.2520752</ele>
<time>2010-05-04T06:51:03Z</time>
</trkpt>
<trkpt lat="35.3421906" lon="24.5203557">
<ele>179.9038086</ele>
<time>2010-05-04T06:51:24Z</time>
</trkpt>
<trkpt lat="35.3421863" lon="24.5203505">
<ele>179.4232178</ele>
<time>2010-05-04T06:51:35Z</time>
</trkpt>
<trkpt lat="35.3421757" lon="24.5203493">
<ele>177.9812012</ele>
<time>2010-05-04T06:51:52Z</time>
</trkpt>
<trkpt lat="35.3421801" lon="24.5203535">
<ele>176.5393066</ele>
<time>2010-05-04T06:52:11Z</time>
</trkpt>
<trkpt lat="35.3421459" lon="24.5203381">
<ele>172.6939697</ele>
<time>2010-05-04T06:52:26Z</time>
</trkpt>
<trkpt lat="35.3420439" lon="24.5203727">
<ele>170.2906494</ele>
<time>2010-05-04T06:53:15Z</time>
</trkpt>
<trkpt lat="35.3419720" lon="24.5204560">
<ele>171.2520752</ele>
<time>2010-05-04T06:53:25Z</time>
</trkpt>
<trkpt lat="35.3419559" lon="24.5204713">
<ele>170.7713623</ele>
<time>2010-05-04T06:53:27Z</time>
</trkpt>
<trkpt lat="35.3418831" lon="24.5205793">
<ele>172.6939697</ele>
<time>2010-05-04T06:53:38Z</time>
</trkpt>
<trkpt lat="35.3418310" lon="24.5206416">
<ele>172.6939697</ele>
<time>2010-05-04T06:53:45Z</time>
</trkpt>
<trkpt lat="35.3417676" lon="24.5206857">
<ele>173.1746826</ele>
<time>2010-05-04T06:53:53Z</time>
</trkpt>
<trkpt lat="35.3416976" lon="24.5207292">
<ele>174.6165771</ele>
<time>2010-05-04T06:54:01Z</time>
</trkpt>
<trkpt lat="35.3416173" lon="24.5207783">
<ele>176.5393066</ele>
<time>2010-05-04T06:54:12Z</time>
</trkpt>
<trkpt lat="35.3415263" lon="24.5207836">
<ele>178.9426270</ele>
<time>2010-05-04T06:54:22Z</time>
</trkpt>
<trkpt lat="35.3414780" lon="24.5207867">
<ele>180.8652344</ele>
<time>2010-05-04T06:54:28Z</time>
</trkpt>
<trkpt lat="35.3414559" lon="24.5207778">
<ele>181.3458252</ele>
<time>2010-05-04T06:54:35Z</time>
</trkpt>
<trkpt lat="35.3414516" lon="24.5207770">
<ele>180.3845215</ele>
<time>2010-05-04T06:54:47Z</time>
</trkpt>
<trkpt lat="35.3414570" lon="24.5207827">
<ele>180.8652344</ele>
<time>2010-05-04T06:54:58Z</time>
</trkpt>
<trkpt lat="35.3414624" lon="24.5207886">
<ele>181.8264160</ele>
<time>2010-05-04T06:55:07Z</time>
</trkpt>
<trkpt lat="35.3414638" lon="24.5207935">
<ele>180.8652344</ele>
<time>2010-05-04T06:55:19Z</time>
</trkpt>
<trkpt lat="35.3414369" lon="24.5207824">
<ele>180.3845215</ele>
<time>2010-05-04T06:55:26Z</time>
</trkpt>
<trkpt lat="35.3413879" lon="24.5207938">
<ele>180.8652344</ele>
<time>2010-05-04T06:55:32Z</time>
</trkpt>
<trkpt lat="35.3413466" lon="24.5207902">
<ele>181.3458252</ele>
<time>2010-05-04T06:55:38Z</time>
</trkpt>
<trkpt lat="35.3413481" lon="24.5207951">
<ele>180.8652344</ele>
<time>2010-05-04T06:55:45Z</time>
</trkpt>
<trkpt lat="35.3413187" lon="24.5207950">
<ele>182.3071289</ele>
<time>2010-05-04T06:55:51Z</time>
</trkpt>
<trkpt lat="35.3413125" lon="24.5207878">
<ele>183.2684326</ele>
<time>2010-05-04T06:55:58Z</time>
</trkpt>
<trkpt lat="35.3413125" lon="24.5207819">
<ele>184.2298584</ele>
<time>2010-05-04T06:56:10Z</time>
</trkpt>
<trkpt lat="35.3413120" lon="24.5207764">
<ele>184.2298584</ele>
<time>2010-05-04T06:56:22Z</time>
</trkpt>
<trkpt lat="35.3413104" lon="24.5207733">
<ele>184.7105713</ele>
<time>2010-05-04T06:56:38Z</time>
</trkpt>
<trkpt lat="35.3413114" lon="24.5207623">
<ele>185.6717529</ele>
<time>2010-05-04T06:56:50Z</time>
</trkpt>
<trkpt lat="35.3412834" lon="24.5207680">
<ele>185.6717529</ele>
<time>2010-05-04T06:56:59Z</time>
</trkpt>
<trkpt lat="35.3412006" lon="24.5207764">
<ele>185.6717529</ele>
<time>2010-05-04T06:57:08Z</time>
</trkpt>
<trkpt lat="35.3411169" lon="24.5208029">
<ele>185.6717529</ele>
<time>2010-05-04T06:57:17Z</time>
</trkpt>
<trkpt lat="35.3410222" lon="24.5208490">
<ele>185.1911621</ele>
<time>2010-05-04T06:57:27Z</time>
</trkpt>
<trkpt lat="35.3409232" lon="24.5208928">
<ele>184.7105713</ele>
<time>2010-05-04T06:57:38Z</time>
</trkpt>
<trkpt lat="35.3408349" lon="24.5209267">
<ele>184.7105713</ele>
<time>2010-05-04T06:57:47Z</time>
</trkpt>
<trkpt lat="35.3407354" lon="24.5209634">
<ele>186.1524658</ele>
<time>2010-05-04T06:57:56Z</time>
</trkpt>
<trkpt lat="35.3406390" lon="24.5209743">
<ele>186.6331787</ele>
<time>2010-05-04T06:58:05Z</time>
</trkpt>
<trkpt lat="35.3405329" lon="24.5209777">
<ele>186.1524658</ele>
<time>2010-05-04T06:58:14Z</time>
</trkpt>
<trkpt lat="35.3403774" lon="24.5209761">
<ele>185.6717529</ele>
<time>2010-05-04T06:58:27Z</time>
</trkpt>
<trkpt lat="35.3402542" lon="24.5209757">
<ele>185.6717529</ele>
<time>2010-05-04T06:58:38Z</time>
</trkpt>
<trkpt lat="35.3401153" lon="24.5209721">
<ele>186.6331787</ele>
<time>2010-05-04T06:58:50Z</time>
</trkpt>
<trkpt lat="35.3399600" lon="24.5209606">
<ele>186.6331787</ele>
<time>2010-05-04T06:59:03Z</time>
</trkpt>
<trkpt lat="35.3398589" lon="24.5209461">
<ele>187.5943604</ele>
<time>2010-05-04T06:59:12Z</time>
</trkpt>
<trkpt lat="35.3397212" lon="24.5209202">
<ele>188.5557861</ele>
<time>2010-05-04T06:59:24Z</time>
</trkpt>
<trkpt lat="35.3396268" lon="24.5208759">
<ele>189.5169678</ele>
<time>2010-05-04T06:59:33Z</time>
</trkpt>
<trkpt lat="35.3395529" lon="24.5208033">
<ele>189.9976807</ele>
<time>2010-05-04T06:59:42Z</time>
</trkpt>
<trkpt lat="35.3394745" lon="24.5207138">
<ele>189.9976807</ele>
<time>2010-05-04T06:59:51Z</time>
</trkpt>
<trkpt lat="35.3394585" lon="24.5207006">
<ele>189.5169678</ele>
<time>2010-05-04T06:59:53Z</time>
</trkpt>
<trkpt lat="35.3394484" lon="24.5207018">
<ele>191.4395752</ele>
<time>2010-05-04T07:00:00Z</time>
</trkpt>
<trkpt lat="35.3394486" lon="24.5207298">
<ele>192.8817139</ele>
<time>2010-05-04T07:00:15Z</time>
</trkpt>
<trkpt lat="35.3394462" lon="24.5207324">
<ele>193.3623047</ele>
<time>2010-05-04T07:00:24Z</time>
</trkpt>
<trkpt lat="35.3394397" lon="24.5207392">
<ele>194.3237305</ele>
<time>2010-05-04T07:00:36Z</time>
</trkpt>
<trkpt lat="35.3394370" lon="24.5207339">
<ele>194.3237305</ele>
<time>2010-05-04T07:00:42Z</time>
</trkpt>
<trkpt lat="35.3394201" lon="24.5207234">
<ele>194.8043213</ele>
<time>2010-05-04T07:00:48Z</time>
</trkpt>
<trkpt lat="35.3394103" lon="24.5207145">
<ele>194.8043213</ele>
<time>2010-05-04T07:00:55Z</time>
</trkpt>
<trkpt lat="35.3393798" lon="24.5207097">
<ele>194.8043213</ele>
<time>2010-05-04T07:01:03Z</time>
</trkpt>
<trkpt lat="35.3393075" lon="24.5207028">
<ele>194.8043213</ele>
<time>2010-05-04T07:01:12Z</time>
</trkpt>
<trkpt lat="35.3392338" lon="24.5206938">
<ele>194.8043213</ele>
<time>2010-05-04T07:01:19Z</time>
</trkpt>
<trkpt lat="35.3391746" lon="24.5206780">
<ele>193.8430176</ele>
<time>2010-05-04T07:01:26Z</time>
</trkpt>
<trkpt lat="35.3391648" lon="24.5206687">
<ele>193.8430176</ele>
<time>2010-05-04T07:01:34Z</time>
</trkpt>
<trkpt lat="35.3391668" lon="24.5206536">
<ele>194.3237305</ele>
<time>2010-05-04T07:01:41Z</time>
</trkpt>
<trkpt lat="35.3391837" lon="24.5206623">
<ele>194.3237305</ele>
<time>2010-05-04T07:01:48Z</time>
</trkpt>
<trkpt lat="35.3391933" lon="24.5206561">
<ele>194.3237305</ele>
<time>2010-05-04T07:01:56Z</time>
</trkpt>
<trkpt lat="35.3391848" lon="24.5206644">
<ele>194.3237305</ele>
<time>2010-05-04T07:02:12Z</time>
</trkpt>
<trkpt lat="35.3391000" lon="24.5206702">
<ele>194.3237305</ele>
<time>2010-05-04T07:02:20Z</time>
</trkpt>
<trkpt lat="35.3389585" lon="24.5206444">
<ele>193.8430176</ele>
<time>2010-05-04T07:02:31Z</time>
</trkpt>
<trkpt lat="35.3388250" lon="24.5206211">
<ele>191.9202881</ele>
<time>2010-05-04T07:02:42Z</time>
</trkpt>
<trkpt lat="35.3386574" lon="24.5206154">
<ele>192.8817139</ele>
<time>2010-05-04T07:02:55Z</time>
</trkpt>
<trkpt lat="35.3385266" lon="24.5206137">
<ele>192.8817139</ele>
<time>2010-05-04T07:03:06Z</time>
</trkpt>
<trkpt lat="35.3383868" lon="24.5206402">
<ele>193.3623047</ele>
<time>2010-05-04T07:03:18Z</time>
</trkpt>
<trkpt lat="35.3383694" lon="24.5206408">
<ele>193.3623047</ele>
<time>2010-05-04T07:03:20Z</time>
</trkpt>
<trkpt lat="35.3383668" lon="24.5206277">
<ele>190.9589844</ele>
<time>2010-05-04T07:03:30Z</time>
</trkpt>
<trkpt lat="35.3383675" lon="24.5206203">
<ele>190.4783936</ele>
<time>2010-05-04T07:03:38Z</time>
</trkpt>
<trkpt lat="35.3383670" lon="24.5206099">
<ele>190.4783936</ele>
<time>2010-05-04T07:03:49Z</time>
</trkpt>
<trkpt lat="35.3383624" lon="24.5206168">
<ele>190.4783936</ele>
<time>2010-05-04T07:03:57Z</time>
</trkpt>
<trkpt lat="35.3383639" lon="24.5206159">
<ele>189.9976807</ele>
<time>2010-05-04T07:04:09Z</time>
</trkpt>
<trkpt lat="35.3383603" lon="24.5206064">
<ele>189.5169678</ele>
<time>2010-05-04T07:04:17Z</time>
</trkpt>
<trkpt lat="35.3383511" lon="24.5206070">
<ele>189.5169678</ele>
<time>2010-05-04T07:04:31Z</time>
</trkpt>
<trkpt lat="35.3383379" lon="24.5206115">
<ele>189.9976807</ele>
<time>2010-05-04T07:04:38Z</time>
</trkpt>
<trkpt lat="35.3382775" lon="24.5205764">
<ele>190.4783936</ele>
<time>2010-05-04T07:04:46Z</time>
</trkpt>
<trkpt lat="35.3382692" lon="24.5205718">
<ele>190.4783936</ele>
<time>2010-05-04T07:04:52Z</time>
</trkpt>
<trkpt lat="35.3382738" lon="24.5205789">
<ele>189.9976807</ele>
<time>2010-05-04T07:05:00Z</time>
</trkpt>
<trkpt lat="35.3382749" lon="24.5205759">
<ele>189.9976807</ele>
<time>2010-05-04T07:05:11Z</time>
</trkpt>
<trkpt lat="35.3382428" lon="24.5205561">
<ele>190.4783936</ele>
<time>2010-05-04T07:05:19Z</time>
</trkpt>
<trkpt lat="35.3381235" lon="24.5205201">
<ele>190.9589844</ele>
<time>2010-05-04T07:05:28Z</time>
</trkpt>
<trkpt lat="35.3380742" lon="24.5205175">
<ele>191.9202881</ele>
<time>2010-05-04T07:05:32Z</time>
</trkpt>
<trkpt lat="35.3380555" lon="24.5205194">
<ele>191.9202881</ele>
<time>2010-05-04T07:05:37Z</time>
</trkpt>
<trkpt lat="35.3379845" lon="24.5205060">
<ele>192.4011230</ele>
<time>2010-05-04T07:05:45Z</time>
</trkpt>
<trkpt lat="35.3379634" lon="24.5205091">
<ele>192.8817139</ele>
<time>2010-05-04T07:05:51Z</time>
</trkpt>
<trkpt lat="35.3379490" lon="24.5205144">
<ele>192.8817139</ele>
<time>2010-05-04T07:06:02Z</time>
</trkpt>
<trkpt lat="35.3379426" lon="24.5205123">
<ele>193.3623047</ele>
<time>2010-05-04T07:06:10Z</time>
</trkpt>
<trkpt lat="35.3379417" lon="24.5205069">
<ele>193.8430176</ele>
<time>2010-05-04T07:06:35Z</time>
</trkpt>
<trkpt lat="35.3379423" lon="24.5205040">
<ele>194.3237305</ele>
<time>2010-05-04T07:06:50Z</time>
</trkpt>
<trkpt lat="35.3379439" lon="24.5205039">
<ele>193.8430176</ele>
<time>2010-05-04T07:07:05Z</time>
</trkpt>
<trkpt lat="35.3379398" lon="24.5205092">
<ele>195.7656250</ele>
<time>2010-05-04T07:07:57Z</time>
</trkpt>
<trkpt lat="35.3379158" lon="24.5204949">
<ele>194.3237305</ele>
<time>2010-05-04T07:08:12Z</time>
</trkpt>
<trkpt lat="35.3379011" lon="24.5204990">
<ele>194.3237305</ele>
<time>2010-05-04T07:08:15Z</time>
</trkpt>
<trkpt lat="35.3378662" lon="24.5205081">
<ele>195.7656250</ele>
<time>2010-05-04T07:08:19Z</time>
</trkpt>
<trkpt lat="35.3377628" lon="24.5204986">
<ele>196.2463379</ele>
<time>2010-05-04T07:08:29Z</time>
</trkpt>
<trkpt lat="35.3376910" lon="24.5204525">
<ele>195.7656250</ele>
<time>2010-05-04T07:08:37Z</time>
</trkpt>
<trkpt lat="35.3376338" lon="24.5204018">
<ele>195.7656250</ele>
<time>2010-05-04T07:08:45Z</time>
</trkpt>
<trkpt lat="35.3375657" lon="24.5203325">
<ele>195.7656250</ele>
<time>2010-05-04T07:08:53Z</time>
</trkpt>
<trkpt lat="35.3374940" lon="24.5202722">
<ele>195.7656250</ele>
<time>2010-05-04T07:09:01Z</time>
</trkpt>
<trkpt lat="35.3373927" lon="24.5202304">
<ele>196.7269287</ele>
<time>2010-05-04T07:09:11Z</time>
</trkpt>
<trkpt lat="35.3373807" lon="24.5202276">
<ele>196.7269287</ele>
<time>2010-05-04T07:09:12Z</time>
</trkpt>
<trkpt lat="35.3372813" lon="24.5202375">
<ele>196.7269287</ele>
<time>2010-05-04T07:09:20Z</time>
</trkpt>
<trkpt lat="35.3371823" lon="24.5202734">
<ele>196.2463379</ele>
<time>2010-05-04T07:09:29Z</time>
</trkpt>
<trkpt lat="35.3370694" lon="24.5203278">
<ele>195.7656250</ele>
<time>2010-05-04T07:09:39Z</time>
</trkpt>
<trkpt lat="35.3369566" lon="24.5203778">
<ele>195.7656250</ele>
<time>2010-05-04T07:09:49Z</time>
</trkpt>
<trkpt lat="35.3369229" lon="24.5203956">
<ele>196.2463379</ele>
<time>2010-05-04T07:09:57Z</time>
</trkpt>
<trkpt lat="35.3369149" lon="24.5204050">
<ele>197.6882324</ele>
<time>2010-05-04T07:10:13Z</time>
</trkpt>
<trkpt lat="35.3368542" lon="24.5204153">
<ele>198.1689453</ele>
<time>2010-05-04T07:10:20Z</time>
</trkpt>
<trkpt lat="35.3367941" lon="24.5204194">
<ele>197.6882324</ele>
<time>2010-05-04T07:10:26Z</time>
</trkpt>
<trkpt lat="35.3367190" lon="24.5204651">
<ele>199.1301270</ele>
<time>2010-05-04T07:10:32Z</time>
</trkpt>
<trkpt lat="35.3366712" lon="24.5205132">
<ele>200.5722656</ele>
<time>2010-05-04T07:10:38Z</time>
</trkpt>
<trkpt lat="35.3366388" lon="24.5206157">
<ele>200.0916748</ele>
<time>2010-05-04T07:10:45Z</time>
</trkpt>
<trkpt lat="35.3366344" lon="24.5207136">
<ele>197.6882324</ele>
<time>2010-05-04T07:10:53Z</time>
</trkpt>
<trkpt lat="35.3366289" lon="24.5208147">
<ele>196.2463379</ele>
<time>2010-05-04T07:11:01Z</time>
</trkpt>
<trkpt lat="35.3366105" lon="24.5208995">
<ele>194.3237305</ele>
<time>2010-05-04T07:11:09Z</time>
</trkpt>
<trkpt lat="35.3365809" lon="24.5209810">
<ele>193.3623047</ele>
<time>2010-05-04T07:11:16Z</time>
</trkpt>
<trkpt lat="35.3365410" lon="24.5210124">
<ele>191.9202881</ele>
<time>2010-05-04T07:11:20Z</time>
</trkpt>
<trkpt lat="35.3364541" lon="24.5210624">
<ele>186.6331787</ele>
<time>2010-05-04T07:11:30Z</time>
</trkpt>
<trkpt lat="35.3363670" lon="24.5211189">
<ele>183.2684326</ele>
<time>2010-05-04T07:11:39Z</time>
</trkpt>
<trkpt lat="35.3363001" lon="24.5211768">
<ele>179.4232178</ele>
<time>2010-05-04T07:11:48Z</time>
</trkpt>
<trkpt lat="35.3362328" lon="24.5212441">
<ele>178.9426270</ele>
<time>2010-05-04T07:11:56Z</time>
</trkpt>
<trkpt lat="35.3362026" lon="24.5212712">
<ele>179.4232178</ele>
<time>2010-05-04T07:11:59Z</time>
</trkpt>
<trkpt lat="35.3361742" lon="24.5213167">
<ele>181.3458252</ele>
<time>2010-05-04T07:12:05Z</time>
</trkpt>
<trkpt lat="35.3361887" lon="24.5213499">
<ele>186.6331787</ele>
<time>2010-05-04T07:12:19Z</time>
</trkpt>
<trkpt lat="35.3361770" lon="24.5213736">
<ele>186.1524658</ele>
<time>2010-05-04T07:12:24Z</time>
</trkpt>
<trkpt lat="35.3361676" lon="24.5213658">
<ele>186.1524658</ele>
<time>2010-05-04T07:12:39Z</time>
</trkpt>
<trkpt lat="35.3361570" lon="24.5213680">
<ele>187.1137695</ele>
<time>2010-05-04T07:12:50Z</time>
</trkpt>
<trkpt lat="35.3361547" lon="24.5213638">
<ele>187.1137695</ele>
<time>2010-05-04T07:12:57Z</time>
</trkpt>
<trkpt lat="35.3361531" lon="24.5213646">
<ele>188.0750732</ele>
<time>2010-05-04T07:13:18Z</time>
</trkpt>
<trkpt lat="35.3361360" lon="24.5213683">
<ele>188.0750732</ele>
<time>2010-05-04T07:13:29Z</time>
</trkpt>
<trkpt lat="35.3360899" lon="24.5213869">
<ele>187.1137695</ele>
<time>2010-05-04T07:13:38Z</time>
</trkpt>
<trkpt lat="35.3360545" lon="24.5214128">
<ele>186.1524658</ele>
<time>2010-05-04T07:13:45Z</time>
</trkpt>
<trkpt lat="35.3360531" lon="24.5214218">
<ele>188.5557861</ele>
<time>2010-05-04T07:14:15Z</time>
</trkpt>
<trkpt lat="35.3360313" lon="24.5214424">
<ele>187.5943604</ele>
<time>2010-05-04T07:14:26Z</time>
</trkpt>
<trkpt lat="35.3360259" lon="24.5214383">
<ele>187.1137695</ele>
<time>2010-05-04T07:14:37Z</time>
</trkpt>
<trkpt lat="35.3360158" lon="24.5214648">
<ele>187.1137695</ele>
<time>2010-05-04T07:15:06Z</time>
</trkpt>
<trkpt lat="35.3360059" lon="24.5214149">
<ele>191.4395752</ele>
<time>2010-05-04T07:15:25Z</time>
</trkpt>
<trkpt lat="35.3359987" lon="24.5214228">
<ele>189.9976807</ele>
<time>2010-05-04T07:15:37Z</time>
</trkpt>
<trkpt lat="35.3359868" lon="24.5214629">
<ele>189.0363770</ele>
<time>2010-05-04T07:15:42Z</time>
</trkpt>
<trkpt lat="35.3359852" lon="24.5215024">
<ele>187.5943604</ele>
<time>2010-05-04T07:15:48Z</time>
</trkpt>
<trkpt lat="35.3359795" lon="24.5215125">
<ele>184.7105713</ele>
<time>2010-05-04T07:16:01Z</time>
</trkpt>
<trkpt lat="35.3359951" lon="24.5215193">
<ele>185.1911621</ele>
<time>2010-05-04T07:16:15Z</time>
</trkpt>
<trkpt lat="35.3359775" lon="24.5215196">
<ele>185.1911621</ele>
<time>2010-05-04T07:16:28Z</time>
</trkpt>
<trkpt lat="35.3359687" lon="24.5215161">
<ele>184.7105713</ele>
<time>2010-05-04T07:16:37Z</time>
</trkpt>
<trkpt lat="35.3359648" lon="24.5215177">
<ele>186.1524658</ele>
<time>2010-05-04T07:16:53Z</time>
</trkpt>
<trkpt lat="35.3359755" lon="24.5215182">
<ele>186.6331787</ele>
<time>2010-05-04T07:17:19Z</time>
</trkpt>
<trkpt lat="35.3359688" lon="24.5215361">
<ele>187.1137695</ele>
<time>2010-05-04T07:17:29Z</time>
</trkpt>
<trkpt lat="35.3359503" lon="24.5215590">
<ele>185.6717529</ele>
<time>2010-05-04T07:17:34Z</time>
</trkpt>
<trkpt lat="35.3359076" lon="24.5215755">
<ele>182.3071289</ele>
<time>2010-05-04T07:17:41Z</time>
</trkpt>
<trkpt lat="35.3358744" lon="24.5215901">
<ele>178.4619141</ele>
<time>2010-05-04T07:17:53Z</time>
</trkpt>
<trkpt lat="35.3358196" lon="24.5216078">
<ele>183.2684326</ele>
<time>2010-05-04T07:18:01Z</time>
</trkpt>
<trkpt lat="35.3358024" lon="24.5216316">
<ele>185.6717529</ele>
<time>2010-05-04T07:18:06Z</time>
</trkpt>
<trkpt lat="35.3358319" lon="24.5216104">
<ele>182.3071289</ele>
<time>2010-05-04T07:18:11Z</time>
</trkpt>
<trkpt lat="35.3358775" lon="24.5215579">
<ele>181.3458252</ele>
<time>2010-05-04T07:18:15Z</time>
</trkpt>
<trkpt lat="35.3359069" lon="24.5215665">
<ele>177.5006104</ele>
<time>2010-05-04T07:18:19Z</time>
</trkpt>
<trkpt lat="35.3359349" lon="24.5215886">
<ele>171.7326660</ele>
<time>2010-05-04T07:18:24Z</time>
</trkpt>
<trkpt lat="35.3358869" lon="24.5216554">
<ele>172.6939697</ele>
<time>2010-05-04T07:18:30Z</time>
</trkpt>
<trkpt lat="35.3358222" lon="24.5216413">
<ele>177.9812012</ele>
<time>2010-05-04T07:18:39Z</time>
</trkpt>
<trkpt lat="35.3358452" lon="24.5216622">
<ele>185.1911621</ele>
<time>2010-05-04T07:18:46Z</time>
</trkpt>
<trkpt lat="35.3359292" lon="24.5215439">
<ele>186.6331787</ele>
<time>2010-05-04T07:18:51Z</time>
</trkpt>
<trkpt lat="35.3359535" lon="24.5214994">
<ele>184.7105713</ele>
<time>2010-05-04T07:18:52Z</time>
</trkpt>
<trkpt lat="35.3358810" lon="24.5215431">
<ele>175.5778809</ele>
<time>2010-05-04T07:18:57Z</time>
</trkpt>
<trkpt lat="35.3358534" lon="24.5216068">
<ele>182.7878418</ele>
<time>2010-05-04T07:19:40Z</time>
</trkpt>
<trkpt lat="35.3358524" lon="24.5215858">
<ele>185.6717529</ele>
<time>2010-05-04T07:19:46Z</time>
</trkpt>
<trkpt lat="35.3358407" lon="24.5216124">
<ele>186.6331787</ele>
<time>2010-05-04T07:19:50Z</time>
</trkpt>
<trkpt lat="35.3357889" lon="24.5216119">
<ele>183.7490234</ele>
<time>2010-05-04T07:19:57Z</time>
</trkpt>
<trkpt lat="35.3358137" lon="24.5216274">
<ele>187.5943604</ele>
<time>2010-05-04T07:20:02Z</time>
</trkpt>
<trkpt lat="35.3358306" lon="24.5216456">
<ele>188.0750732</ele>
<time>2010-05-04T07:20:05Z</time>
</trkpt>
<trkpt lat="35.3358736" lon="24.5216037">
<ele>182.3071289</ele>
<time>2010-05-04T07:20:11Z</time>
</trkpt>
<trkpt lat="35.3358457" lon="24.5215714">
<ele>172.6939697</ele>
<time>2010-05-04T07:20:19Z</time>
</trkpt>
<trkpt lat="35.3358534" lon="24.5216835">
<ele>190.4783936</ele>
<time>2010-05-04T07:20:36Z</time>
</trkpt>
<trkpt lat="35.3359003" lon="24.5216856">
<ele>193.3623047</ele>
<time>2010-05-04T07:20:40Z</time>
</trkpt>
<trkpt lat="35.3358666" lon="24.5216328">
<ele>172.2132568</ele>
<time>2010-05-04T07:20:58Z</time>
</trkpt>
<trkpt lat="35.3358723" lon="24.5216233">
<ele>179.9038086</ele>
<time>2010-05-04T07:21:09Z</time>
</trkpt>
<trkpt lat="35.3358833" lon="24.5217032">
<ele>180.8652344</ele>
<time>2010-05-04T07:21:15Z</time>
</trkpt>
<trkpt lat="35.3358552" lon="24.5216839">
<ele>185.1911621</ele>
<time>2010-05-04T07:21:20Z</time>
</trkpt>
<trkpt lat="35.3358439" lon="24.5216596">
<ele>190.9589844</ele>
<time>2010-05-04T07:21:44Z</time>
</trkpt>
<trkpt lat="35.3358122" lon="24.5216798">
<ele>185.1911621</ele>
<time>2010-05-04T07:21:48Z</time>
</trkpt>
<trkpt lat="35.3358547" lon="24.5216750">
<ele>183.7490234</ele>
<time>2010-05-04T07:21:56Z</time>
</trkpt>
<trkpt lat="35.3358693" lon="24.5215548">
<ele>199.1301270</ele>
<time>2010-05-04T07:22:18Z</time>
</trkpt>
<trkpt lat="35.3358469" lon="24.5216268">
<ele>199.1301270</ele>
<time>2010-05-04T07:22:36Z</time>
</trkpt>
<trkpt lat="35.3357968" lon="24.5216311">
<ele>190.9589844</ele>
<time>2010-05-04T07:22:42Z</time>
</trkpt>
<trkpt lat="35.3358220" lon="24.5216354">
<ele>187.5943604</ele>
<time>2010-05-04T07:22:53Z</time>
</trkpt>
<trkpt lat="35.3358288" lon="24.5216140">
<ele>187.1137695</ele>
<time>2010-05-04T07:22:57Z</time>
</trkpt>
<trkpt lat="35.3358257" lon="24.5216005">
<ele>191.4395752</ele>
<time>2010-05-04T07:23:03Z</time>
</trkpt>
<trkpt lat="35.3358468" lon="24.5215605">
<ele>189.5169678</ele>
<time>2010-05-04T07:23:08Z</time>
</trkpt>
<trkpt lat="35.3358379" lon="24.5216450">
<ele>174.1358643</ele>
<time>2010-05-04T07:23:43Z</time>
</trkpt>
<trkpt lat="35.3358400" lon="24.5215959">
<ele>174.1358643</ele>
<time>2010-05-04T07:23:49Z</time>
</trkpt>
<trkpt lat="35.3357810" lon="24.5215378">
<ele>175.5778809</ele>
<time>2010-05-04T07:23:55Z</time>
</trkpt>
<trkpt lat="35.3357883" lon="24.5215513">
<ele>170.2906494</ele>
<time>2010-05-04T07:24:04Z</time>
</trkpt>
<trkpt lat="35.3357267" lon="24.5216453">
<ele>175.5778809</ele>
<time>2010-05-04T07:24:12Z</time>
</trkpt>
<trkpt lat="35.3362866" lon="24.5215886">
<ele>174.1358643</ele>
<time>2010-05-04T07:24:26Z</time>
</trkpt>
<trkpt lat="35.3358510" lon="24.5215285">
<ele>178.4619141</ele>
<time>2010-05-04T07:24:30Z</time>
</trkpt>
<trkpt lat="35.3357924" lon="24.5215777">
<ele>193.8430176</ele>
<time>2010-05-04T07:24:36Z</time>
</trkpt>
<trkpt lat="35.3358411" lon="24.5215829">
<ele>189.5169678</ele>
<time>2010-05-04T07:24:42Z</time>
</trkpt>
<trkpt lat="35.3358493" lon="24.5215783">
<ele>186.1524658</ele>
<time>2010-05-04T07:24:51Z</time>
</trkpt>
<trkpt lat="35.3358457" lon="24.5215781">
<ele>183.7490234</ele>
<time>2010-05-04T07:25:06Z</time>
</trkpt>
<trkpt lat="35.3358418" lon="24.5215834">
<ele>184.2298584</ele>
<time>2010-05-04T07:25:22Z</time>
</trkpt>
<trkpt lat="35.3358790" lon="24.5215714">
<ele>184.7105713</ele>
<time>2010-05-04T07:25:48Z</time>
</trkpt>
<trkpt lat="35.3359008" lon="24.5215487">
<ele>185.6717529</ele>
<time>2010-05-04T07:25:52Z</time>
</trkpt>
<trkpt lat="35.3359567" lon="24.5214858">
<ele>185.6717529</ele>
<time>2010-05-04T07:26:01Z</time>
</trkpt>
<trkpt lat="35.3359908" lon="24.5214564">
<ele>183.7490234</ele>
<time>2010-05-04T07:26:07Z</time>
</trkpt>
<trkpt lat="35.3360211" lon="24.5214260">
<ele>183.2684326</ele>
<time>2010-05-04T07:26:12Z</time>
</trkpt>
<trkpt lat="35.3360389" lon="24.5214083">
<ele>184.2298584</ele>
<time>2010-05-04T07:26:18Z</time>
</trkpt>
<trkpt lat="35.3360645" lon="24.5213953">
<ele>186.1524658</ele>
<time>2010-05-04T07:26:32Z</time>
</trkpt>
<trkpt lat="35.3360686" lon="24.5213918">
<ele>187.1137695</ele>
<time>2010-05-04T07:26:40Z</time>
</trkpt>
<trkpt lat="35.3360644" lon="24.5213948">
<ele>186.6331787</ele>
<time>2010-05-04T07:26:48Z</time>
</trkpt>
<trkpt lat="35.3360923" lon="24.5213679">
<ele>187.1137695</ele>
<time>2010-05-04T07:26:58Z</time>
</trkpt>
<trkpt lat="35.3361270" lon="24.5213476">
<ele>186.1524658</ele>
<time>2010-05-04T07:27:05Z</time>
</trkpt>
<trkpt lat="35.3361707" lon="24.5212966">
<ele>183.7490234</ele>
<time>2010-05-04T07:27:13Z</time>
</trkpt>
<trkpt lat="35.3362103" lon="24.5212535">
<ele>184.2298584</ele>
<time>2010-05-04T07:27:19Z</time>
</trkpt>
<trkpt lat="35.3362701" lon="24.5212005">
<ele>187.5943604</ele>
<time>2010-05-04T07:27:27Z</time>
</trkpt>
<trkpt lat="35.3363358" lon="24.5211598">
<ele>188.5557861</ele>
<time>2010-05-04T07:27:34Z</time>
</trkpt>
<trkpt lat="35.3364018" lon="24.5210984">
<ele>191.4395752</ele>
<time>2010-05-04T07:27:42Z</time>
</trkpt>
<trkpt lat="35.3364785" lon="24.5210395">
<ele>195.2849121</ele>
<time>2010-05-04T07:27:51Z</time>
</trkpt>
<trkpt lat="35.3365307" lon="24.5209976">
<ele>195.2849121</ele>
<time>2010-05-04T07:27:58Z</time>
</trkpt>
<trkpt lat="35.3365963" lon="24.5209291">
<ele>195.7656250</ele>
<time>2010-05-04T07:28:08Z</time>
</trkpt>
<trkpt lat="35.3366132" lon="24.5208825">
<ele>195.2849121</ele>
<time>2010-05-04T07:28:13Z</time>
</trkpt>
<trkpt lat="35.3366224" lon="24.5208214">
<ele>196.2463379</ele>
<time>2010-05-04T07:28:18Z</time>
</trkpt>
<trkpt lat="35.3366320" lon="24.5207784">
<ele>198.6495361</ele>
<time>2010-05-04T07:28:21Z</time>
</trkpt>
<trkpt lat="35.3366338" lon="24.5207565">
<ele>199.6108398</ele>
<time>2010-05-04T07:28:23Z</time>
</trkpt>
<trkpt lat="35.3366352" lon="24.5206814">
<ele>201.0528564</ele>
<time>2010-05-04T07:28:30Z</time>
</trkpt>
<trkpt lat="35.3366294" lon="24.5206422">
<ele>201.5335693</ele>
<time>2010-05-04T07:28:34Z</time>
</trkpt>
<trkpt lat="35.3366083" lon="24.5205856">
<ele>203.4561768</ele>
<time>2010-05-04T07:28:42Z</time>
</trkpt>
<trkpt lat="35.3365633" lon="24.5206325">
<ele>202.0142822</ele>
<time>2010-05-04T07:28:49Z</time>
</trkpt>
<trkpt lat="35.3364954" lon="24.5207023">
<ele>199.6108398</ele>
<time>2010-05-04T07:28:58Z</time>
</trkpt>
<trkpt lat="35.3364867" lon="24.5207099">
<ele>199.6108398</ele>
<time>2010-05-04T07:28:59Z</time>
</trkpt>
<trkpt lat="35.3363898" lon="24.5207614">
<ele>198.1689453</ele>
<time>2010-05-04T07:29:09Z</time>
</trkpt>
<trkpt lat="35.3362919" lon="24.5207884">
<ele>197.2075195</ele>
<time>2010-05-04T07:29:18Z</time>
</trkpt>
<trkpt lat="35.3361945" lon="24.5207905">
<ele>194.8043213</ele>
<time>2010-05-04T07:29:27Z</time>
</trkpt>
<trkpt lat="35.3360922" lon="24.5207900">
<ele>193.3623047</ele>
<time>2010-05-04T07:29:37Z</time>
</trkpt>
<trkpt lat="35.3360047" lon="24.5208012">
<ele>192.8817139</ele>
<time>2010-05-04T07:29:45Z</time>
</trkpt>
<trkpt lat="35.3359500" lon="24.5208060">
<ele>193.3623047</ele>
<time>2010-05-04T07:29:51Z</time>
</trkpt>
<trkpt lat="35.3358594" lon="24.5208071">
<ele>194.3237305</ele>
<time>2010-05-04T07:29:59Z</time>
</trkpt>
<trkpt lat="35.3358007" lon="24.5208171">
<ele>195.2849121</ele>
<time>2010-05-04T07:30:04Z</time>
</trkpt>
<trkpt lat="35.3357025" lon="24.5208288">
<ele>197.2075195</ele>
<time>2010-05-04T07:30:12Z</time>
</trkpt>
<trkpt lat="35.3356195" lon="24.5208328">
<ele>197.6882324</ele>
<time>2010-05-04T07:30:20Z</time>
</trkpt>
<trkpt lat="35.3355185" lon="24.5208406">
<ele>197.6882324</ele>
<time>2010-05-04T07:30:30Z</time>
</trkpt>
<trkpt lat="35.3353889" lon="24.5208976">
<ele>201.0528564</ele>
<time>2010-05-04T07:30:42Z</time>
</trkpt>
<trkpt lat="35.3353200" lon="24.5209210">
<ele>201.0528564</ele>
<time>2010-05-04T07:30:49Z</time>
</trkpt>
<trkpt lat="35.3352337" lon="24.5209489">
<ele>201.5335693</ele>
<time>2010-05-04T07:30:57Z</time>
</trkpt>
<trkpt lat="35.3351481" lon="24.5209790">
<ele>203.9368896</ele>
<time>2010-05-04T07:31:06Z</time>
</trkpt>
<trkpt lat="35.3350614" lon="24.5209923">
<ele>206.3400879</ele>
<time>2010-05-04T07:31:14Z</time>
</trkpt>
<trkpt lat="35.3349876" lon="24.5209893">
<ele>208.7434082</ele>
<time>2010-05-04T07:31:20Z</time>
</trkpt>
<trkpt lat="35.3349071" lon="24.5209676">
<ele>208.7434082</ele>
<time>2010-05-04T07:31:27Z</time>
</trkpt>
<trkpt lat="35.3348362" lon="24.5209312">
<ele>213.5500488</ele>
<time>2010-05-04T07:31:35Z</time>
</trkpt>
<trkpt lat="35.3347668" lon="24.5208877">
<ele>216.4339600</ele>
<time>2010-05-04T07:31:44Z</time>
</trkpt>
<trkpt lat="35.3347467" lon="24.5208741">
<ele>216.4339600</ele>
<time>2010-05-04T07:31:48Z</time>
</trkpt>
<trkpt lat="35.3347073" lon="24.5208551">
<ele>216.9146729</ele>
<time>2010-05-04T07:31:54Z</time>
</trkpt>
<trkpt lat="35.3346560" lon="24.5208176">
<ele>219.3179932</ele>
<time>2010-05-04T07:32:01Z</time>
</trkpt>
<trkpt lat="35.3345911" lon="24.5207853">
<ele>220.2791748</ele>
<time>2010-05-04T07:32:09Z</time>
</trkpt>
<trkpt lat="35.3345134" lon="24.5207521">
<ele>220.2791748</ele>
<time>2010-05-04T07:32:18Z</time>
</trkpt>
<trkpt lat="35.3344440" lon="24.5207200">
<ele>220.7598877</ele>
<time>2010-05-04T07:32:26Z</time>
</trkpt>
<trkpt lat="35.3343730" lon="24.5206928">
<ele>220.7598877</ele>
<time>2010-05-04T07:32:34Z</time>
</trkpt>
<trkpt lat="35.3343326" lon="24.5206862">
<ele>221.2406006</ele>
<time>2010-05-04T07:32:38Z</time>
</trkpt>
<trkpt lat="35.3342809" lon="24.5206587">
<ele>221.7211914</ele>
<time>2010-05-04T07:32:45Z</time>
</trkpt>
<trkpt lat="35.3342324" lon="24.5206293">
<ele>224.6052246</ele>
<time>2010-05-04T07:32:51Z</time>
</trkpt>
<trkpt lat="35.3341590" lon="24.5205939">
<ele>227.9697266</ele>
<time>2010-05-04T07:32:59Z</time>
</trkpt>
<trkpt lat="35.3340826" lon="24.5205436">
<ele>229.4117432</ele>
<time>2010-05-04T07:33:06Z</time>
</trkpt>
<trkpt lat="35.3340741" lon="24.5205335">
<ele>229.4117432</ele>
<time>2010-05-04T07:33:07Z</time>
</trkpt>
<trkpt lat="35.3340148" lon="24.5204656">
<ele>230.8537598</ele>
<time>2010-05-04T07:33:14Z</time>
</trkpt>
<trkpt lat="35.3340067" lon="24.5204552">
<ele>231.3343506</ele>
<time>2010-05-04T07:33:15Z</time>
</trkpt>
<trkpt lat="35.3339442" lon="24.5203716">
<ele>232.2957764</ele>
<time>2010-05-04T07:33:24Z</time>
</trkpt>
<trkpt lat="35.3339058" lon="24.5202901">
<ele>233.2570801</ele>
<time>2010-05-04T07:33:32Z</time>
</trkpt>
<trkpt lat="35.3338643" lon="24.5201950">
<ele>235.1796875</ele>
<time>2010-05-04T07:33:42Z</time>
</trkpt>
<trkpt lat="35.3338319" lon="24.5201167">
<ele>236.1409912</ele>
<time>2010-05-04T07:33:50Z</time>
</trkpt>
<trkpt lat="35.3337892" lon="24.5200184">
<ele>234.6990967</ele>
<time>2010-05-04T07:34:00Z</time>
</trkpt>
<trkpt lat="35.3337459" lon="24.5199327">
<ele>235.6602783</ele>
<time>2010-05-04T07:34:09Z</time>
</trkpt>
<trkpt lat="35.3337003" lon="24.5198461">
<ele>236.6217041</ele>
<time>2010-05-04T07:34:18Z</time>
</trkpt>
<trkpt lat="35.3336402" lon="24.5197668">
<ele>237.5828857</ele>
<time>2010-05-04T07:34:27Z</time>
</trkpt>
<trkpt lat="35.3336304" lon="24.5197598">
<ele>237.5828857</ele>
<time>2010-05-04T07:34:28Z</time>
</trkpt>
<trkpt lat="35.3335563" lon="24.5196827">
<ele>238.5443115</ele>
<time>2010-05-04T07:34:38Z</time>
</trkpt>
<trkpt lat="35.3335234" lon="24.5196460">
<ele>239.0249023</ele>
<time>2010-05-04T07:34:44Z</time>
</trkpt>
<trkpt lat="35.3334444" lon="24.5195324">
<ele>239.9862061</ele>
<time>2010-05-04T07:34:55Z</time>
</trkpt>
<trkpt lat="35.3334022" lon="24.5194354">
<ele>240.4670410</ele>
<time>2010-05-04T07:35:03Z</time>
</trkpt>
<trkpt lat="35.3333583" lon="24.5193249">
<ele>241.9089355</ele>
<time>2010-05-04T07:35:12Z</time>
</trkpt>
<trkpt lat="35.3333093" lon="24.5192229">
<ele>242.3896484</ele>
<time>2010-05-04T07:35:21Z</time>
</trkpt>
<trkpt lat="35.3332336" lon="24.5191704">
<ele>243.8315430</ele>
<time>2010-05-04T07:35:29Z</time>
</trkpt>
<trkpt lat="35.3331393" lon="24.5191700">
<ele>243.8315430</ele>
<time>2010-05-04T07:35:37Z</time>
</trkpt>
<trkpt lat="35.3330272" lon="24.5191590">
<ele>243.8315430</ele>
<time>2010-05-04T07:35:46Z</time>
</trkpt>
<trkpt lat="35.3329476" lon="24.5190989">
<ele>244.7928467</ele>
<time>2010-05-04T07:35:54Z</time>
</trkpt>
<trkpt lat="35.3329368" lon="24.5190919">
<ele>245.2734375</ele>
<time>2010-05-04T07:35:55Z</time>
</trkpt>
<trkpt lat="35.3328792" lon="24.5190488">
<ele>245.2734375</ele>
<time>2010-05-04T07:36:03Z</time>
</trkpt>
<trkpt lat="35.3328425" lon="24.5190339">
<ele>246.2348633</ele>
<time>2010-05-04T07:36:08Z</time>
</trkpt>
<trkpt lat="35.3327812" lon="24.5189831">
<ele>247.6767578</ele>
<time>2010-05-04T07:36:16Z</time>
</trkpt>
<trkpt lat="35.3326959" lon="24.5189438">
<ele>248.6381836</ele>
<time>2010-05-04T07:36:25Z</time>
</trkpt>
<trkpt lat="35.3325815" lon="24.5188939">
<ele>249.5994873</ele>
<time>2010-05-04T07:36:36Z</time>
</trkpt>
<trkpt lat="35.3324819" lon="24.5188318">
<ele>250.0802002</ele>
<time>2010-05-04T07:36:46Z</time>
</trkpt>
<trkpt lat="35.3324372" lon="24.5187936">
<ele>250.0802002</ele>
<time>2010-05-04T07:36:55Z</time>
</trkpt>
<trkpt lat="35.3324218" lon="24.5187743">
<ele>251.0413818</ele>
<time>2010-05-04T07:37:03Z</time>
</trkpt>
<trkpt lat="35.3324571" lon="24.5188110">
<ele>258.2513428</ele>
<time>2010-05-04T07:37:55Z</time>
</trkpt>
<trkpt lat="35.3324403" lon="24.5187923">
<ele>255.8480225</ele>
<time>2010-05-04T07:38:05Z</time>
</trkpt>
<trkpt lat="35.3324337" lon="24.5187800">
<ele>254.8865967</ele>
<time>2010-05-04T07:38:13Z</time>
</trkpt>
<trkpt lat="35.3323938" lon="24.5187435">
<ele>251.0413818</ele>
<time>2010-05-04T07:38:18Z</time>
</trkpt>
<trkpt lat="35.3322989" lon="24.5186757">
<ele>249.5994873</ele>
<time>2010-05-04T07:38:27Z</time>
</trkpt>
<trkpt lat="35.3322451" lon="24.5186185">
<ele>250.5607910</ele>
<time>2010-05-04T07:38:34Z</time>
</trkpt>
<trkpt lat="35.3321913" lon="24.5185552">
<ele>252.0028076</ele>
<time>2010-05-04T07:38:41Z</time>
</trkpt>
<trkpt lat="35.3321502" lon="24.5184912">
<ele>253.4447021</ele>
<time>2010-05-04T07:38:48Z</time>
</trkpt>
<trkpt lat="35.3320908" lon="24.5184235">
<ele>254.4060059</ele>
<time>2010-05-04T07:38:57Z</time>
</trkpt>
<trkpt lat="35.3320499" lon="24.5183966">
<ele>255.3673096</ele>
<time>2010-05-04T07:39:05Z</time>
</trkpt>
<trkpt lat="35.3320245" lon="24.5183965">
<ele>254.4060059</ele>
<time>2010-05-04T07:39:11Z</time>
</trkpt>
<trkpt lat="35.3320167" lon="24.5183775">
<ele>254.8865967</ele>
<time>2010-05-04T07:39:22Z</time>
</trkpt>
<trkpt lat="35.3319969" lon="24.5183721">
<ele>255.3673096</ele>
<time>2010-05-04T07:39:27Z</time>
</trkpt>
<trkpt lat="35.3319887" lon="24.5183965">
<ele>252.9639893</ele>
<time>2010-05-04T07:39:37Z</time>
</trkpt>
<trkpt lat="35.3319981" lon="24.5184187">
<ele>257.2900391</ele>
<time>2010-05-04T07:40:32Z</time>
</trkpt>
<trkpt lat="35.3319749" lon="24.5184023">
<ele>259.6933594</ele>
<time>2010-05-04T07:40:40Z</time>
</trkpt>
<trkpt lat="35.3318997" lon="24.5183525">
<ele>262.0965576</ele>
<time>2010-05-04T07:40:51Z</time>
</trkpt>
<trkpt lat="35.3318593" lon="24.5183318">
<ele>263.0578613</ele>
<time>2010-05-04T07:40:56Z</time>
</trkpt>
<trkpt lat="35.3318093" lon="24.5182973">
<ele>263.5385742</ele>
<time>2010-05-04T07:41:03Z</time>
</trkpt>
<trkpt lat="35.3317550" lon="24.5182652">
<ele>262.0965576</ele>
<time>2010-05-04T07:41:09Z</time>
</trkpt>
<trkpt lat="35.3316814" lon="24.5182034">
<ele>262.5771484</ele>
<time>2010-05-04T07:41:18Z</time>
</trkpt>
<trkpt lat="35.3316550" lon="24.5181626">
<ele>264.0192871</ele>
<time>2010-05-04T07:41:23Z</time>
</trkpt>
<trkpt lat="35.3316315" lon="24.5181082">
<ele>264.9805908</ele>
<time>2010-05-04T07:41:30Z</time>
</trkpt>
<trkpt lat="35.3315980" lon="24.5180542">
<ele>265.9418945</ele>
<time>2010-05-04T07:41:36Z</time>
</trkpt>
<trkpt lat="35.3315465" lon="24.5179667">
<ele>266.4224854</ele>
<time>2010-05-04T07:41:45Z</time>
</trkpt>
<trkpt lat="35.3315039" lon="24.5179051">
<ele>267.3839111</ele>
<time>2010-05-04T07:41:52Z</time>
</trkpt>
<trkpt lat="35.3314443" lon="24.5178418">
<ele>268.8258057</ele>
<time>2010-05-04T07:42:00Z</time>
</trkpt>
<trkpt lat="35.3314184" lon="24.5178139">
<ele>268.8258057</ele>
<time>2010-05-04T07:42:04Z</time>
</trkpt>
<trkpt lat="35.3313879" lon="24.5177836">
<ele>269.7871094</ele>
<time>2010-05-04T07:42:11Z</time>
</trkpt>
<trkpt lat="35.3313651" lon="24.5177735">
<ele>269.7871094</ele>
<time>2010-05-04T07:42:15Z</time>
</trkpt>
<trkpt lat="35.3313129" lon="24.5177025">
<ele>269.7871094</ele>
<time>2010-05-04T07:42:23Z</time>
</trkpt>
<trkpt lat="35.3312541" lon="24.5176357">
<ele>270.2677002</ele>
<time>2010-05-04T07:42:31Z</time>
</trkpt>
<trkpt lat="35.3311813" lon="24.5175502">
<ele>271.2291260</ele>
<time>2010-05-04T07:42:40Z</time>
</trkpt>
<trkpt lat="35.3310834" lon="24.5174627">
<ele>271.2291260</ele>
<time>2010-05-04T07:42:50Z</time>
</trkpt>
<trkpt lat="35.3310473" lon="24.5173222">
<ele>271.7097168</ele>
<time>2010-05-04T07:43:00Z</time>
</trkpt>
<trkpt lat="35.3310261" lon="24.5172066">
<ele>270.7484131</ele>
<time>2010-05-04T07:43:08Z</time>
</trkpt>
<trkpt lat="35.3309958" lon="24.5170590">
<ele>272.1904297</ele>
<time>2010-05-04T07:43:18Z</time>
</trkpt>
<trkpt lat="35.3309319" lon="24.5169286">
<ele>272.6711426</ele>
<time>2010-05-04T07:43:28Z</time>
</trkpt>
<trkpt lat="35.3308719" lon="24.5168115">
<ele>273.6324463</ele>
<time>2010-05-04T07:43:37Z</time>
</trkpt>
<trkpt lat="35.3308134" lon="24.5166965">
<ele>273.6324463</ele>
<time>2010-05-04T07:43:46Z</time>
</trkpt>
<trkpt lat="35.3307720" lon="24.5165680">
<ele>273.1518555</ele>
<time>2010-05-04T07:43:55Z</time>
</trkpt>
<trkpt lat="35.3307547" lon="24.5164629">
<ele>274.1130371</ele>
<time>2010-05-04T07:44:02Z</time>
</trkpt>
<trkpt lat="35.3307752" lon="24.5163467">
<ele>272.6711426</ele>
<time>2010-05-04T07:44:11Z</time>
</trkpt>
<trkpt lat="35.3308049" lon="24.5162053">
<ele>271.7097168</ele>
<time>2010-05-04T07:44:22Z</time>
</trkpt>
<trkpt lat="35.3308114" lon="24.5161231">
<ele>270.7484131</ele>
<time>2010-05-04T07:44:29Z</time>
</trkpt>
<trkpt lat="35.3308351" lon="24.5159937">
<ele>271.7097168</ele>
<time>2010-05-04T07:44:39Z</time>
</trkpt>
<trkpt lat="35.3308653" lon="24.5159069">
<ele>270.7484131</ele>
<time>2010-05-04T07:44:47Z</time>
</trkpt>
<trkpt lat="35.3309046" lon="24.5157218">
<ele>282.2843018</ele>
<time>2010-05-04T07:44:57Z</time>
</trkpt>
<trkpt lat="35.3308642" lon="24.5156539">
<ele>282.2843018</ele>
<time>2010-05-04T07:45:04Z</time>
</trkpt>
<trkpt lat="35.3307778" lon="24.5155863">
<ele>283.2456055</ele>
<time>2010-05-04T07:45:14Z</time>
</trkpt>
<trkpt lat="35.3306876" lon="24.5155239">
<ele>284.6876221</ele>
<time>2010-05-04T07:45:25Z</time>
</trkpt>
<trkpt lat="35.3306117" lon="24.5154756">
<ele>285.6488037</ele>
<time>2010-05-04T07:45:34Z</time>
</trkpt>
<trkpt lat="35.3305508" lon="24.5154016">
<ele>287.5714111</ele>
<time>2010-05-04T07:45:43Z</time>
</trkpt>
<trkpt lat="35.3304865" lon="24.5152827">
<ele>289.4941406</ele>
<time>2010-05-04T07:45:55Z</time>
</trkpt>
<trkpt lat="35.3304325" lon="24.5152145">
<ele>290.4555664</ele>
<time>2010-05-04T07:46:03Z</time>
</trkpt>
<trkpt lat="35.3303659" lon="24.5151441">
<ele>291.4167480</ele>
<time>2010-05-04T07:46:12Z</time>
</trkpt>
<trkpt lat="35.3302980" lon="24.5151068">
<ele>292.8587646</ele>
<time>2010-05-04T07:46:21Z</time>
</trkpt>
<trkpt lat="35.3302685" lon="24.5151062">
<ele>292.3781738</ele>
<time>2010-05-04T07:46:30Z</time>
</trkpt>
<trkpt lat="35.3302161" lon="24.5150809">
<ele>292.3781738</ele>
<time>2010-05-04T07:46:39Z</time>
</trkpt>
<trkpt lat="35.3302123" lon="24.5150959">
<ele>288.5329590</ele>
<time>2010-05-04T07:46:58Z</time>
</trkpt>
<trkpt lat="35.3302068" lon="24.5150752">
<ele>291.8974609</ele>
<time>2010-05-04T07:47:06Z</time>
</trkpt>
<trkpt lat="35.3302115" lon="24.5150756">
<ele>298.1461182</ele>
<time>2010-05-04T07:47:42Z</time>
</trkpt>
<trkpt lat="35.3302074" lon="24.5150739">
<ele>298.6267090</ele>
<time>2010-05-04T07:48:09Z</time>
</trkpt>
<trkpt lat="35.3302016" lon="24.5150390">
<ele>302.4719238</ele>
<time>2010-05-04T07:48:21Z</time>
</trkpt>
<trkpt lat="35.3302076" lon="24.5150511">
<ele>299.5880127</ele>
<time>2010-05-04T07:48:33Z</time>
</trkpt>
<trkpt lat="35.3301907" lon="24.5150897">
<ele>293.3393555</ele>
<time>2010-05-04T07:49:24Z</time>
</trkpt>
<trkpt lat="35.3301914" lon="24.5150807">
<ele>291.8974609</ele>
<time>2010-05-04T07:49:54Z</time>
</trkpt>
<trkpt lat="35.3301902" lon="24.5150736">
<ele>291.8974609</ele>
<time>2010-05-04T07:50:03Z</time>
</trkpt>
<trkpt lat="35.3301821" lon="24.5150638">
<ele>292.3781738</ele>
<time>2010-05-04T07:50:12Z</time>
</trkpt>
<trkpt lat="35.3301737" lon="24.5150499">
<ele>292.3781738</ele>
<time>2010-05-04T07:50:19Z</time>
</trkpt>
<trkpt lat="35.3302007" lon="24.5150513">
<ele>289.9748535</ele>
<time>2010-05-04T07:50:57Z</time>
</trkpt>
<trkpt lat="35.3301670" lon="24.5150824">
<ele>294.7813721</ele>
<time>2010-05-04T07:51:40Z</time>
</trkpt>
<trkpt lat="35.3300989" lon="24.5150275">
<ele>294.7813721</ele>
<time>2010-05-04T07:51:48Z</time>
</trkpt>
<trkpt lat="35.3300079" lon="24.5149176">
<ele>295.7426758</ele>
<time>2010-05-04T07:51:59Z</time>
</trkpt>
<trkpt lat="35.3299621" lon="24.5148587">
<ele>296.2235107</ele>
<time>2010-05-04T07:52:05Z</time>
</trkpt>
<trkpt lat="35.3299120" lon="24.5148042">
<ele>296.2235107</ele>
<time>2010-05-04T07:52:11Z</time>
</trkpt>
<trkpt lat="35.3298391" lon="24.5147235">
<ele>296.2235107</ele>
<time>2010-05-04T07:52:19Z</time>
</trkpt>
<trkpt lat="35.3297748" lon="24.5146484">
<ele>296.2235107</ele>
<time>2010-05-04T07:52:26Z</time>
</trkpt>
<trkpt lat="35.3297291" lon="24.5145955">
<ele>296.2235107</ele>
<time>2010-05-04T07:52:31Z</time>
</trkpt>
<trkpt lat="35.3296728" lon="24.5145467">
<ele>297.1846924</ele>
<time>2010-05-04T07:52:39Z</time>
</trkpt>
<trkpt lat="35.3296085" lon="24.5144451">
<ele>298.6267090</ele>
<time>2010-05-04T07:52:50Z</time>
</trkpt>
<trkpt lat="35.3295785" lon="24.5143706">
<ele>299.5880127</ele>
<time>2010-05-04T07:52:57Z</time>
</trkpt>
<trkpt lat="35.3295701" lon="24.5143466">
<ele>299.5880127</ele>
<time>2010-05-04T07:52:59Z</time>
</trkpt>
<trkpt lat="35.3295605" lon="24.5142873">
<ele>299.5880127</ele>
<time>2010-05-04T07:53:07Z</time>
</trkpt>
<trkpt lat="35.3295546" lon="24.5142368">
<ele>300.0687256</ele>
<time>2010-05-04T07:53:15Z</time>
</trkpt>
<trkpt lat="35.3295593" lon="24.5140945">
<ele>300.0687256</ele>
<time>2010-05-04T07:53:25Z</time>
</trkpt>
<trkpt lat="35.3296308" lon="24.5140214">
<ele>301.0299072</ele>
<time>2010-05-04T07:53:33Z</time>
</trkpt>
<trkpt lat="35.3297297" lon="24.5139905">
<ele>301.5106201</ele>
<time>2010-05-04T07:53:43Z</time>
</trkpt>
<trkpt lat="35.3297832" lon="24.5139229">
<ele>301.9913330</ele>
<time>2010-05-04T07:53:51Z</time>
</trkpt>
<trkpt lat="35.3298074" lon="24.5137849">
<ele>302.4719238</ele>
<time>2010-05-04T07:54:02Z</time>
</trkpt>
<trkpt lat="35.3298347" lon="24.5136347">
<ele>302.9525146</ele>
<time>2010-05-04T07:54:13Z</time>
</trkpt>
<trkpt lat="35.3298810" lon="24.5135274">
<ele>304.3946533</ele>
<time>2010-05-04T07:54:22Z</time>
</trkpt>
<trkpt lat="35.3299473" lon="24.5134388">
<ele>305.3559570</ele>
<time>2010-05-04T07:54:31Z</time>
</trkpt>
<trkpt lat="35.3300373" lon="24.5133394">
<ele>305.8366699</ele>
<time>2010-05-04T07:54:42Z</time>
</trkpt>
<trkpt lat="35.3301068" lon="24.5132469">
<ele>306.3172607</ele>
<time>2010-05-04T07:54:51Z</time>
</trkpt>
<trkpt lat="35.3301436" lon="24.5131560">
<ele>307.2785645</ele>
<time>2010-05-04T07:54:58Z</time>
</trkpt>
<trkpt lat="35.3301871" lon="24.5130319">
<ele>308.7204590</ele>
<time>2010-05-04T07:55:07Z</time>
</trkpt>
<trkpt lat="35.3302020" lon="24.5129758">
<ele>309.2011719</ele>
<time>2010-05-04T07:55:15Z</time>
</trkpt>
<trkpt lat="35.3302048" lon="24.5129648">
<ele>311.6044922</ele>
<time>2010-05-04T07:55:23Z</time>
</trkpt>
<trkpt lat="35.3301890" lon="24.5130036">
<ele>308.7204590</ele>
<time>2010-05-04T07:55:50Z</time>
</trkpt>
<trkpt lat="35.3301761" lon="24.5130065">
<ele>308.2398682</ele>
<time>2010-05-04T07:56:09Z</time>
</trkpt>
<trkpt lat="35.3301968" lon="24.5129713">
<ele>308.2398682</ele>
<time>2010-05-04T07:56:22Z</time>
</trkpt>
<trkpt lat="35.3302488" lon="24.5128900">
<ele>308.2398682</ele>
<time>2010-05-04T07:56:30Z</time>
</trkpt>
<trkpt lat="35.3302556" lon="24.5128794">
<ele>308.2398682</ele>
<time>2010-05-04T07:56:31Z</time>
</trkpt>
<trkpt lat="35.3302729" lon="24.5127332">
<ele>308.2398682</ele>
<time>2010-05-04T07:56:42Z</time>
</trkpt>
<trkpt lat="35.3302237" lon="24.5126498">
<ele>311.6044922</ele>
<time>2010-05-04T07:56:49Z</time>
</trkpt>
<trkpt lat="35.3301856" lon="24.5126125">
<ele>313.0465088</ele>
<time>2010-05-04T07:56:57Z</time>
</trkpt>
<trkpt lat="35.3301771" lon="24.5126059">
<ele>314.4884033</ele>
<time>2010-05-04T07:57:08Z</time>
</trkpt>
<trkpt lat="35.3301804" lon="24.5125959">
<ele>315.4498291</ele>
<time>2010-05-04T07:57:18Z</time>
</trkpt>
<trkpt lat="35.3301829" lon="24.5125981">
<ele>314.9691162</ele>
<time>2010-05-04T07:57:31Z</time>
</trkpt>
<trkpt lat="35.3301792" lon="24.5125960">
<ele>314.0078125</ele>
<time>2010-05-04T07:57:41Z</time>
</trkpt>
<trkpt lat="35.3301845" lon="24.5125954">
<ele>313.5272217</ele>
<time>2010-05-04T07:58:14Z</time>
</trkpt>
<trkpt lat="35.3301761" lon="24.5125828">
<ele>312.0852051</ele>
<time>2010-05-04T07:58:22Z</time>
</trkpt>
<trkpt lat="35.3301726" lon="24.5125789">
<ele>312.0852051</ele>
<time>2010-05-04T07:58:40Z</time>
</trkpt>
<trkpt lat="35.3301515" lon="24.5125499">
<ele>303.9139404</ele>
<time>2010-05-04T07:59:22Z</time>
</trkpt>
<trkpt lat="35.3301520" lon="24.5126079">
<ele>316.8917236</ele>
<time>2010-05-04T08:01:08Z</time>
</trkpt>
<trkpt lat="35.3301629" lon="24.5125888">
<ele>318.8143311</ele>
<time>2010-05-04T08:01:26Z</time>
</trkpt>
<trkpt lat="35.3301367" lon="24.5125525">
<ele>321.2177734</ele>
<time>2010-05-04T08:01:50Z</time>
</trkpt>
<trkpt lat="35.3300694" lon="24.5125156">
<ele>320.7370605</ele>
<time>2010-05-04T08:01:59Z</time>
</trkpt>
<trkpt lat="35.3299774" lon="24.5124758">
<ele>319.2950439</ele>
<time>2010-05-04T08:02:09Z</time>
</trkpt>
<trkpt lat="35.3298609" lon="24.5124502">
<ele>317.8530273</ele>
<time>2010-05-04T08:02:21Z</time>
</trkpt>
<trkpt lat="35.3297664" lon="24.5124445">
<ele>317.3724365</ele>
<time>2010-05-04T08:02:32Z</time>
</trkpt>
<trkpt lat="35.3296816" lon="24.5124437">
<ele>317.3724365</ele>
<time>2010-05-04T08:02:42Z</time>
</trkpt>
<trkpt lat="35.3296261" lon="24.5124643">
<ele>317.8530273</ele>
<time>2010-05-04T08:02:49Z</time>
</trkpt>
<trkpt lat="35.3295557" lon="24.5125034">
<ele>318.8143311</ele>
<time>2010-05-04T08:02:56Z</time>
</trkpt>
<trkpt lat="35.3294473" lon="24.5125715">
<ele>317.8530273</ele>
<time>2010-05-04T08:03:07Z</time>
</trkpt>
<trkpt lat="35.3293453" lon="24.5126168">
<ele>318.3336182</ele>
<time>2010-05-04T08:03:17Z</time>
</trkpt>
<trkpt lat="35.3292677" lon="24.5126268">
<ele>319.7756348</ele>
<time>2010-05-04T08:03:25Z</time>
</trkpt>
<trkpt lat="35.3292643" lon="24.5126390">
<ele>322.6596680</ele>
<time>2010-05-04T08:03:34Z</time>
</trkpt>
<trkpt lat="35.3292279" lon="24.5126258">
<ele>323.1403809</ele>
<time>2010-05-04T08:03:42Z</time>
</trkpt>
<trkpt lat="35.3292177" lon="24.5126391">
<ele>324.1015625</ele>
<time>2010-05-04T08:03:48Z</time>
</trkpt>
<trkpt lat="35.3291904" lon="24.5126227">
<ele>324.1015625</ele>
<time>2010-05-04T08:03:53Z</time>
</trkpt>
<trkpt lat="35.3291423" lon="24.5125502">
<ele>324.5822754</ele>
<time>2010-05-04T08:04:01Z</time>
</trkpt>
<trkpt lat="35.3291289" lon="24.5125230">
<ele>325.5435791</ele>
<time>2010-05-04T08:04:06Z</time>
</trkpt>
<trkpt lat="35.3290853" lon="24.5124279">
<ele>327.4661865</ele>
<time>2010-05-04T08:04:16Z</time>
</trkpt>
<trkpt lat="35.3290289" lon="24.5123259">
<ele>329.8695068</ele>
<time>2010-05-04T08:04:26Z</time>
</trkpt>
<trkpt lat="35.3289518" lon="24.5122128">
<ele>331.7921143</ele>
<time>2010-05-04T08:04:37Z</time>
</trkpt>
<trkpt lat="35.3289135" lon="24.5121219">
<ele>332.7535400</ele>
<time>2010-05-04T08:04:45Z</time>
</trkpt>
<trkpt lat="35.3288933" lon="24.5120219">
<ele>332.7535400</ele>
<time>2010-05-04T08:04:53Z</time>
</trkpt>
<trkpt lat="35.3288714" lon="24.5119355">
<ele>333.7147217</ele>
<time>2010-05-04T08:05:01Z</time>
</trkpt>
<trkpt lat="35.3288510" lon="24.5119484">
<ele>334.1954346</ele>
<time>2010-05-04T08:05:06Z</time>
</trkpt>
<trkpt lat="35.3288205" lon="24.5119376">
<ele>333.7147217</ele>
<time>2010-05-04T08:05:11Z</time>
</trkpt>
<trkpt lat="35.3287629" lon="24.5119567">
<ele>333.7147217</ele>
<time>2010-05-04T08:05:18Z</time>
</trkpt>
<trkpt lat="35.3287147" lon="24.5119765">
<ele>333.2341309</ele>
<time>2010-05-04T08:05:24Z</time>
</trkpt>
<trkpt lat="35.3286424" lon="24.5119919">
<ele>332.7535400</ele>
<time>2010-05-04T08:05:31Z</time>
</trkpt>
<trkpt lat="35.3285694" lon="24.5119879">
<ele>332.2728271</ele>
<time>2010-05-04T08:05:39Z</time>
</trkpt>
<trkpt lat="35.3285115" lon="24.5119871">
<ele>331.7921143</ele>
<time>2010-05-04T08:05:49Z</time>
</trkpt>
<trkpt lat="35.3284868" lon="24.5119861">
<ele>331.3115234</ele>
<time>2010-05-04T08:05:57Z</time>
</trkpt>
<trkpt lat="35.3284886" lon="24.5119811">
<ele>332.7535400</ele>
<time>2010-05-04T08:06:04Z</time>
</trkpt>
<trkpt lat="35.3284970" lon="24.5119697">
<ele>333.2341309</ele>
<time>2010-05-04T08:06:28Z</time>
</trkpt>
<trkpt lat="35.3284408" lon="24.5119548">
<ele>333.2341309</ele>
<time>2010-05-04T08:06:35Z</time>
</trkpt>
<trkpt lat="35.3283618" lon="24.5119040">
<ele>334.6761475</ele>
<time>2010-05-04T08:06:44Z</time>
</trkpt>
<trkpt lat="35.3283354" lon="24.5118838">
<ele>335.1567383</ele>
<time>2010-05-04T08:06:47Z</time>
</trkpt>
<trkpt lat="35.3282362" lon="24.5118654">
<ele>334.6761475</ele>
<time>2010-05-04T08:06:57Z</time>
</trkpt>
<trkpt lat="35.3281507" lon="24.5118908">
<ele>333.7147217</ele>
<time>2010-05-04T08:07:06Z</time>
</trkpt>
<trkpt lat="35.3281287" lon="24.5118954">
<ele>333.7147217</ele>
<time>2010-05-04T08:07:08Z</time>
</trkpt>
<trkpt lat="35.3280913" lon="24.5119158">
<ele>334.1954346</ele>
<time>2010-05-04T08:07:15Z</time>
</trkpt>
<trkpt lat="35.3280493" lon="24.5119235">
<ele>333.7147217</ele>
<time>2010-05-04T08:07:27Z</time>
</trkpt>
<trkpt lat="35.3280315" lon="24.5119282">
<ele>333.7147217</ele>
<time>2010-05-04T08:07:33Z</time>
</trkpt>
<trkpt lat="35.3279913" lon="24.5119448">
<ele>334.6761475</ele>
<time>2010-05-04T08:07:41Z</time>
</trkpt>
<trkpt lat="35.3279360" lon="24.5119600">
<ele>337.0794678</ele>
<time>2010-05-04T08:07:50Z</time>
</trkpt>
<trkpt lat="35.3278723" lon="24.5119603">
<ele>339.9633789</ele>
<time>2010-05-04T08:08:00Z</time>
</trkpt>
<trkpt lat="35.3278121" lon="24.5119287">
<ele>343.3278809</ele>
<time>2010-05-04T08:08:10Z</time>
</trkpt>
<trkpt lat="35.3277794" lon="24.5119265">
<ele>343.8085938</ele>
<time>2010-05-04T08:08:16Z</time>
</trkpt>
<trkpt lat="35.3276981" lon="24.5119536">
<ele>343.3278809</ele>
<time>2010-05-04T08:08:24Z</time>
</trkpt>
<trkpt lat="35.3275998" lon="24.5119638">
<ele>343.3278809</ele>
<time>2010-05-04T08:08:34Z</time>
</trkpt>
<trkpt lat="35.3275904" lon="24.5119631">
<ele>343.8085938</ele>
<time>2010-05-04T08:08:41Z</time>
</trkpt>
<trkpt lat="35.3275878" lon="24.5119536">
<ele>347.1732178</ele>
<time>2010-05-04T08:08:57Z</time>
</trkpt>
<trkpt lat="35.3275715" lon="24.5119596">
<ele>348.1346436</ele>
<time>2010-05-04T08:09:08Z</time>
</trkpt>
<trkpt lat="35.3275628" lon="24.5119479">
<ele>348.6152344</ele>
<time>2010-05-04T08:09:16Z</time>
</trkpt>
<trkpt lat="35.3275353" lon="24.5118919">
<ele>353.4218750</ele>
<time>2010-05-04T08:09:50Z</time>
</trkpt>
<trkpt lat="35.3275323" lon="24.5119167">
<ele>351.4991455</ele>
<time>2010-05-04T08:09:56Z</time>
</trkpt>
<trkpt lat="35.3275038" lon="24.5119245">
<ele>348.6152344</ele>
<time>2010-05-04T08:10:03Z</time>
</trkpt>
<trkpt lat="35.3274665" lon="24.5119372">
<ele>346.2120361</ele>
<time>2010-05-04T08:10:09Z</time>
</trkpt>
<trkpt lat="35.3273583" lon="24.5119479">
<ele>343.3278809</ele>
<time>2010-05-04T08:10:20Z</time>
</trkpt>
<trkpt lat="35.3272640" lon="24.5119553">
<ele>342.3666992</ele>
<time>2010-05-04T08:10:29Z</time>
</trkpt>
<trkpt lat="35.3271916" lon="24.5119657">
<ele>342.8472900</ele>
<time>2010-05-04T08:10:37Z</time>
</trkpt>
<trkpt lat="35.3271930" lon="24.5119638">
<ele>344.2894287</ele>
<time>2010-05-04T08:10:45Z</time>
</trkpt>
<trkpt lat="35.3271600" lon="24.5119542">
<ele>345.2506104</ele>
<time>2010-05-04T08:10:51Z</time>
</trkpt>
<trkpt lat="35.3270783" lon="24.5119535">
<ele>346.2120361</ele>
<time>2010-05-04T08:10:59Z</time>
</trkpt>
<trkpt lat="35.3269609" lon="24.5119775">
<ele>345.2506104</ele>
<time>2010-05-04T08:11:09Z</time>
</trkpt>
<trkpt lat="35.3268715" lon="24.5120392">
<ele>345.2506104</ele>
<time>2010-05-04T08:11:18Z</time>
</trkpt>
<trkpt lat="35.3267823" lon="24.5120801">
<ele>344.7700195</ele>
<time>2010-05-04T08:11:26Z</time>
</trkpt>
<trkpt lat="35.3266415" lon="24.5121166">
<ele>343.8085938</ele>
<time>2010-05-04T08:11:38Z</time>
</trkpt>
<trkpt lat="35.3265253" lon="24.5121680">
<ele>342.8472900</ele>
<time>2010-05-04T08:11:48Z</time>
</trkpt>
<trkpt lat="35.3264439" lon="24.5121985">
<ele>342.8472900</ele>
<time>2010-05-04T08:11:55Z</time>
</trkpt>
<trkpt lat="35.3263283" lon="24.5122234">
<ele>344.7700195</ele>
<time>2010-05-04T08:12:05Z</time>
</trkpt>
<trkpt lat="35.3262900" lon="24.5122335">
<ele>345.2506104</ele>
<time>2010-05-04T08:12:09Z</time>
</trkpt>
<trkpt lat="35.3262523" lon="24.5122422">
<ele>346.6926270</ele>
<time>2010-05-04T08:12:18Z</time>
</trkpt>
<trkpt lat="35.3261631" lon="24.5122694">
<ele>346.2120361</ele>
<time>2010-05-04T08:12:26Z</time>
</trkpt>
<trkpt lat="35.3260399" lon="24.5122971">
<ele>346.2120361</ele>
<time>2010-05-04T08:12:37Z</time>
</trkpt>
<trkpt lat="35.3259519" lon="24.5123199">
<ele>345.7313232</ele>
<time>2010-05-04T08:12:45Z</time>
</trkpt>
<trkpt lat="35.3258388" lon="24.5123487">
<ele>347.1732178</ele>
<time>2010-05-04T08:12:55Z</time>
</trkpt>
<trkpt lat="35.3257261" lon="24.5123743">
<ele>348.1346436</ele>
<time>2010-05-04T08:13:05Z</time>
</trkpt>
<trkpt lat="35.3256002" lon="24.5123681">
<ele>349.5765381</ele>
<time>2010-05-04T08:13:16Z</time>
</trkpt>
<trkpt lat="35.3254795" lon="24.5123137">
<ele>351.0184326</ele>
<time>2010-05-04T08:13:27Z</time>
</trkpt>
<trkpt lat="35.3253583" lon="24.5122032">
<ele>354.8637695</ele>
<time>2010-05-04T08:13:40Z</time>
</trkpt>
<trkpt lat="35.3252933" lon="24.5121055">
<ele>356.7863770</ele>
<time>2010-05-04T08:13:49Z</time>
</trkpt>
<trkpt lat="35.3252638" lon="24.5120500">
<ele>357.7478027</ele>
<time>2010-05-04T08:13:57Z</time>
</trkpt>
<trkpt lat="35.3252532" lon="24.5120292">
<ele>358.7089844</ele>
<time>2010-05-04T08:14:06Z</time>
</trkpt>
<trkpt lat="35.3252521" lon="24.5120292">
<ele>360.1511230</ele>
<time>2010-05-04T08:14:30Z</time>
</trkpt>
<trkpt lat="35.3252318" lon="24.5119717">
<ele>359.6704102</ele>
<time>2010-05-04T08:14:39Z</time>
</trkpt>
<trkpt lat="35.3252092" lon="24.5118789">
<ele>359.1896973</ele>
<time>2010-05-04T08:14:48Z</time>
</trkpt>
<trkpt lat="35.3251931" lon="24.5118335">
<ele>358.7089844</ele>
<time>2010-05-04T08:14:56Z</time>
</trkpt>
<trkpt lat="35.3251841" lon="24.5117747">
<ele>359.1896973</ele>
<time>2010-05-04T08:15:13Z</time>
</trkpt>
<trkpt lat="35.3251630" lon="24.5117061">
<ele>358.7089844</ele>
<time>2010-05-04T08:15:22Z</time>
</trkpt>
<trkpt lat="35.3251501" lon="24.5116466">
<ele>358.7089844</ele>
<time>2010-05-04T08:15:31Z</time>
</trkpt>
<trkpt lat="35.3251488" lon="24.5116014">
<ele>359.6704102</ele>
<time>2010-05-04T08:15:38Z</time>
</trkpt>
<trkpt lat="35.3251874" lon="24.5115631">
<ele>359.1896973</ele>
<time>2010-05-04T08:15:46Z</time>
</trkpt>
<trkpt lat="35.3252655" lon="24.5115224">
<ele>360.6317139</ele>
<time>2010-05-04T08:15:56Z</time>
</trkpt>
<trkpt lat="35.3252684" lon="24.5115281">
<ele>361.1124268</ele>
<time>2010-05-04T08:16:03Z</time>
</trkpt>
<trkpt lat="35.3253421" lon="24.5115258">
<ele>362.0737305</ele>
<time>2010-05-04T08:16:11Z</time>
</trkpt>
<trkpt lat="35.3254136" lon="24.5115159">
<ele>362.5543213</ele>
<time>2010-05-04T08:16:21Z</time>
</trkpt>
<trkpt lat="35.3254593" lon="24.5115097">
<ele>360.6317139</ele>
<time>2010-05-04T08:16:29Z</time>
</trkpt>
<trkpt lat="35.3255046" lon="24.5114437">
<ele>359.6704102</ele>
<time>2010-05-04T08:16:38Z</time>
</trkpt>
<trkpt lat="35.3255214" lon="24.5113886">
<ele>361.1124268</ele>
<time>2010-05-04T08:16:46Z</time>
</trkpt>
<trkpt lat="35.3255198" lon="24.5113708">
<ele>363.0350342</ele>
<time>2010-05-04T08:16:56Z</time>
</trkpt>
<trkpt lat="35.3255136" lon="24.5113764">
<ele>367.3609619</ele>
<time>2010-05-04T08:17:41Z</time>
</trkpt>
<trkpt lat="35.3255151" lon="24.5113798">
<ele>365.9189453</ele>
<time>2010-05-04T08:18:08Z</time>
</trkpt>
<trkpt lat="35.3255120" lon="24.5113765">
<ele>363.9963379</ele>
<time>2010-05-04T08:18:37Z</time>
</trkpt>
<trkpt lat="35.3255023" lon="24.5113817">
<ele>358.7089844</ele>
<time>2010-05-04T08:19:45Z</time>
</trkpt>
<trkpt lat="35.3254997" lon="24.5113709">
<ele>359.1896973</ele>
<time>2010-05-04T08:19:51Z</time>
</trkpt>
<trkpt lat="35.3254730" lon="24.5113424">
<ele>360.6317139</ele>
<time>2010-05-04T08:20:17Z</time>
</trkpt>
<trkpt lat="35.3254582" lon="24.5112981">
<ele>362.5543213</ele>
<time>2010-05-04T08:20:22Z</time>
</trkpt>
<trkpt lat="35.3254659" lon="24.5112605">
<ele>363.9963379</ele>
<time>2010-05-04T08:20:29Z</time>
</trkpt>
<trkpt lat="35.3254468" lon="24.5112678">
<ele>364.4769287</ele>
<time>2010-05-04T08:20:36Z</time>
</trkpt>
<trkpt lat="35.3254224" lon="24.5112916">
<ele>367.8415527</ele>
<time>2010-05-04T08:20:57Z</time>
</trkpt>
<trkpt lat="35.3253981" lon="24.5112650">
<ele>368.3222656</ele>
<time>2010-05-04T08:22:33Z</time>
</trkpt>
<trkpt lat="35.3254349" lon="24.5112594">
<ele>368.3222656</ele>
<time>2010-05-04T08:22:37Z</time>
</trkpt>
<trkpt lat="35.3254490" lon="24.5112723">
<ele>359.1896973</ele>
<time>2010-05-04T08:22:46Z</time>
</trkpt>
<trkpt lat="35.3254590" lon="24.5112273">
<ele>364.4769287</ele>
<time>2010-05-04T08:23:36Z</time>
</trkpt>
<trkpt lat="35.3254062" lon="24.5112631">
<ele>370.7255859</ele>
<time>2010-05-04T08:23:46Z</time>
</trkpt>
<trkpt lat="35.3253047" lon="24.5113648">
<ele>365.4383545</ele>
<time>2010-05-04T08:24:29Z</time>
</trkpt>
<trkpt lat="35.3252059" lon="24.5113117">
<ele>364.9576416</ele>
<time>2010-05-04T08:24:35Z</time>
</trkpt>
<trkpt lat="35.3251598" lon="24.5112713">
<ele>361.1124268</ele>
<time>2010-05-04T08:24:39Z</time>
</trkpt>
<trkpt lat="35.3251148" lon="24.5112884">
<ele>352.9411621</ele>
<time>2010-05-04T08:24:48Z</time>
</trkpt>
<trkpt lat="35.3250324" lon="24.5113209">
<ele>345.2506104</ele>
<time>2010-05-04T08:24:53Z</time>
</trkpt>
<trkpt lat="35.3255441" lon="24.5113401">
<ele>333.2341309</ele>
<time>2010-05-04T08:31:53Z</time>
</trkpt>
<trkpt lat="35.3256572" lon="24.5110632">
<ele>346.6926270</ele>
<time>2010-05-04T08:31:58Z</time>
</trkpt>
<trkpt lat="35.3255541" lon="24.5111633">
<ele>353.9025879</ele>
<time>2010-05-04T08:32:03Z</time>
</trkpt>
<trkpt lat="35.3254347" lon="24.5112528">
<ele>366.8802490</ele>
<time>2010-05-04T08:32:18Z</time>
</trkpt>
<trkpt lat="35.3253933" lon="24.5112595">
<ele>371.2062988</ele>
<time>2010-05-04T08:32:23Z</time>
</trkpt>
<trkpt lat="35.3253930" lon="24.5112631">
<ele>370.2448730</ele>
<time>2010-05-04T08:32:30Z</time>
</trkpt>
<trkpt lat="35.3253661" lon="24.5112625">
<ele>367.8415527</ele>
<time>2010-05-04T08:32:37Z</time>
</trkpt>
<trkpt lat="35.3253334" lon="24.5112725">
<ele>366.8802490</ele>
<time>2010-05-04T08:32:43Z</time>
</trkpt>
<trkpt lat="35.3253201" lon="24.5113131">
<ele>366.8802490</ele>
<time>2010-05-04T08:32:51Z</time>
</trkpt>
<trkpt lat="35.3253754" lon="24.5111917">
<ele>365.9189453</ele>
<time>2010-05-04T08:33:03Z</time>
</trkpt>
<trkpt lat="35.3253483" lon="24.5113366">
<ele>355.3444824</ele>
<time>2010-05-04T08:33:14Z</time>
</trkpt>
<trkpt lat="35.3252777" lon="24.5113127">
<ele>361.5931396</ele>
<time>2010-05-04T08:33:24Z</time>
</trkpt>
<trkpt lat="35.3252811" lon="24.5113357">
<ele>364.9576416</ele>
<time>2010-05-04T08:33:28Z</time>
</trkpt>
<trkpt lat="35.3252982" lon="24.5113688">
<ele>365.4383545</ele>
<time>2010-05-04T08:33:30Z</time>
</trkpt>
<trkpt lat="35.3253189" lon="24.5113640">
<ele>365.9189453</ele>
<time>2010-05-04T08:33:35Z</time>
</trkpt>
<trkpt lat="35.3253535" lon="24.5112717">
<ele>365.9189453</ele>
<time>2010-05-04T08:33:52Z</time>
</trkpt>
<trkpt lat="35.3253659" lon="24.5113165">
<ele>365.9189453</ele>
<time>2010-05-04T08:34:02Z</time>
</trkpt>
<trkpt lat="35.3253380" lon="24.5113315">
<ele>357.2670898</ele>
<time>2010-05-04T08:34:14Z</time>
</trkpt>
<trkpt lat="35.3253145" lon="24.5113590">
<ele>355.8251953</ele>
<time>2010-05-04T08:34:17Z</time>
</trkpt>
<trkpt lat="35.3253347" lon="24.5113864">
<ele>356.3057861</ele>
<time>2010-05-04T08:34:24Z</time>
</trkpt>
<trkpt lat="35.3253577" lon="24.5113808">
<ele>356.3057861</ele>
<time>2010-05-04T08:34:26Z</time>
</trkpt>
<trkpt lat="35.3254571" lon="24.5114164">
<ele>362.0737305</ele>
<time>2010-05-04T08:34:31Z</time>
</trkpt>
<trkpt lat="35.3256236" lon="24.5115368">
<ele>367.3609619</ele>
<time>2010-05-04T08:34:43Z</time>
</trkpt>
<trkpt lat="35.3253319" lon="24.5113210">
<ele>360.6317139</ele>
<time>2010-05-04T08:34:49Z</time>
</trkpt>
<trkpt lat="35.3253029" lon="24.5113298">
<ele>358.2283936</ele>
<time>2010-05-04T08:34:54Z</time>
</trkpt>
<trkpt lat="35.3253606" lon="24.5113036">
<ele>361.5931396</ele>
<time>2010-05-04T08:34:58Z</time>
</trkpt>
<trkpt lat="35.3254285" lon="24.5113515">
<ele>362.5543213</ele>
<time>2010-05-04T08:35:05Z</time>
</trkpt>
<trkpt lat="35.3254050" lon="24.5113538">
<ele>362.0737305</ele>
<time>2010-05-04T08:35:07Z</time>
</trkpt>
<trkpt lat="35.3253671" lon="24.5113546">
<ele>363.0350342</ele>
<time>2010-05-04T08:35:10Z</time>
</trkpt>
<trkpt lat="35.3253650" lon="24.5112988">
<ele>365.4383545</ele>
<time>2010-05-04T08:35:14Z</time>
</trkpt>
<trkpt lat="35.3253877" lon="24.5112507">
<ele>367.8415527</ele>
<time>2010-05-04T08:35:23Z</time>
</trkpt>
<trkpt lat="35.3253954" lon="24.5113076">
<ele>365.9189453</ele>
<time>2010-05-04T08:35:38Z</time>
</trkpt>
<trkpt lat="35.3253510" lon="24.5113633">
<ele>366.3995361</ele>
<time>2010-05-04T08:35:45Z</time>
</trkpt>
<trkpt lat="35.3252365" lon="24.5112651">
<ele>345.7313232</ele>
<time>2010-05-04T08:36:56Z</time>
</trkpt>
<trkpt lat="35.3251935" lon="24.5113101">
<ele>340.4440918</ele>
<time>2010-05-04T08:36:57Z</time>
</trkpt>
<trkpt lat="35.3252293" lon="24.5112529">
<ele>354.8637695</ele>
<time>2010-05-04T08:37:03Z</time>
</trkpt>
<trkpt lat="35.3253955" lon="24.5113967">
<ele>355.8251953</ele>
<time>2010-05-04T08:37:11Z</time>
</trkpt>
<trkpt lat="35.3253850" lon="24.5114125">
<ele>355.8251953</ele>
<time>2010-05-04T08:37:17Z</time>
</trkpt>
<trkpt lat="35.3253070" lon="24.5112153">
<ele>344.2894287</ele>
<time>2010-05-04T08:37:34Z</time>
</trkpt>
<trkpt lat="35.3254058" lon="24.5113279">
<ele>350.0572510</ele>
<time>2010-05-04T08:37:38Z</time>
</trkpt>
<trkpt lat="35.3254271" lon="24.5113640">
<ele>358.2283936</ele>
<time>2010-05-04T08:37:44Z</time>
</trkpt>
<trkpt lat="35.3253988" lon="24.5113391">
<ele>364.9576416</ele>
<time>2010-05-04T08:37:50Z</time>
</trkpt>
<trkpt lat="35.3254124" lon="24.5113525">
<ele>363.5157471</ele>
<time>2010-05-04T08:37:54Z</time>
</trkpt>
<trkpt lat="35.3253906" lon="24.5113531">
<ele>359.6704102</ele>
<time>2010-05-04T08:38:00Z</time>
</trkpt>
<trkpt lat="35.3253262" lon="24.5112057">
<ele>381.7806396</ele>
<time>2010-05-04T08:38:28Z</time>
</trkpt>
<trkpt lat="35.3253582" lon="24.5111922">
<ele>383.7032471</ele>
<time>2010-05-04T08:38:31Z</time>
</trkpt>
<trkpt lat="35.3254272" lon="24.5111334">
<ele>386.1066895</ele>
<time>2010-05-04T08:38:35Z</time>
</trkpt>
<trkpt lat="35.3254433" lon="24.5111191">
<ele>385.1453857</ele>
<time>2010-05-04T08:38:42Z</time>
</trkpt>
<trkpt lat="35.3254159" lon="24.5110926">
<ele>387.0679932</ele>
<time>2010-05-04T08:38:45Z</time>
</trkpt>
<trkpt lat="35.3253935" lon="24.5110486">
<ele>388.5100098</ele>
<time>2010-05-04T08:38:47Z</time>
</trkpt>
<trkpt lat="35.3254076" lon="24.5110610">
<ele>384.1840820</ele>
<time>2010-05-04T08:38:53Z</time>
</trkpt>
<trkpt lat="35.3253752" lon="24.5110177">
<ele>383.2226563</ele>
<time>2010-05-04T08:38:59Z</time>
</trkpt>
<trkpt lat="35.3253577" lon="24.5111558">
<ele>380.3387451</ele>
<time>2010-05-04T08:39:07Z</time>
</trkpt>
<trkpt lat="35.3253541" lon="24.5111909">
<ele>374.0900879</ele>
<time>2010-05-04T08:39:13Z</time>
</trkpt>
<trkpt lat="35.3253169" lon="24.5111754">
<ele>369.7642822</ele>
<time>2010-05-04T08:39:19Z</time>
</trkpt>
<trkpt lat="35.3253370" lon="24.5111916">
<ele>368.3222656</ele>
<time>2010-05-04T08:39:36Z</time>
</trkpt>
<trkpt lat="35.3253534" lon="24.5111139">
<ele>370.2448730</ele>
<time>2010-05-04T08:39:43Z</time>
</trkpt>
<trkpt lat="35.3253614" lon="24.5111269">
<ele>371.2062988</ele>
<time>2010-05-04T08:39:44Z</time>
</trkpt>
<trkpt lat="35.3254529" lon="24.5112035">
<ele>373.6094971</ele>
<time>2010-05-04T08:39:50Z</time>
</trkpt>
<trkpt lat="35.3254685" lon="24.5111998">
<ele>374.0900879</ele>
<time>2010-05-04T08:39:56Z</time>
</trkpt>
<trkpt lat="35.3253945" lon="24.5112415">
<ele>368.3222656</ele>
<time>2010-05-04T08:40:04Z</time>
</trkpt>
<trkpt lat="35.3254107" lon="24.5112055">
<ele>366.3995361</ele>
<time>2010-05-04T08:40:11Z</time>
</trkpt>
<trkpt lat="35.3254254" lon="24.5111703">
<ele>365.9189453</ele>
<time>2010-05-04T08:40:19Z</time>
</trkpt>
<trkpt lat="35.3254468" lon="24.5111786">
<ele>365.9189453</ele>
<time>2010-05-04T08:40:31Z</time>
</trkpt>
<trkpt lat="35.3254525" lon="24.5111797">
<ele>366.3995361</ele>
<time>2010-05-04T08:40:39Z</time>
</trkpt>
<trkpt lat="35.3254463" lon="24.5111752">
<ele>367.3609619</ele>
<time>2010-05-04T08:40:59Z</time>
</trkpt>
<trkpt lat="35.3254281" lon="24.5111641">
<ele>366.8802490</ele>
<time>2010-05-04T08:41:10Z</time>
</trkpt>
<trkpt lat="35.3254236" lon="24.5111605">
<ele>366.8802490</ele>
<time>2010-05-04T08:41:19Z</time>
</trkpt>
<trkpt lat="35.3254177" lon="24.5111346">
<ele>366.8802490</ele>
<time>2010-05-04T08:41:26Z</time>
</trkpt>
<trkpt lat="35.3254171" lon="24.5111419">
<ele>367.3609619</ele>
<time>2010-05-04T08:41:41Z</time>
</trkpt>
<trkpt lat="35.3254177" lon="24.5111481">
<ele>368.3222656</ele>
<time>2010-05-04T08:41:52Z</time>
</trkpt>
<trkpt lat="35.3254075" lon="24.5111718">
<ele>368.8029785</ele>
<time>2010-05-04T08:42:08Z</time>
</trkpt>
<trkpt lat="35.3253862" lon="24.5112356">
<ele>367.8415527</ele>
<time>2010-05-04T08:42:16Z</time>
</trkpt>
<trkpt lat="35.3253946" lon="24.5112741">
<ele>366.8802490</ele>
<time>2010-05-04T08:42:22Z</time>
</trkpt>
<trkpt lat="35.3254210" lon="24.5112864">
<ele>363.5157471</ele>
<time>2010-05-04T08:42:30Z</time>
</trkpt>
<trkpt lat="35.3254023" lon="24.5112931">
<ele>361.5931396</ele>
<time>2010-05-04T08:42:32Z</time>
</trkpt>
<trkpt lat="35.3254318" lon="24.5112890">
<ele>362.5543213</ele>
<time>2010-05-04T08:42:38Z</time>
</trkpt>
<trkpt lat="35.3254477" lon="24.5112570">
<ele>363.9963379</ele>
<time>2010-05-04T08:42:55Z</time>
</trkpt>
<trkpt lat="35.3254546" lon="24.5112259">
<ele>362.0737305</ele>
<time>2010-05-04T08:43:03Z</time>
</trkpt>
<trkpt lat="35.3254625" lon="24.5112215">
<ele>361.5931396</ele>
<time>2010-05-04T08:43:15Z</time>
</trkpt>
<trkpt lat="35.3254767" lon="24.5112436">
<ele>360.6317139</ele>
<time>2010-05-04T08:43:23Z</time>
</trkpt>
<trkpt lat="35.3255059" lon="24.5112824">
<ele>361.5931396</ele>
<time>2010-05-04T08:43:31Z</time>
</trkpt>
<trkpt lat="35.3254909" lon="24.5112911">
<ele>361.1124268</ele>
<time>2010-05-04T08:43:38Z</time>
</trkpt>
<trkpt lat="35.3254770" lon="24.5112936">
<ele>361.5931396</ele>
<time>2010-05-04T08:43:52Z</time>
</trkpt>
<trkpt lat="35.3254721" lon="24.5112966">
<ele>361.1124268</ele>
<time>2010-05-04T08:43:59Z</time>
</trkpt>
<trkpt lat="35.3254634" lon="24.5112828">
<ele>361.1124268</ele>
<time>2010-05-04T08:44:09Z</time>
</trkpt>
<trkpt lat="35.3254708" lon="24.5112797">
<ele>360.6317139</ele>
<time>2010-05-04T08:44:22Z</time>
</trkpt>
<trkpt lat="35.3254762" lon="24.5112791">
<ele>360.1511230</ele>
<time>2010-05-04T08:44:29Z</time>
</trkpt>
<trkpt lat="35.3254847" lon="24.5112845">
<ele>359.1896973</ele>
<time>2010-05-04T08:44:44Z</time>
</trkpt>
<trkpt lat="35.3255166" lon="24.5112863">
<ele>359.6704102</ele>
<time>2010-05-04T08:44:50Z</time>
</trkpt>
<trkpt lat="35.3255156" lon="24.5112857">
<ele>360.1511230</ele>
<time>2010-05-04T08:45:03Z</time>
</trkpt>
<trkpt lat="35.3255067" lon="24.5113097">
<ele>359.6704102</ele>
<time>2010-05-04T08:45:22Z</time>
</trkpt>
<trkpt lat="35.3254956" lon="24.5113086">
<ele>359.6704102</ele>
<time>2010-05-04T08:45:30Z</time>
</trkpt>
<trkpt lat="35.3255219" lon="24.5113186">
<ele>359.1896973</ele>
<time>2010-05-04T08:45:45Z</time>
</trkpt>
<trkpt lat="35.3255665" lon="24.5113230">
<ele>361.1124268</ele>
<time>2010-05-04T08:45:51Z</time>
</trkpt>
<trkpt lat="35.3255788" lon="24.5113135">
<ele>363.0350342</ele>
<time>2010-05-04T08:45:59Z</time>
</trkpt>
<trkpt lat="35.3256012" lon="24.5112990">
<ele>365.9189453</ele>
<time>2010-05-04T08:46:07Z</time>
</trkpt>
<trkpt lat="35.3255923" lon="24.5112795">
<ele>372.1674805</ele>
<time>2010-05-04T08:46:17Z</time>
</trkpt>
<trkpt lat="35.3255866" lon="24.5112030">
<ele>372.6481934</ele>
<time>2010-05-04T08:46:43Z</time>
</trkpt>
<trkpt lat="35.3256023" lon="24.5112394">
<ele>371.2062988</ele>
<time>2010-05-04T08:46:55Z</time>
</trkpt>
<trkpt lat="35.3256829" lon="24.5112332">
<ele>369.2836914</ele>
<time>2010-05-04T08:46:59Z</time>
</trkpt>
<trkpt lat="35.3257530" lon="24.5111690">
<ele>371.2062988</ele>
<time>2010-05-04T08:47:05Z</time>
</trkpt>
<trkpt lat="35.3257135" lon="24.5111861">
<ele>376.0128174</ele>
<time>2010-05-04T08:47:07Z</time>
</trkpt>
<trkpt lat="35.3255751" lon="24.5112683">
<ele>376.4935303</ele>
<time>2010-05-04T08:47:12Z</time>
</trkpt>
<trkpt lat="35.3256414" lon="24.5112077">
<ele>378.8968506</ele>
<time>2010-05-04T08:47:25Z</time>
</trkpt>
<trkpt lat="35.3256082" lon="24.5112165">
<ele>383.2226563</ele>
<time>2010-05-04T08:47:33Z</time>
</trkpt>
<trkpt lat="35.3255889" lon="24.5111378">
<ele>385.1453857</ele>
<time>2010-05-04T08:47:40Z</time>
</trkpt>
<trkpt lat="35.3255515" lon="24.5114646">
<ele>386.1066895</ele>
<time>2010-05-04T08:48:13Z</time>
</trkpt>
<trkpt lat="35.3255617" lon="24.5112360">
<ele>372.1674805</ele>
<time>2010-05-04T08:48:19Z</time>
</trkpt>
<trkpt lat="35.3256851" lon="24.5113527">
<ele>377.9354248</ele>
<time>2010-05-04T08:48:25Z</time>
</trkpt>
<trkpt lat="35.3256769" lon="24.5113459">
<ele>382.7420654</ele>
<time>2010-05-04T08:48:26Z</time>
</trkpt>
<trkpt lat="35.3256846" lon="24.5112615">
<ele>387.5485840</ele>
<time>2010-05-04T08:48:32Z</time>
</trkpt>
<trkpt lat="35.3256292" lon="24.5111879">
<ele>379.3774414</ele>
<time>2010-05-04T08:48:47Z</time>
</trkpt>
<trkpt lat="35.3256473" lon="24.5112270">
<ele>375.0515137</ele>
<time>2010-05-04T08:48:59Z</time>
</trkpt>
<trkpt lat="35.3256577" lon="24.5112425">
<ele>361.1124268</ele>
<time>2010-05-04T08:49:20Z</time>
</trkpt>
<trkpt lat="35.3256524" lon="24.5112401">
<ele>364.9576416</ele>
<time>2010-05-04T08:49:25Z</time>
</trkpt>
<trkpt lat="35.3257053" lon="24.5111988">
<ele>370.7255859</ele>
<time>2010-05-04T08:49:32Z</time>
</trkpt>
<trkpt lat="35.3256631" lon="24.5112118">
<ele>365.4383545</ele>
<time>2010-05-04T08:49:37Z</time>
</trkpt>
<trkpt lat="35.3256438" lon="24.5112166">
<ele>363.9963379</ele>
<time>2010-05-04T08:49:39Z</time>
</trkpt>
<trkpt lat="35.3254795" lon="24.5112560">
<ele>365.4383545</ele>
<time>2010-05-04T08:49:48Z</time>
</trkpt>
<trkpt lat="35.3255451" lon="24.5110982">
<ele>360.6317139</ele>
<time>2010-05-04T08:49:56Z</time>
</trkpt>
<trkpt lat="35.3254644" lon="24.5112083">
<ele>353.4218750</ele>
<time>2010-05-04T08:50:10Z</time>
</trkpt>
<trkpt lat="35.3254934" lon="24.5111834">
<ele>353.9025879</ele>
<time>2010-05-04T08:50:11Z</time>
</trkpt>
<trkpt lat="35.3255467" lon="24.5110507">
<ele>359.1896973</ele>
<time>2010-05-04T08:50:17Z</time>
</trkpt>
<trkpt lat="35.3255474" lon="24.5110404">
<ele>357.2670898</ele>
<time>2010-05-04T08:50:18Z</time>
</trkpt>
<trkpt lat="35.3255234" lon="24.5110532">
<ele>354.3831787</ele>
<time>2010-05-04T08:50:23Z</time>
</trkpt>
<trkpt lat="35.3254858" lon="24.5111269">
<ele>354.3831787</ele>
<time>2010-05-04T08:50:29Z</time>
</trkpt>
<trkpt lat="35.3255205" lon="24.5111057">
<ele>355.3444824</ele>
<time>2010-05-04T08:50:30Z</time>
</trkpt>
<trkpt lat="35.3255775" lon="24.5110316">
<ele>363.9963379</ele>
<time>2010-05-04T08:50:36Z</time>
</trkpt>
<trkpt lat="35.3256110" lon="24.5110964">
<ele>366.3995361</ele>
<time>2010-05-04T08:50:39Z</time>
</trkpt>
<trkpt lat="35.3256288" lon="24.5111373">
<ele>369.7642822</ele>
<time>2010-05-04T08:50:44Z</time>
</trkpt>
<trkpt lat="35.3256095" lon="24.5111216">
<ele>373.6094971</ele>
<time>2010-05-04T08:50:48Z</time>
</trkpt>
<trkpt lat="35.3255748" lon="24.5108403">
<ele>378.4161377</ele>
<time>2010-05-04T08:50:54Z</time>
</trkpt>
<trkpt lat="35.3255728" lon="24.5106732">
<ele>377.4548340</ele>
<time>2010-05-04T08:50:59Z</time>
</trkpt>
<trkpt lat="35.3255866" lon="24.5107244">
<ele>376.9742432</ele>
<time>2010-05-04T08:51:02Z</time>
</trkpt>
<trkpt lat="35.3256124" lon="24.5109651">
<ele>372.1674805</ele>
<time>2010-05-04T08:51:06Z</time>
</trkpt>
<trkpt lat="35.3256618" lon="24.5111993">
<ele>348.6152344</ele>
<time>2010-05-04T08:51:20Z</time>
</trkpt>
<trkpt lat="35.3256811" lon="24.5113407">
<ele>347.1732178</ele>
<time>2010-05-04T08:51:27Z</time>
</trkpt>
<trkpt lat="35.3256497" lon="24.5112490">
<ele>346.2120361</ele>
<time>2010-05-04T08:51:37Z</time>
</trkpt>
<trkpt lat="35.3256949" lon="24.5112397">
<ele>357.2670898</ele>
<time>2010-05-04T08:51:59Z</time>
</trkpt>
<trkpt lat="35.3256986" lon="24.5112507">
<ele>359.6704102</ele>
<time>2010-05-04T08:52:01Z</time>
</trkpt>
<trkpt lat="35.3256742" lon="24.5111922">
<ele>367.8415527</ele>
<time>2010-05-04T08:52:04Z</time>
</trkpt>
<trkpt lat="35.3256644" lon="24.5112248">
<ele>363.5157471</ele>
<time>2010-05-04T08:52:10Z</time>
</trkpt>
<trkpt lat="35.3256561" lon="24.5112336">
<ele>353.9025879</ele>
<time>2010-05-04T08:52:18Z</time>
</trkpt>
<trkpt lat="35.3256554" lon="24.5112202">
<ele>354.3831787</ele>
<time>2010-05-04T08:52:22Z</time>
</trkpt>
<trkpt lat="35.3257057" lon="24.5112600">
<ele>359.1896973</ele>
<time>2010-05-04T08:52:28Z</time>
</trkpt>
<trkpt lat="35.3256911" lon="24.5112331">
<ele>357.7478027</ele>
<time>2010-05-04T08:52:34Z</time>
</trkpt>
<trkpt lat="35.3256911" lon="24.5112774">
<ele>358.7089844</ele>
<time>2010-05-04T08:52:41Z</time>
</trkpt>
<trkpt lat="35.3256593" lon="24.5112583">
<ele>362.5543213</ele>
<time>2010-05-04T08:52:47Z</time>
</trkpt>
<trkpt lat="35.3256789" lon="24.5112248">
<ele>362.0737305</ele>
<time>2010-05-04T08:52:55Z</time>
</trkpt>
<trkpt lat="35.3256473" lon="24.5112039">
<ele>363.0350342</ele>
<time>2010-05-04T08:53:01Z</time>
</trkpt>
<trkpt lat="35.3256245" lon="24.5112029">
<ele>349.0958252</ele>
<time>2010-05-04T08:53:18Z</time>
</trkpt>
<trkpt lat="35.3256577" lon="24.5111966">
<ele>354.3831787</ele>
<time>2010-05-04T08:53:24Z</time>
</trkpt>
<trkpt lat="35.3255806" lon="24.5112329">
<ele>350.0572510</ele>
<time>2010-05-04T08:53:31Z</time>
</trkpt>
<trkpt lat="35.3256098" lon="24.5111878">
<ele>352.4605713</ele>
<time>2010-05-04T08:53:35Z</time>
</trkpt>
<trkpt lat="35.3256491" lon="24.5112952">
<ele>353.4218750</ele>
<time>2010-05-04T08:53:41Z</time>
</trkpt>
<trkpt lat="35.3256512" lon="24.5113505">
<ele>353.9025879</ele>
<time>2010-05-04T08:53:46Z</time>
</trkpt>
<trkpt lat="35.3255419" lon="24.5114908">
<ele>354.3831787</ele>
<time>2010-05-04T08:53:51Z</time>
</trkpt>
<trkpt lat="35.3256084" lon="24.5112740">
<ele>355.3444824</ele>
<time>2010-05-04T08:53:54Z</time>
</trkpt>
<trkpt lat="35.3256168" lon="24.5112197">
<ele>361.5931396</ele>
<time>2010-05-04T08:54:00Z</time>
</trkpt>
<trkpt lat="35.3256255" lon="24.5112720">
<ele>360.1511230</ele>
<time>2010-05-04T08:54:06Z</time>
</trkpt>
<trkpt lat="35.3255896" lon="24.5113248">
<ele>363.9963379</ele>
<time>2010-05-04T08:54:13Z</time>
</trkpt>
<trkpt lat="35.3255438" lon="24.5113145">
<ele>363.5157471</ele>
<time>2010-05-04T08:54:21Z</time>
</trkpt>
<trkpt lat="35.3255292" lon="24.5113201">
<ele>369.2836914</ele>
<time>2010-05-04T08:54:30Z</time>
</trkpt>
<trkpt lat="35.3255417" lon="24.5113103">
<ele>368.3222656</ele>
<time>2010-05-04T08:54:40Z</time>
</trkpt>
<trkpt lat="35.3255458" lon="24.5113004">
<ele>368.3222656</ele>
<time>2010-05-04T08:54:48Z</time>
</trkpt>
<trkpt lat="35.3255683" lon="24.5112823">
<ele>366.3995361</ele>
<time>2010-05-04T08:54:57Z</time>
</trkpt>
<trkpt lat="35.3255593" lon="24.5113123">
<ele>362.5543213</ele>
<time>2010-05-04T08:55:21Z</time>
</trkpt>
<trkpt lat="35.3255551" lon="24.5113015">
<ele>363.9963379</ele>
<time>2010-05-04T08:55:29Z</time>
</trkpt>
<trkpt lat="35.3255508" lon="24.5112994">
<ele>363.9963379</ele>
<time>2010-05-04T08:55:43Z</time>
</trkpt>
<trkpt lat="35.3255654" lon="24.5112828">
<ele>365.4383545</ele>
<time>2010-05-04T08:56:02Z</time>
</trkpt>
<trkpt lat="35.3255507" lon="24.5113008">
<ele>363.5157471</ele>
<time>2010-05-04T08:56:20Z</time>
</trkpt>
<trkpt lat="35.3255317" lon="24.5113233">
<ele>361.1124268</ele>
<time>2010-05-04T08:56:51Z</time>
</trkpt>
<trkpt lat="35.3255276" lon="24.5113170">
<ele>360.6317139</ele>
<time>2010-05-04T08:57:10Z</time>
</trkpt>
<trkpt lat="35.3255336" lon="24.5113073">
<ele>361.1124268</ele>
<time>2010-05-04T08:57:29Z</time>
</trkpt>
<trkpt lat="35.3255591" lon="24.5112673">
<ele>361.5931396</ele>
<time>2010-05-04T08:57:36Z</time>
</trkpt>
<trkpt lat="35.3255628" lon="24.5112258">
<ele>364.9576416</ele>
<time>2010-05-04T08:57:43Z</time>
</trkpt>
<trkpt lat="35.3255421" lon="24.5112156">
<ele>366.8802490</ele>
<time>2010-05-04T08:57:48Z</time>
</trkpt>
<trkpt lat="35.3255452" lon="24.5111565">
<ele>371.2062988</ele>
<time>2010-05-04T08:57:52Z</time>
</trkpt>
<trkpt lat="35.3255673" lon="24.5110902">
<ele>376.9742432</ele>
<time>2010-05-04T08:57:57Z</time>
</trkpt>
<trkpt lat="35.3256069" lon="24.5111220">
<ele>382.7420654</ele>
<time>2010-05-04T08:58:00Z</time>
</trkpt>
<trkpt lat="35.3257229" lon="24.5111445">
<ele>388.5100098</ele>
<time>2010-05-04T08:58:09Z</time>
</trkpt>
<trkpt lat="35.3256421" lon="24.5110972">
<ele>370.2448730</ele>
<time>2010-05-04T08:58:49Z</time>
</trkpt>
<trkpt lat="35.3255248" lon="24.5112450">
<ele>379.8580322</ele>
<time>2010-05-04T08:58:58Z</time>
</trkpt>
<trkpt lat="35.3254861" lon="24.5111808">
<ele>388.5100098</ele>
<time>2010-05-04T08:59:14Z</time>
</trkpt>
<trkpt lat="35.3254396" lon="24.5112880">
<ele>390.4326172</ele>
<time>2010-05-04T08:59:20Z</time>
</trkpt>
<trkpt lat="35.3254644" lon="24.5113274">
<ele>380.8194580</ele>
<time>2010-05-04T08:59:27Z</time>
</trkpt>
<trkpt lat="35.3254914" lon="24.5113837">
<ele>372.6481934</ele>
<time>2010-05-04T08:59:34Z</time>
</trkpt>
<trkpt lat="35.3254887" lon="24.5114404">
<ele>368.8029785</ele>
<time>2010-05-04T08:59:41Z</time>
</trkpt>
<trkpt lat="35.3255131" lon="24.5114714">
<ele>367.3609619</ele>
<time>2010-05-04T08:59:48Z</time>
</trkpt>
<trkpt lat="35.3255121" lon="24.5114766">
<ele>366.3995361</ele>
<time>2010-05-04T08:59:55Z</time>
</trkpt>
<trkpt lat="35.3255074" lon="24.5114743">
<ele>367.3609619</ele>
<time>2010-05-04T09:00:05Z</time>
</trkpt>
<trkpt lat="35.3255027" lon="24.5114772">
<ele>367.3609619</ele>
<time>2010-05-04T09:00:15Z</time>
</trkpt>
<trkpt lat="35.3254862" lon="24.5114962">
<ele>366.8802490</ele>
<time>2010-05-04T09:00:30Z</time>
</trkpt>
<trkpt lat="35.3254805" lon="24.5115025">
<ele>363.9963379</ele>
<time>2010-05-04T09:00:37Z</time>
</trkpt>
<trkpt lat="35.3255143" lon="24.5115041">
<ele>362.5543213</ele>
<time>2010-05-04T09:00:50Z</time>
</trkpt>
<trkpt lat="35.3255080" lon="24.5115137">
<ele>361.5931396</ele>
<time>2010-05-04T09:00:59Z</time>
</trkpt>
<trkpt lat="35.3254794" lon="24.5115221">
<ele>361.1124268</ele>
<time>2010-05-04T09:01:06Z</time>
</trkpt>
<trkpt lat="35.3254798" lon="24.5115014">
<ele>360.6317139</ele>
<time>2010-05-04T09:01:12Z</time>
</trkpt>
<trkpt lat="35.3254665" lon="24.5114957">
<ele>360.6317139</ele>
<time>2010-05-04T09:01:17Z</time>
</trkpt>
<trkpt lat="35.3254700" lon="24.5114943">
<ele>360.6317139</ele>
<time>2010-05-04T09:01:25Z</time>
</trkpt>
<trkpt lat="35.3254696" lon="24.5114880">
<ele>360.1511230</ele>
<time>2010-05-04T09:01:36Z</time>
</trkpt>
<trkpt lat="35.3254617" lon="24.5114740">
<ele>362.0737305</ele>
<time>2010-05-04T09:01:53Z</time>
</trkpt>
<trkpt lat="35.3254523" lon="24.5114521">
<ele>363.0350342</ele>
<time>2010-05-04T09:02:03Z</time>
</trkpt>
<trkpt lat="35.3254499" lon="24.5114422">
<ele>363.0350342</ele>
<time>2010-05-04T09:02:10Z</time>
</trkpt>
<trkpt lat="35.3254523" lon="24.5114740">
<ele>363.0350342</ele>
<time>2010-05-04T09:02:18Z</time>
</trkpt>
<trkpt lat="35.3254602" lon="24.5114854">
<ele>362.0737305</ele>
<time>2010-05-04T09:02:24Z</time>
</trkpt>
<trkpt lat="35.3254865" lon="24.5115010">
<ele>361.1124268</ele>
<time>2010-05-04T09:02:31Z</time>
</trkpt>
<trkpt lat="35.3255037" lon="24.5115033">
<ele>359.6704102</ele>
<time>2010-05-04T09:02:47Z</time>
</trkpt>
<trkpt lat="35.3255752" lon="24.5115050">
<ele>359.6704102</ele>
<time>2010-05-04T09:02:55Z</time>
</trkpt>
<trkpt lat="35.3256704" lon="24.5115287">
<ele>359.6704102</ele>
<time>2010-05-04T09:03:05Z</time>
</trkpt>
<trkpt lat="35.3257188" lon="24.5115197">
<ele>358.7089844</ele>
<time>2010-05-04T09:03:12Z</time>
</trkpt>
<trkpt lat="35.3257296" lon="24.5113748">
<ele>358.2283936</ele>
<time>2010-05-04T09:03:24Z</time>
</trkpt>
<trkpt lat="35.3257177" lon="24.5112785">
<ele>356.3057861</ele>
<time>2010-05-04T09:03:32Z</time>
</trkpt>
<trkpt lat="35.3257768" lon="24.5112258">
<ele>355.3444824</ele>
<time>2010-05-04T09:03:40Z</time>
</trkpt>
<trkpt lat="35.3257871" lon="24.5112246">
<ele>354.8637695</ele>
<time>2010-05-04T09:03:41Z</time>
</trkpt>
<trkpt lat="35.3258942" lon="24.5111954">
<ele>354.8637695</ele>
<time>2010-05-04T09:03:52Z</time>
</trkpt>
<trkpt lat="35.3259738" lon="24.5112021">
<ele>355.3444824</ele>
<time>2010-05-04T09:04:03Z</time>
</trkpt>
<trkpt lat="35.3259855" lon="24.5112096">
<ele>356.3057861</ele>
<time>2010-05-04T09:04:12Z</time>
</trkpt>
<trkpt lat="35.3259918" lon="24.5112032">
<ele>357.2670898</ele>
<time>2010-05-04T09:04:21Z</time>
</trkpt>
<trkpt lat="35.3259939" lon="24.5111878">
<ele>361.1124268</ele>
<time>2010-05-04T09:04:38Z</time>
</trkpt>
<trkpt lat="35.3260208" lon="24.5112455">
<ele>362.0737305</ele>
<time>2010-05-04T09:04:45Z</time>
</trkpt>
<trkpt lat="35.3260465" lon="24.5112959">
<ele>363.0350342</ele>
<time>2010-05-04T09:04:51Z</time>
</trkpt>
<trkpt lat="35.3261249" lon="24.5113207">
<ele>363.5157471</ele>
<time>2010-05-04T09:04:59Z</time>
</trkpt>
<trkpt lat="35.3262301" lon="24.5113536">
<ele>363.0350342</ele>
<time>2010-05-04T09:05:09Z</time>
</trkpt>
<trkpt lat="35.3263483" lon="24.5113785">
<ele>361.1124268</ele>
<time>2010-05-04T09:05:19Z</time>
</trkpt>
<trkpt lat="35.3263956" lon="24.5113945">
<ele>360.6317139</ele>
<time>2010-05-04T09:05:24Z</time>
</trkpt>
<trkpt lat="35.3264228" lon="24.5114010">
<ele>360.6317139</ele>
<time>2010-05-04T09:05:32Z</time>
</trkpt>
<trkpt lat="35.3264624" lon="24.5113831">
<ele>361.5931396</ele>
<time>2010-05-04T09:05:38Z</time>
</trkpt>
<trkpt lat="35.3265378" lon="24.5113671">
<ele>362.0737305</ele>
<time>2010-05-04T09:05:45Z</time>
</trkpt>
<trkpt lat="35.3266611" lon="24.5113845">
<ele>360.6317139</ele>
<time>2010-05-04T09:05:54Z</time>
</trkpt>
<trkpt lat="35.3267652" lon="24.5113854">
<ele>358.7089844</ele>
<time>2010-05-04T09:06:02Z</time>
</trkpt>
<trkpt lat="35.3268289" lon="24.5113382">
<ele>355.8251953</ele>
<time>2010-05-04T09:06:09Z</time>
</trkpt>
<trkpt lat="35.3268851" lon="24.5112683">
<ele>354.8637695</ele>
<time>2010-05-04T09:06:17Z</time>
</trkpt>
<trkpt lat="35.3269014" lon="24.5112194">
<ele>355.8251953</ele>
<time>2010-05-04T09:06:25Z</time>
</trkpt>
<trkpt lat="35.3269002" lon="24.5112139">
<ele>357.2670898</ele>
<time>2010-05-04T09:06:38Z</time>
</trkpt>
<trkpt lat="35.3268960" lon="24.5112135">
<ele>359.1896973</ele>
<time>2010-05-04T09:06:50Z</time>
</trkpt>
<trkpt lat="35.3268917" lon="24.5112082">
<ele>359.6704102</ele>
<time>2010-05-04T09:06:57Z</time>
</trkpt>
<trkpt lat="35.3269118" lon="24.5111932">
<ele>363.9963379</ele>
<time>2010-05-04T09:07:35Z</time>
</trkpt>
<trkpt lat="35.3268859" lon="24.5111837">
<ele>363.5157471</ele>
<time>2010-05-04T09:07:53Z</time>
</trkpt>
</trkseg>
<trkseg>
<trkpt lat="35.3269024" lon="24.5106812">
<ele>352.4605713</ele>
<time>2010-05-04T10:11:51Z</time>
</trkpt>
<trkpt lat="35.3268919" lon="24.5106792">
<ele>352.9411621</ele>
<time>2010-05-04T10:11:52Z</time>
</trkpt>
<trkpt lat="35.3268256" lon="24.5106605">
<ele>356.3057861</ele>
<time>2010-05-04T10:11:58Z</time>
</trkpt>
<trkpt lat="35.3267242" lon="24.5106282">
<ele>359.6704102</ele>
<time>2010-05-04T10:12:07Z</time>
</trkpt>
<trkpt lat="35.3266740" lon="24.5106400">
<ele>360.6317139</ele>
<time>2010-05-04T10:12:11Z</time>
</trkpt>
<trkpt lat="35.3266056" lon="24.5106154">
<ele>358.2283936</ele>
<time>2010-05-04T10:12:18Z</time>
</trkpt>
<trkpt lat="35.3265684" lon="24.5105912">
<ele>359.1896973</ele>
<time>2010-05-04T10:12:22Z</time>
</trkpt>
<trkpt lat="35.3265839" lon="24.5105105">
<ele>355.3444824</ele>
<time>2010-05-04T10:12:30Z</time>
</trkpt>
<trkpt lat="35.3266055" lon="24.5104640">
<ele>356.3057861</ele>
<time>2010-05-04T10:12:38Z</time>
</trkpt>
<trkpt lat="35.3266821" lon="24.5103829">
<ele>351.4991455</ele>
<time>2010-05-04T10:12:48Z</time>
</trkpt>
<trkpt lat="35.3267487" lon="24.5103006">
<ele>343.8085938</ele>
<time>2010-05-04T10:12:58Z</time>
</trkpt>
<trkpt lat="35.3267723" lon="24.5102718">
<ele>341.8859863</ele>
<time>2010-05-04T10:13:01Z</time>
</trkpt>
<trkpt lat="35.3268064" lon="24.5102083">
<ele>341.4052734</ele>
<time>2010-05-04T10:13:08Z</time>
</trkpt>
<trkpt lat="35.3268129" lon="24.5101892">
<ele>342.8472900</ele>
<time>2010-05-04T10:13:13Z</time>
</trkpt>
<trkpt lat="35.3268185" lon="24.5101504">
<ele>344.2894287</ele>
<time>2010-05-04T10:13:19Z</time>
</trkpt>
<trkpt lat="35.3268168" lon="24.5101385">
<ele>345.7313232</ele>
<time>2010-05-04T10:13:26Z</time>
</trkpt>
<trkpt lat="35.3268232" lon="24.5101311">
<ele>347.1732178</ele>
<time>2010-05-04T10:13:39Z</time>
</trkpt>
<trkpt lat="35.3268186" lon="24.5100663">
<ele>347.6539307</ele>
<time>2010-05-04T10:13:46Z</time>
</trkpt>
<trkpt lat="35.3268330" lon="24.5100463">
<ele>346.2120361</ele>
<time>2010-05-04T10:13:53Z</time>
</trkpt>
<trkpt lat="35.3268392" lon="24.5100181">
<ele>346.2120361</ele>
<time>2010-05-04T10:14:07Z</time>
</trkpt>
<trkpt lat="35.3268429" lon="24.5100019">
<ele>345.7313232</ele>
<time>2010-05-04T10:14:08Z</time>
</trkpt>
<trkpt lat="35.3268528" lon="24.5099373">
<ele>346.2120361</ele>
<time>2010-05-04T10:14:12Z</time>
</trkpt>
<trkpt lat="35.3268894" lon="24.5098003">
<ele>345.7313232</ele>
<time>2010-05-04T10:14:23Z</time>
</trkpt>
<trkpt lat="35.3268957" lon="24.5097825">
<ele>345.7313232</ele>
<time>2010-05-04T10:14:31Z</time>
</trkpt>
<trkpt lat="35.3269060" lon="24.5097432">
<ele>347.1732178</ele>
<time>2010-05-04T10:14:37Z</time>
</trkpt>
<trkpt lat="35.3268977" lon="24.5096859">
<ele>347.6539307</ele>
<time>2010-05-04T10:14:43Z</time>
</trkpt>
<trkpt lat="35.3268961" lon="24.5096716">
<ele>347.1732178</ele>
<time>2010-05-04T10:14:44Z</time>
</trkpt>
<trkpt lat="35.3268610" lon="24.5095642">
<ele>345.2506104</ele>
<time>2010-05-04T10:14:53Z</time>
</trkpt>
<trkpt lat="35.3268479" lon="24.5095481">
<ele>344.2894287</ele>
<time>2010-05-04T10:14:59Z</time>
</trkpt>
<trkpt lat="35.3267433" lon="24.5094398">
<ele>341.8859863</ele>
<time>2010-05-04T10:15:11Z</time>
</trkpt>
<trkpt lat="35.3266724" lon="24.5094117">
<ele>342.3666992</ele>
<time>2010-05-04T10:15:20Z</time>
</trkpt>
<trkpt lat="35.3266656" lon="24.5094084">
<ele>342.3666992</ele>
<time>2010-05-04T10:15:28Z</time>
</trkpt>
<trkpt lat="35.3266692" lon="24.5094107">
<ele>342.8472900</ele>
<time>2010-05-04T10:15:41Z</time>
</trkpt>
<trkpt lat="35.3266678" lon="24.5094107">
<ele>341.4052734</ele>
<time>2010-05-04T10:15:56Z</time>
</trkpt>
<trkpt lat="35.3266630" lon="24.5094138">
<ele>342.8472900</ele>
<time>2010-05-04T10:16:12Z</time>
</trkpt>
<trkpt lat="35.3266466" lon="24.5094195">
<ele>350.5378418</ele>
<time>2010-05-04T10:17:35Z</time>
</trkpt>
<trkpt lat="35.3266196" lon="24.5093953">
<ele>351.0184326</ele>
<time>2010-05-04T10:17:57Z</time>
</trkpt>
<trkpt lat="35.3265967" lon="24.5093520">
<ele>349.0958252</ele>
<time>2010-05-04T10:18:06Z</time>
</trkpt>
<trkpt lat="35.3265557" lon="24.5092900">
<ele>346.2120361</ele>
<time>2010-05-04T10:18:17Z</time>
</trkpt>
<trkpt lat="35.3265413" lon="24.5092476">
<ele>344.2894287</ele>
<time>2010-05-04T10:18:25Z</time>
</trkpt>
<trkpt lat="35.3265269" lon="24.5092185">
<ele>343.3278809</ele>
<time>2010-05-04T10:18:32Z</time>
</trkpt>
<trkpt lat="35.3264948" lon="24.5091854">
<ele>341.8859863</ele>
<time>2010-05-04T10:18:39Z</time>
</trkpt>
<trkpt lat="35.3264655" lon="24.5091741">
<ele>340.4440918</ele>
<time>2010-05-04T10:18:45Z</time>
</trkpt>
<trkpt lat="35.3264192" lon="24.5091534">
<ele>339.9633789</ele>
<time>2010-05-04T10:18:56Z</time>
</trkpt>
<trkpt lat="35.3263746" lon="24.5091632">
<ele>340.9246826</ele>
<time>2010-05-04T10:19:02Z</time>
</trkpt>
<trkpt lat="35.3263470" lon="24.5091746">
<ele>339.4826660</ele>
<time>2010-05-04T10:19:09Z</time>
</trkpt>
<trkpt lat="35.3263138" lon="24.5091916">
<ele>337.5600586</ele>
<time>2010-05-04T10:19:16Z</time>
</trkpt>
<trkpt lat="35.3262740" lon="24.5092071">
<ele>339.0020752</ele>
<time>2010-05-04T10:19:24Z</time>
</trkpt>
<trkpt lat="35.3262548" lon="24.5091651">
<ele>338.5214844</ele>
<time>2010-05-04T10:19:37Z</time>
</trkpt>
<trkpt lat="35.3262469" lon="24.5091165">
<ele>335.6373291</ele>
<time>2010-05-04T10:19:45Z</time>
</trkpt>
<trkpt lat="35.3262361" lon="24.5090738">
<ele>334.6761475</ele>
<time>2010-05-04T10:19:53Z</time>
</trkpt>
<trkpt lat="35.3262228" lon="24.5090251">
<ele>330.8309326</ele>
<time>2010-05-04T10:20:07Z</time>
</trkpt>
<trkpt lat="35.3262141" lon="24.5089822">
<ele>329.8695068</ele>
<time>2010-05-04T10:20:13Z</time>
</trkpt>
<trkpt lat="35.3262078" lon="24.5089536">
<ele>326.5048828</ele>
<time>2010-05-04T10:20:21Z</time>
</trkpt>
<trkpt lat="35.3261931" lon="24.5088974">
<ele>326.5048828</ele>
<time>2010-05-04T10:20:32Z</time>
</trkpt>
<trkpt lat="35.3261845" lon="24.5088690">
<ele>325.5435791</ele>
<time>2010-05-04T10:20:39Z</time>
</trkpt>
<trkpt lat="35.3261348" lon="24.5088399">
<ele>325.0629883</ele>
<time>2010-05-04T10:20:46Z</time>
</trkpt>
<trkpt lat="35.3260871" lon="24.5088078">
<ele>324.5822754</ele>
<time>2010-05-04T10:20:53Z</time>
</trkpt>
<trkpt lat="35.3260353" lon="24.5087977">
<ele>323.6209717</ele>
<time>2010-05-04T10:21:00Z</time>
</trkpt>
<trkpt lat="35.3260128" lon="24.5087697">
<ele>322.6596680</ele>
<time>2010-05-04T10:21:05Z</time>
</trkpt>
<trkpt lat="35.3259694" lon="24.5087115">
<ele>321.6983643</ele>
<time>2010-05-04T10:21:13Z</time>
</trkpt>
<trkpt lat="35.3259243" lon="24.5086670">
<ele>321.2177734</ele>
<time>2010-05-04T10:21:21Z</time>
</trkpt>
<trkpt lat="35.3259244" lon="24.5086337">
<ele>321.6983643</ele>
<time>2010-05-04T10:21:32Z</time>
</trkpt>
<trkpt lat="35.3258724" lon="24.5085737">
<ele>320.7370605</ele>
<time>2010-05-04T10:21:39Z</time>
</trkpt>
<trkpt lat="35.3258390" lon="24.5085211">
<ele>318.3336182</ele>
<time>2010-05-04T10:21:46Z</time>
</trkpt>
<trkpt lat="35.3258152" lon="24.5084882">
<ele>316.4110107</ele>
<time>2010-05-04T10:21:53Z</time>
</trkpt>
<trkpt lat="35.3257809" lon="24.5084450">
<ele>313.0465088</ele>
<time>2010-05-04T10:22:00Z</time>
</trkpt>
<trkpt lat="35.3257415" lon="24.5084120">
<ele>311.6044922</ele>
<time>2010-05-04T10:22:06Z</time>
</trkpt>
<trkpt lat="35.3257057" lon="24.5083918">
<ele>312.0852051</ele>
<time>2010-05-04T10:22:12Z</time>
</trkpt>
<trkpt lat="35.3256337" lon="24.5083395">
<ele>314.4884033</ele>
<time>2010-05-04T10:22:20Z</time>
</trkpt>
<trkpt lat="35.3256100" lon="24.5083255">
<ele>314.4884033</ele>
<time>2010-05-04T10:22:23Z</time>
</trkpt>
<trkpt lat="35.3255634" lon="24.5082818">
<ele>314.9691162</ele>
<time>2010-05-04T10:22:31Z</time>
</trkpt>
<trkpt lat="35.3255378" lon="24.5082612">
<ele>314.9691162</ele>
<time>2010-05-04T10:22:38Z</time>
</trkpt>
<trkpt lat="35.3255135" lon="24.5082467">
<ele>314.4884033</ele>
<time>2010-05-04T10:22:46Z</time>
</trkpt>
<trkpt lat="35.3254814" lon="24.5082213">
<ele>314.0078125</ele>
<time>2010-05-04T10:22:53Z</time>
</trkpt>
<trkpt lat="35.3254504" lon="24.5081927">
<ele>312.0852051</ele>
<time>2010-05-04T10:23:00Z</time>
</trkpt>
<trkpt lat="35.3254344" lon="24.5081753">
<ele>310.6430664</ele>
<time>2010-05-04T10:23:05Z</time>
</trkpt>
<trkpt lat="35.3254194" lon="24.5081549">
<ele>309.6818848</ele>
<time>2010-05-04T10:23:11Z</time>
</trkpt>
<trkpt lat="35.3253948" lon="24.5081292">
<ele>308.2398682</ele>
<time>2010-05-04T10:23:18Z</time>
</trkpt>
<trkpt lat="35.3253623" lon="24.5081074">
<ele>307.7592773</ele>
<time>2010-05-04T10:23:24Z</time>
</trkpt>
<trkpt lat="35.3253247" lon="24.5080834">
<ele>307.7592773</ele>
<time>2010-05-04T10:23:32Z</time>
</trkpt>
<trkpt lat="35.3252952" lon="24.5080644">
<ele>307.7592773</ele>
<time>2010-05-04T10:23:39Z</time>
</trkpt>
<trkpt lat="35.3252546" lon="24.5080336">
<ele>306.7978516</ele>
<time>2010-05-04T10:23:46Z</time>
</trkpt>
<trkpt lat="35.3252240" lon="24.5080028">
<ele>305.8366699</ele>
<time>2010-05-04T10:23:55Z</time>
</trkpt>
<trkpt lat="35.3251893" lon="24.5079628">
<ele>305.3559570</ele>
<time>2010-05-04T10:24:03Z</time>
</trkpt>
<trkpt lat="35.3251732" lon="24.5079385">
<ele>304.8752441</ele>
<time>2010-05-04T10:24:07Z</time>
</trkpt>
<trkpt lat="35.3251586" lon="24.5079102">
<ele>305.3559570</ele>
<time>2010-05-04T10:24:11Z</time>
</trkpt>
<trkpt lat="35.3251473" lon="24.5078641">
<ele>306.7978516</ele>
<time>2010-05-04T10:24:19Z</time>
</trkpt>
<trkpt lat="35.3251192" lon="24.5078235">
<ele>308.7204590</ele>
<time>2010-05-04T10:24:25Z</time>
</trkpt>
<trkpt lat="35.3250754" lon="24.5077803">
<ele>309.2011719</ele>
<time>2010-05-04T10:24:32Z</time>
</trkpt>
<trkpt lat="35.3250402" lon="24.5077189">
<ele>310.1624756</ele>
<time>2010-05-04T10:24:39Z</time>
</trkpt>
<trkpt lat="35.3250111" lon="24.5076679">
<ele>306.7978516</ele>
<time>2010-05-04T10:24:45Z</time>
</trkpt>
<trkpt lat="35.3249748" lon="24.5076227">
<ele>303.9139404</ele>
<time>2010-05-04T10:24:51Z</time>
</trkpt>
<trkpt lat="35.3249178" lon="24.5075468">
<ele>303.4332275</ele>
<time>2010-05-04T10:25:01Z</time>
</trkpt>
<trkpt lat="35.3248898" lon="24.5075009">
<ele>302.9525146</ele>
<time>2010-05-04T10:25:07Z</time>
</trkpt>
<trkpt lat="35.3248593" lon="24.5074400">
<ele>301.9913330</ele>
<time>2010-05-04T10:25:13Z</time>
</trkpt>
<trkpt lat="35.3248485" lon="24.5074002">
<ele>301.0299072</ele>
<time>2010-05-04T10:25:16Z</time>
</trkpt>
<trkpt lat="35.3248349" lon="24.5073459">
<ele>299.5880127</ele>
<time>2010-05-04T10:25:21Z</time>
</trkpt>
<trkpt lat="35.3248258" lon="24.5073226">
<ele>298.6267090</ele>
<time>2010-05-04T10:25:27Z</time>
</trkpt>
<trkpt lat="35.3248268" lon="24.5073123">
<ele>297.6654053</ele>
<time>2010-05-04T10:25:35Z</time>
</trkpt>
<trkpt lat="35.3248371" lon="24.5072651">
<ele>298.1461182</ele>
<time>2010-05-04T10:25:42Z</time>
</trkpt>
<trkpt lat="35.3248454" lon="24.5072318">
<ele>296.7041016</ele>
<time>2010-05-04T10:25:49Z</time>
</trkpt>
<trkpt lat="35.3248475" lon="24.5072320">
<ele>296.2235107</ele>
<time>2010-05-04T10:25:59Z</time>
</trkpt>
<trkpt lat="35.3248454" lon="24.5072207">
<ele>297.1846924</ele>
<time>2010-05-04T10:26:05Z</time>
</trkpt>
<trkpt lat="35.3248659" lon="24.5071976">
<ele>296.2235107</ele>
<time>2010-05-04T10:26:11Z</time>
</trkpt>
<trkpt lat="35.3248992" lon="24.5071693">
<ele>295.7426758</ele>
<time>2010-05-04T10:26:16Z</time>
</trkpt>
<trkpt lat="35.3249573" lon="24.5071614">
<ele>295.2619629</ele>
<time>2010-05-04T10:26:24Z</time>
</trkpt>
<trkpt lat="35.3250060" lon="24.5071549">
<ele>293.8200684</ele>
<time>2010-05-04T10:26:30Z</time>
</trkpt>
<trkpt lat="35.3250828" lon="24.5071459">
<ele>294.7813721</ele>
<time>2010-05-04T10:26:38Z</time>
</trkpt>
<trkpt lat="35.3251499" lon="24.5071450">
<ele>295.2619629</ele>
<time>2010-05-04T10:26:46Z</time>
</trkpt>
<trkpt lat="35.3252030" lon="24.5071419">
<ele>295.7426758</ele>
<time>2010-05-04T10:26:53Z</time>
</trkpt>
<trkpt lat="35.3252676" lon="24.5071306">
<ele>296.7041016</ele>
<time>2010-05-04T10:27:02Z</time>
</trkpt>
<trkpt lat="35.3253262" lon="24.5071142">
<ele>294.3007813</ele>
<time>2010-05-04T10:27:11Z</time>
</trkpt>
<trkpt lat="35.3253970" lon="24.5070864">
<ele>292.8587646</ele>
<time>2010-05-04T10:27:21Z</time>
</trkpt>
<trkpt lat="35.3254545" lon="24.5070672">
<ele>292.8587646</ele>
<time>2010-05-04T10:27:29Z</time>
</trkpt>
<trkpt lat="35.3255224" lon="24.5070332">
<ele>301.9913330</ele>
<time>2010-05-04T10:27:38Z</time>
</trkpt>
<trkpt lat="35.3255903" lon="24.5069963">
<ele>305.8366699</ele>
<time>2010-05-04T10:27:46Z</time>
</trkpt>
<trkpt lat="35.3256344" lon="24.5069999">
<ele>309.2011719</ele>
<time>2010-05-04T10:27:52Z</time>
</trkpt>
<trkpt lat="35.3257010" lon="24.5070052">
<ele>310.6430664</ele>
<time>2010-05-04T10:28:00Z</time>
</trkpt>
<trkpt lat="35.3257727" lon="24.5070168">
<ele>312.5657959</ele>
<time>2010-05-04T10:28:08Z</time>
</trkpt>
<trkpt lat="35.3258546" lon="24.5070034">
<ele>312.0852051</ele>
<time>2010-05-04T10:28:17Z</time>
</trkpt>
<trkpt lat="35.3259085" lon="24.5069601">
<ele>312.0852051</ele>
<time>2010-05-04T10:28:24Z</time>
</trkpt>
<trkpt lat="35.3259612" lon="24.5068866">
<ele>313.5272217</ele>
<time>2010-05-04T10:28:32Z</time>
</trkpt>
<trkpt lat="35.3259724" lon="24.5068647">
<ele>313.5272217</ele>
<time>2010-05-04T10:28:34Z</time>
</trkpt>
<trkpt lat="35.3260064" lon="24.5068014">
<ele>314.4884033</ele>
<time>2010-05-04T10:28:40Z</time>
</trkpt>
<trkpt lat="35.3260603" lon="24.5067062">
<ele>314.9691162</ele>
<time>2010-05-04T10:28:50Z</time>
</trkpt>
<trkpt lat="35.3260851" lon="24.5066333">
<ele>315.9304199</ele>
<time>2010-05-04T10:28:57Z</time>
</trkpt>
<trkpt lat="35.3261001" lon="24.5065333">
<ele>316.4110107</ele>
<time>2010-05-04T10:29:06Z</time>
</trkpt>
<trkpt lat="35.3260983" lon="24.5064327">
<ele>316.8917236</ele>
<time>2010-05-04T10:29:14Z</time>
</trkpt>
<trkpt lat="35.3261186" lon="24.5062984">
<ele>316.4110107</ele>
<time>2010-05-04T10:29:24Z</time>
</trkpt>
<trkpt lat="35.3261518" lon="24.5061995">
<ele>315.4498291</ele>
<time>2010-05-04T10:29:32Z</time>
</trkpt>
<trkpt lat="35.3261858" lon="24.5061359">
<ele>313.0465088</ele>
<time>2010-05-04T10:29:38Z</time>
</trkpt>
<trkpt lat="35.3262557" lon="24.5060875">
<ele>311.6044922</ele>
<time>2010-05-04T10:29:46Z</time>
</trkpt>
<trkpt lat="35.3263461" lon="24.5060598">
<ele>311.1237793</ele>
<time>2010-05-04T10:29:55Z</time>
</trkpt>
<trkpt lat="35.3263771" lon="24.5060619">
<ele>311.6044922</ele>
<time>2010-05-04T10:30:01Z</time>
</trkpt>
<trkpt lat="35.3263794" lon="24.5060773">
<ele>312.5657959</ele>
<time>2010-05-04T10:30:10Z</time>
</trkpt>
<trkpt lat="35.3263839" lon="24.5060845">
<ele>313.5272217</ele>
<time>2010-05-04T10:30:19Z</time>
</trkpt>
<trkpt lat="35.3263936" lon="24.5060757">
<ele>314.0078125</ele>
<time>2010-05-04T10:30:30Z</time>
</trkpt>
<trkpt lat="35.3263993" lon="24.5060685">
<ele>315.9304199</ele>
<time>2010-05-04T10:30:46Z</time>
</trkpt>
<trkpt lat="35.3264062" lon="24.5060714">
<ele>316.4110107</ele>
<time>2010-05-04T10:30:55Z</time>
</trkpt>
<trkpt lat="35.3264141" lon="24.5060572">
<ele>315.9304199</ele>
<time>2010-05-04T10:31:06Z</time>
</trkpt>
<trkpt lat="35.3264345" lon="24.5060571">
<ele>314.9691162</ele>
<time>2010-05-04T10:31:15Z</time>
</trkpt>
<trkpt lat="35.3264651" lon="24.5060717">
<ele>314.9691162</ele>
<time>2010-05-04T10:31:23Z</time>
</trkpt>
<trkpt lat="35.3264875" lon="24.5060795">
<ele>314.9691162</ele>
<time>2010-05-04T10:31:33Z</time>
</trkpt>
<trkpt lat="35.3265081" lon="24.5060901">
<ele>314.4884033</ele>
<time>2010-05-04T10:31:41Z</time>
</trkpt>
<trkpt lat="35.3265324" lon="24.5061047">
<ele>314.9691162</ele>
<time>2010-05-04T10:31:47Z</time>
</trkpt>
<trkpt lat="35.3266033" lon="24.5061359">
<ele>315.9304199</ele>
<time>2010-05-04T10:31:56Z</time>
</trkpt>
<trkpt lat="35.3266582" lon="24.5061456">
<ele>316.4110107</ele>
<time>2010-05-04T10:32:05Z</time>
</trkpt>
<trkpt lat="35.3266759" lon="24.5061157">
<ele>313.0465088</ele>
<time>2010-05-04T10:32:15Z</time>
</trkpt>
<trkpt lat="35.3267352" lon="24.5060986">
<ele>309.6818848</ele>
<time>2010-05-04T10:32:21Z</time>
</trkpt>
<trkpt lat="35.3267946" lon="24.5061006">
<ele>310.6430664</ele>
<time>2010-05-04T10:32:30Z</time>
</trkpt>
<trkpt lat="35.3267905" lon="24.5061204">
<ele>314.0078125</ele>
<time>2010-05-04T10:32:42Z</time>
</trkpt>
<trkpt lat="35.3268180" lon="24.5061053">
<ele>308.7204590</ele>
<time>2010-05-04T10:33:06Z</time>
</trkpt>
<trkpt lat="35.3269199" lon="24.5061297">
<ele>309.6818848</ele>
<time>2010-05-04T10:33:16Z</time>
</trkpt>
<trkpt lat="35.3270288" lon="24.5061228">
<ele>306.7978516</ele>
<time>2010-05-04T10:33:26Z</time>
</trkpt>
<trkpt lat="35.3271258" lon="24.5061011">
<ele>305.8366699</ele>
<time>2010-05-04T10:33:35Z</time>
</trkpt>
<trkpt lat="35.3272416" lon="24.5060789">
<ele>307.2785645</ele>
<time>2010-05-04T10:33:46Z</time>
</trkpt>
<trkpt lat="35.3272692" lon="24.5060917">
<ele>309.2011719</ele>
<time>2010-05-04T10:33:54Z</time>
</trkpt>
<trkpt lat="35.3272878" lon="24.5060918">
<ele>315.9304199</ele>
<time>2010-05-04T10:34:24Z</time>
</trkpt>
<trkpt lat="35.3273519" lon="24.5060587">
<ele>312.0852051</ele>
<time>2010-05-04T10:34:31Z</time>
</trkpt>
<trkpt lat="35.3274294" lon="24.5060354">
<ele>309.6818848</ele>
<time>2010-05-04T10:34:39Z</time>
</trkpt>
<trkpt lat="35.3274877" lon="24.5060438">
<ele>310.1624756</ele>
<time>2010-05-04T10:34:46Z</time>
</trkpt>
<trkpt lat="35.3275765" lon="24.5060468">
<ele>310.6430664</ele>
<time>2010-05-04T10:34:56Z</time>
</trkpt>
<trkpt lat="35.3276684" lon="24.5060828">
<ele>310.6430664</ele>
<time>2010-05-04T10:35:06Z</time>
</trkpt>
<trkpt lat="35.3277472" lon="24.5061140">
<ele>308.2398682</ele>
<time>2010-05-04T10:35:15Z</time>
</trkpt>
<trkpt lat="35.3278209" lon="24.5061508">
<ele>306.7978516</ele>
<time>2010-05-04T10:35:24Z</time>
</trkpt>
<trkpt lat="35.3279274" lon="24.5061954">
<ele>303.9139404</ele>
<time>2010-05-04T10:35:35Z</time>
</trkpt>
<trkpt lat="35.3280468" lon="24.5062208">
<ele>302.9525146</ele>
<time>2010-05-04T10:35:46Z</time>
</trkpt>
<trkpt lat="35.3281279" lon="24.5062678">
<ele>301.9913330</ele>
<time>2010-05-04T10:35:55Z</time>
</trkpt>
<trkpt lat="35.3282480" lon="24.5063275">
<ele>300.5493164</ele>
<time>2010-05-04T10:36:07Z</time>
</trkpt>
<trkpt lat="35.3283757" lon="24.5063424">
<ele>298.1461182</ele>
<time>2010-05-04T10:36:18Z</time>
</trkpt>
<trkpt lat="35.3284922" lon="24.5063840">
<ele>300.0687256</ele>
<time>2010-05-04T10:36:29Z</time>
</trkpt>
<trkpt lat="35.3286317" lon="24.5064513">
<ele>299.1072998</ele>
<time>2010-05-04T10:36:43Z</time>
</trkpt>
<trkpt lat="35.3287132" lon="24.5064508">
<ele>295.2619629</ele>
<time>2010-05-04T10:36:51Z</time>
</trkpt>
<trkpt lat="35.3287797" lon="24.5064555">
<ele>292.8587646</ele>
<time>2010-05-04T10:36:58Z</time>
</trkpt>
<trkpt lat="35.3288848" lon="24.5064555">
<ele>289.4941406</ele>
<time>2010-05-04T10:37:08Z</time>
</trkpt>
<trkpt lat="35.3290180" lon="24.5064912">
<ele>291.4167480</ele>
<time>2010-05-04T10:37:19Z</time>
</trkpt>
<trkpt lat="35.3291231" lon="24.5065244">
<ele>288.5329590</ele>
<time>2010-05-04T10:37:28Z</time>
</trkpt>
<trkpt lat="35.3292146" lon="24.5065863">
<ele>287.5714111</ele>
<time>2010-05-04T10:37:37Z</time>
</trkpt>
<trkpt lat="35.3293350" lon="24.5066450">
<ele>285.6488037</ele>
<time>2010-05-04T10:37:47Z</time>
</trkpt>
<trkpt lat="35.3294288" lon="24.5067110">
<ele>284.2069092</ele>
<time>2010-05-04T10:37:56Z</time>
</trkpt>
<trkpt lat="35.3295702" lon="24.5068389">
<ele>283.2456055</ele>
<time>2010-05-04T10:38:10Z</time>
</trkpt>
<trkpt lat="35.3296518" lon="24.5069311">
<ele>282.7650146</ele>
<time>2010-05-04T10:38:19Z</time>
</trkpt>
<trkpt lat="35.3297845" lon="24.5070266">
<ele>281.3229980</ele>
<time>2010-05-04T10:38:32Z</time>
</trkpt>
<trkpt lat="35.3297992" lon="24.5070527">
<ele>281.8035889</ele>
<time>2010-05-04T10:38:38Z</time>
</trkpt>
<trkpt lat="35.3297850" lon="24.5070839">
<ele>283.2456055</ele>
<time>2010-05-04T10:38:48Z</time>
</trkpt>
<trkpt lat="35.3298028" lon="24.5071216">
<ele>282.7650146</ele>
<time>2010-05-04T10:38:54Z</time>
</trkpt>
<trkpt lat="35.3298186" lon="24.5071188">
<ele>282.2843018</ele>
<time>2010-05-04T10:39:03Z</time>
</trkpt>
<trkpt lat="35.3298205" lon="24.5071161">
<ele>283.2456055</ele>
<time>2010-05-04T10:39:11Z</time>
</trkpt>
<trkpt lat="35.3298111" lon="24.5071101">
<ele>289.4941406</ele>
<time>2010-05-04T10:39:58Z</time>
</trkpt>
<trkpt lat="35.3298666" lon="24.5071375">
<ele>289.0135498</ele>
<time>2010-05-04T10:40:05Z</time>
</trkpt>
<trkpt lat="35.3299471" lon="24.5071676">
<ele>289.4941406</ele>
<time>2010-05-04T10:40:14Z</time>
</trkpt>
<trkpt lat="35.3300140" lon="24.5071890">
<ele>289.4941406</ele>
<time>2010-05-04T10:40:21Z</time>
</trkpt>
<trkpt lat="35.3301069" lon="24.5072216">
<ele>288.5329590</ele>
<time>2010-05-04T10:40:30Z</time>
</trkpt>
<trkpt lat="35.3301948" lon="24.5072750">
<ele>288.5329590</ele>
<time>2010-05-04T10:40:39Z</time>
</trkpt>
<trkpt lat="35.3303121" lon="24.5073076">
<ele>285.1682129</ele>
<time>2010-05-04T10:40:48Z</time>
</trkpt>
<trkpt lat="35.3304060" lon="24.5073755">
<ele>283.7261963</ele>
<time>2010-05-04T10:40:57Z</time>
</trkpt>
<trkpt lat="35.3305176" lon="24.5074660">
<ele>282.7650146</ele>
<time>2010-05-04T10:41:08Z</time>
</trkpt>
<trkpt lat="35.3306172" lon="24.5075465">
<ele>281.8035889</ele>
<time>2010-05-04T10:41:18Z</time>
</trkpt>
<trkpt lat="35.3307122" lon="24.5076050">
<ele>280.8424072</ele>
<time>2010-05-04T10:41:27Z</time>
</trkpt>
<trkpt lat="35.3308210" lon="24.5076857">
<ele>280.3616943</ele>
<time>2010-05-04T10:41:38Z</time>
</trkpt>
<trkpt lat="35.3309039" lon="24.5077275">
<ele>280.3616943</ele>
<time>2010-05-04T10:41:45Z</time>
</trkpt>
<trkpt lat="35.3310118" lon="24.5077607">
<ele>279.4002686</ele>
<time>2010-05-04T10:41:54Z</time>
</trkpt>
<trkpt lat="35.3311455" lon="24.5077515">
<ele>277.9582520</ele>
<time>2010-05-04T10:42:04Z</time>
</trkpt>
<trkpt lat="35.3312452" lon="24.5077474">
<ele>278.4389648</ele>
<time>2010-05-04T10:42:13Z</time>
</trkpt>
<trkpt lat="35.3312577" lon="24.5077552">
<ele>279.8808594</ele>
<time>2010-05-04T10:42:21Z</time>
</trkpt>
<trkpt lat="35.3312984" lon="24.5077552">
<ele>282.7650146</ele>
<time>2010-05-04T10:42:28Z</time>
</trkpt>
<trkpt lat="35.3314170" lon="24.5077348">
<ele>286.6102295</ele>
<time>2010-05-04T10:42:37Z</time>
</trkpt>
<trkpt lat="35.3315536" lon="24.5076876">
<ele>286.6102295</ele>
<time>2010-05-04T10:42:49Z</time>
</trkpt>
<trkpt lat="35.3316463" lon="24.5076406">
<ele>283.2456055</ele>
<time>2010-05-04T10:42:59Z</time>
</trkpt>
<trkpt lat="35.3317226" lon="24.5075784">
<ele>282.7650146</ele>
<time>2010-05-04T10:43:07Z</time>
</trkpt>
<trkpt lat="35.3317967" lon="24.5075205">
<ele>282.2843018</ele>
<time>2010-05-04T10:43:14Z</time>
</trkpt>
<trkpt lat="35.3319363" lon="24.5073843">
<ele>280.8424072</ele>
<time>2010-05-04T10:43:28Z</time>
</trkpt>
<trkpt lat="35.3320120" lon="24.5072724">
<ele>280.3616943</ele>
<time>2010-05-04T10:43:38Z</time>
</trkpt>
<trkpt lat="35.3320626" lon="24.5071755">
<ele>278.9196777</ele>
<time>2010-05-04T10:43:46Z</time>
</trkpt>
<trkpt lat="35.3321716" lon="24.5070465">
<ele>276.5163574</ele>
<time>2010-05-04T10:43:59Z</time>
</trkpt>
<trkpt lat="35.3322644" lon="24.5069684">
<ele>275.5550537</ele>
<time>2010-05-04T10:44:09Z</time>
</trkpt>
<trkpt lat="35.3323643" lon="24.5069316">
<ele>279.4002686</ele>
<time>2010-05-04T10:44:19Z</time>
</trkpt>
<trkpt lat="35.3324616" lon="24.5068966">
<ele>284.6876221</ele>
<time>2010-05-04T10:44:28Z</time>
</trkpt>
<trkpt lat="35.3325726" lon="24.5068840">
<ele>294.3007813</ele>
<time>2010-05-04T10:44:37Z</time>
</trkpt>
<trkpt lat="35.3326600" lon="24.5068471">
<ele>293.8200684</ele>
<time>2010-05-04T10:44:44Z</time>
</trkpt>
<trkpt lat="35.3327776" lon="24.5067623">
<ele>285.1682129</ele>
<time>2010-05-04T10:44:53Z</time>
</trkpt>
<trkpt lat="35.3329166" lon="24.5067392">
<ele>286.1295166</ele>
<time>2010-05-04T10:45:04Z</time>
</trkpt>
<trkpt lat="35.3330304" lon="24.5067134">
<ele>282.7650146</ele>
<time>2010-05-04T10:45:13Z</time>
</trkpt>
<trkpt lat="35.3331349" lon="24.5067087">
<ele>279.8808594</ele>
<time>2010-05-04T10:45:22Z</time>
</trkpt>
<trkpt lat="35.3332546" lon="24.5067136">
<ele>282.7650146</ele>
<time>2010-05-04T10:45:32Z</time>
</trkpt>
<trkpt lat="35.3332927" lon="24.5067016">
<ele>281.8035889</ele>
<time>2010-05-04T10:45:35Z</time>
</trkpt>
<trkpt lat="35.3333605" lon="24.5067543">
<ele>287.5714111</ele>
<time>2010-05-04T10:45:42Z</time>
</trkpt>
<trkpt lat="35.3334678" lon="24.5067653">
<ele>290.4555664</ele>
<time>2010-05-04T10:45:51Z</time>
</trkpt>
<trkpt lat="35.3335564" lon="24.5067741">
<ele>292.3781738</ele>
<time>2010-05-04T10:45:59Z</time>
</trkpt>
<trkpt lat="35.3336454" lon="24.5067759">
<ele>296.7041016</ele>
<time>2010-05-04T10:46:07Z</time>
</trkpt>
<trkpt lat="35.3337619" lon="24.5067005">
<ele>290.9361572</ele>
<time>2010-05-04T10:46:16Z</time>
</trkpt>
<trkpt lat="35.3338743" lon="24.5066219">
<ele>286.6102295</ele>
<time>2010-05-04T10:46:26Z</time>
</trkpt>
<trkpt lat="35.3339917" lon="24.5065436">
<ele>280.8424072</ele>
<time>2010-05-04T10:46:37Z</time>
</trkpt>
<trkpt lat="35.3340819" lon="24.5064855">
<ele>277.4776611</ele>
<time>2010-05-04T10:46:45Z</time>
</trkpt>
<trkpt lat="35.3341459" lon="24.5064501">
<ele>275.5550537</ele>
<time>2010-05-04T10:46:51Z</time>
</trkpt>
<trkpt lat="35.3342654" lon="24.5063426">
<ele>270.7484131</ele>
<time>2010-05-04T10:47:03Z</time>
</trkpt>
<trkpt lat="35.3343343" lon="24.5062320">
<ele>268.3450928</ele>
<time>2010-05-04T10:47:12Z</time>
</trkpt>
<trkpt lat="35.3343603" lon="24.5061225">
<ele>264.9805908</ele>
<time>2010-05-04T10:47:20Z</time>
</trkpt>
<trkpt lat="35.3344400" lon="24.5060536">
<ele>265.4613037</ele>
<time>2010-05-04T10:47:29Z</time>
</trkpt>
<trkpt lat="35.3344538" lon="24.5060534">
<ele>267.3839111</ele>
<time>2010-05-04T10:47:40Z</time>
</trkpt>
<trkpt lat="35.3344670" lon="24.5060560">
<ele>267.3839111</ele>
<time>2010-05-04T10:47:50Z</time>
</trkpt>
<trkpt lat="35.3344769" lon="24.5060514">
<ele>269.3065186</ele>
<time>2010-05-04T10:48:00Z</time>
</trkpt>
<trkpt lat="35.3344645" lon="24.5060699">
<ele>268.8258057</ele>
<time>2010-05-04T10:48:08Z</time>
</trkpt>
<trkpt lat="35.3344829" lon="24.5060696">
<ele>269.7871094</ele>
<time>2010-05-04T10:48:19Z</time>
</trkpt>
<trkpt lat="35.3344789" lon="24.5060692">
<ele>270.7484131</ele>
<time>2010-05-04T10:48:32Z</time>
</trkpt>
<trkpt lat="35.3344845" lon="24.5060715">
<ele>272.1904297</ele>
<time>2010-05-04T10:48:57Z</time>
</trkpt>
<trkpt lat="35.3345130" lon="24.5060664">
<ele>270.2677002</ele>
<time>2010-05-04T10:49:04Z</time>
</trkpt>
<trkpt lat="35.3345308" lon="24.5060654">
<ele>268.3450928</ele>
<time>2010-05-04T10:49:10Z</time>
</trkpt>
<trkpt lat="35.3345564" lon="24.5060949">
<ele>263.5385742</ele>
<time>2010-05-04T10:49:20Z</time>
</trkpt>
<trkpt lat="35.3345997" lon="24.5060425">
<ele>259.6933594</ele>
<time>2010-05-04T10:49:31Z</time>
</trkpt>
<trkpt lat="35.3346177" lon="24.5060117">
<ele>258.7319336</ele>
<time>2010-05-04T10:49:38Z</time>
</trkpt>
<trkpt lat="35.3346142" lon="24.5060041">
<ele>259.2126465</ele>
<time>2010-05-04T10:49:48Z</time>
</trkpt>
<trkpt lat="35.3346156" lon="24.5059566">
<ele>262.0965576</ele>
<time>2010-05-04T10:50:02Z</time>
</trkpt>
<trkpt lat="35.3346142" lon="24.5059205">
<ele>261.1352539</ele>
<time>2010-05-04T10:50:07Z</time>
</trkpt>
<trkpt lat="35.3346375" lon="24.5058706">
<ele>264.4998779</ele>
<time>2010-05-04T10:50:10Z</time>
</trkpt>
<trkpt lat="35.3346169" lon="24.5057918">
<ele>260.6545410</ele>
<time>2010-05-04T10:50:18Z</time>
</trkpt>
<trkpt lat="35.3346115" lon="24.5057700">
<ele>260.1739502</ele>
<time>2010-05-04T10:50:23Z</time>
</trkpt>
<trkpt lat="35.3346073" lon="24.5057886">
<ele>259.2126465</ele>
<time>2010-05-04T10:50:30Z</time>
</trkpt>
<trkpt lat="35.3346142" lon="24.5058043">
<ele>250.5607910</ele>
<time>2010-05-04T10:50:37Z</time>
</trkpt>
<trkpt lat="35.3345902" lon="24.5057527">
<ele>252.0028076</ele>
<time>2010-05-04T10:50:42Z</time>
</trkpt>
<trkpt lat="35.3346067" lon="24.5057152">
<ele>254.4060059</ele>
<time>2010-05-04T10:50:48Z</time>
</trkpt>
<trkpt lat="35.3346145" lon="24.5057639">
<ele>266.9031982</ele>
<time>2010-05-04T10:51:20Z</time>
</trkpt>
<trkpt lat="35.3346105" lon="24.5057851">
<ele>266.4224854</ele>
<time>2010-05-04T10:51:30Z</time>
</trkpt>
<trkpt lat="35.3346253" lon="24.5057254">
<ele>262.5771484</ele>
<time>2010-05-04T10:51:43Z</time>
</trkpt>
<trkpt lat="35.3346245" lon="24.5056955">
<ele>265.4613037</ele>
<time>2010-05-04T10:51:58Z</time>
</trkpt>
<trkpt lat="35.3346338" lon="24.5057195">
<ele>249.5994873</ele>
<time>2010-05-04T10:52:24Z</time>
</trkpt>
<trkpt lat="35.3346485" lon="24.5057313">
<ele>254.8865967</ele>
<time>2010-05-04T10:52:31Z</time>
</trkpt>
<trkpt lat="35.3346511" lon="24.5057366">
<ele>258.7319336</ele>
<time>2010-05-04T10:52:40Z</time>
</trkpt>
<trkpt lat="35.3346260" lon="24.5057525">
<ele>264.4998779</ele>
<time>2010-05-04T10:52:50Z</time>
</trkpt>
<trkpt lat="35.3346279" lon="24.5057601">
<ele>261.1352539</ele>
<time>2010-05-04T10:52:56Z</time>
</trkpt>
<trkpt lat="35.3346353" lon="24.5057567">
<ele>257.7707520</ele>
<time>2010-05-04T10:53:14Z</time>
</trkpt>
<trkpt lat="35.3346524" lon="24.5057551">
<ele>260.1739502</ele>
<time>2010-05-04T10:53:22Z</time>
</trkpt>
<trkpt lat="35.3346943" lon="24.5057789">
<ele>255.3673096</ele>
<time>2010-05-04T10:53:35Z</time>
</trkpt>
<trkpt lat="35.3346809" lon="24.5057572">
<ele>263.5385742</ele>
<time>2010-05-04T10:54:03Z</time>
</trkpt>
<trkpt lat="35.3346273" lon="24.5057449">
<ele>260.6545410</ele>
<time>2010-05-04T10:54:11Z</time>
</trkpt>
<trkpt lat="35.3346206" lon="24.5057104">
<ele>264.9805908</ele>
<time>2010-05-04T10:54:22Z</time>
</trkpt>
<trkpt lat="35.3345891" lon="24.5056715">
<ele>263.5385742</ele>
<time>2010-05-04T10:54:29Z</time>
</trkpt>
<trkpt lat="35.3345974" lon="24.5056924">
<ele>258.2513428</ele>
<time>2010-05-04T10:54:35Z</time>
</trkpt>
<trkpt lat="35.3346353" lon="24.5057256">
<ele>254.4060059</ele>
<time>2010-05-04T10:54:43Z</time>
</trkpt>
<trkpt lat="35.3346480" lon="24.5057555">
<ele>256.3287354</ele>
<time>2010-05-04T10:54:51Z</time>
</trkpt>
<trkpt lat="35.3346710" lon="24.5057734">
<ele>259.6933594</ele>
<time>2010-05-04T10:54:57Z</time>
</trkpt>
<trkpt lat="35.3346799" lon="24.5058151">
<ele>261.1352539</ele>
<time>2010-05-04T10:55:05Z</time>
</trkpt>
<trkpt lat="35.3346931" lon="24.5057974">
<ele>258.7319336</ele>
<time>2010-05-04T10:55:12Z</time>
</trkpt>
<trkpt lat="35.3346779" lon="24.5057500">
<ele>255.8480225</ele>
<time>2010-05-04T10:55:20Z</time>
</trkpt>
<trkpt lat="35.3346658" lon="24.5056571">
<ele>255.8480225</ele>
<time>2010-05-04T10:55:30Z</time>
</trkpt>
<trkpt lat="35.3346597" lon="24.5056065">
<ele>256.8093262</ele>
<time>2010-05-04T10:55:36Z</time>
</trkpt>
<trkpt lat="35.3346653" lon="24.5055335">
<ele>255.8480225</ele>
<time>2010-05-04T10:55:45Z</time>
</trkpt>
<trkpt lat="35.3346890" lon="24.5054610">
<ele>250.5607910</ele>
<time>2010-05-04T10:55:54Z</time>
</trkpt>
<trkpt lat="35.3347109" lon="24.5054323">
<ele>251.0413818</ele>
<time>2010-05-04T10:56:00Z</time>
</trkpt>
<trkpt lat="35.3347290" lon="24.5053794">
<ele>249.5994873</ele>
<time>2010-05-04T10:56:09Z</time>
</trkpt>
<trkpt lat="35.3347441" lon="24.5053505">
<ele>249.1187744</ele>
<time>2010-05-04T10:56:19Z</time>
</trkpt>
<trkpt lat="35.3347739" lon="24.5052967">
<ele>248.1575928</ele>
<time>2010-05-04T10:56:27Z</time>
</trkpt>
<trkpt lat="35.3347998" lon="24.5052453">
<ele>247.1960449</ele>
<time>2010-05-04T10:56:35Z</time>
</trkpt>
<trkpt lat="35.3348238" lon="24.5052076">
<ele>251.0413818</ele>
<time>2010-05-04T10:56:40Z</time>
</trkpt>
<trkpt lat="35.3348633" lon="24.5051786">
<ele>254.8865967</ele>
<time>2010-05-04T10:56:46Z</time>
</trkpt>
<trkpt lat="35.3348643" lon="24.5051709">
<ele>251.5220947</ele>
<time>2010-05-04T10:56:52Z</time>
</trkpt>
<trkpt lat="35.3348568" lon="24.5051409">
<ele>247.6767578</ele>
<time>2010-05-04T10:56:59Z</time>
</trkpt>
<trkpt lat="35.3348648" lon="24.5051205">
<ele>246.2348633</ele>
<time>2010-05-04T10:57:09Z</time>
</trkpt>
<trkpt lat="35.3349010" lon="24.5050905">
<ele>245.2734375</ele>
<time>2010-05-04T10:57:17Z</time>
</trkpt>
<trkpt lat="35.3348968" lon="24.5050811">
<ele>246.7154541</ele>
<time>2010-05-04T10:57:26Z</time>
</trkpt>
<trkpt lat="35.3349144" lon="24.5050631">
<ele>249.1187744</ele>
<time>2010-05-04T10:57:35Z</time>
</trkpt>
<trkpt lat="35.3349219" lon="24.5050411">
<ele>252.0028076</ele>
<time>2010-05-04T10:57:45Z</time>
</trkpt>
<trkpt lat="35.3349348" lon="24.5050164">
<ele>252.4833984</ele>
<time>2010-05-04T10:57:55Z</time>
</trkpt>
<trkpt lat="35.3349689" lon="24.5049558">
<ele>250.5607910</ele>
<time>2010-05-04T10:58:01Z</time>
</trkpt>
<trkpt lat="35.3349953" lon="24.5049170">
<ele>251.0413818</ele>
<time>2010-05-04T10:58:07Z</time>
</trkpt>
<trkpt lat="35.3349980" lon="24.5049117">
<ele>251.5220947</ele>
<time>2010-05-04T10:58:09Z</time>
</trkpt>
<trkpt lat="35.3350601" lon="24.5048460">
<ele>253.4447021</ele>
<time>2010-05-04T10:58:17Z</time>
</trkpt>
<trkpt lat="35.3350666" lon="24.5048174">
<ele>253.4447021</ele>
<time>2010-05-04T10:58:19Z</time>
</trkpt>
<trkpt lat="35.3351005" lon="24.5047661">
<ele>252.4833984</ele>
<time>2010-05-04T10:58:27Z</time>
</trkpt>
<trkpt lat="35.3351129" lon="24.5047316">
<ele>251.0413818</ele>
<time>2010-05-04T10:58:33Z</time>
</trkpt>
<trkpt lat="35.3351077" lon="24.5047278">
<ele>249.1187744</ele>
<time>2010-05-04T10:58:41Z</time>
</trkpt>
<trkpt lat="35.3350937" lon="24.5046999">
<ele>249.1187744</ele>
<time>2010-05-04T10:58:48Z</time>
</trkpt>
<trkpt lat="35.3351080" lon="24.5046839">
<ele>249.1187744</ele>
<time>2010-05-04T10:58:58Z</time>
</trkpt>
<trkpt lat="35.3351005" lon="24.5046932">
<ele>247.1960449</ele>
<time>2010-05-04T10:59:06Z</time>
</trkpt>
<trkpt lat="35.3351044" lon="24.5046776">
<ele>246.2348633</ele>
<time>2010-05-04T10:59:11Z</time>
</trkpt>
<trkpt lat="35.3351331" lon="24.5046426">
<ele>246.2348633</ele>
<time>2010-05-04T10:59:19Z</time>
</trkpt>
<trkpt lat="35.3351570" lon="24.5045830">
<ele>250.0802002</ele>
<time>2010-05-04T10:59:26Z</time>
</trkpt>
<trkpt lat="35.3351771" lon="24.5045716">
<ele>249.5994873</ele>
<time>2010-05-04T10:59:33Z</time>
</trkpt>
<trkpt lat="35.3351980" lon="24.5045509">
<ele>247.6767578</ele>
<time>2010-05-04T10:59:39Z</time>
</trkpt>
<trkpt lat="35.3352181" lon="24.5045360">
<ele>243.8315430</ele>
<time>2010-05-04T10:59:49Z</time>
</trkpt>
<trkpt lat="35.3352377" lon="24.5045155">
<ele>244.3122559</ele>
<time>2010-05-04T10:59:56Z</time>
</trkpt>
<trkpt lat="35.3352807" lon="24.5044823">
<ele>245.7541504</ele>
<time>2010-05-04T11:00:01Z</time>
</trkpt>
<trkpt lat="35.3353702" lon="24.5044197">
<ele>250.0802002</ele>
<time>2010-05-04T11:00:08Z</time>
</trkpt>
<trkpt lat="35.3354216" lon="24.5043957">
<ele>250.5607910</ele>
<time>2010-05-04T11:00:14Z</time>
</trkpt>
<trkpt lat="35.3354813" lon="24.5043985">
<ele>249.1187744</ele>
<time>2010-05-04T11:00:20Z</time>
</trkpt>
<trkpt lat="35.3355049" lon="24.5043929">
<ele>248.6381836</ele>
<time>2010-05-04T11:00:22Z</time>
</trkpt>
<trkpt lat="35.3355346" lon="24.5043858">
<ele>248.1575928</ele>
<time>2010-05-04T11:00:25Z</time>
</trkpt>
<trkpt lat="35.3355579" lon="24.5044205">
<ele>245.7541504</ele>
<time>2010-05-04T11:00:32Z</time>
</trkpt>
<trkpt lat="35.3355587" lon="24.5044444">
<ele>250.0802002</ele>
<time>2010-05-04T11:00:42Z</time>
</trkpt>
<trkpt lat="35.3355755" lon="24.5044689">
<ele>250.5607910</ele>
<time>2010-05-04T11:00:50Z</time>
</trkpt>
<trkpt lat="35.3355956" lon="24.5045207">
<ele>250.5607910</ele>
<time>2010-05-04T11:00:56Z</time>
</trkpt>
<trkpt lat="35.3356320" lon="24.5045343">
<ele>250.5607910</ele>
<time>2010-05-04T11:01:01Z</time>
</trkpt>
<trkpt lat="35.3356659" lon="24.5045342">
<ele>251.0413818</ele>
<time>2010-05-04T11:01:07Z</time>
</trkpt>
<trkpt lat="35.3356856" lon="24.5045502">
<ele>251.0413818</ele>
<time>2010-05-04T11:01:12Z</time>
</trkpt>
<trkpt lat="35.3357117" lon="24.5045725">
<ele>247.6767578</ele>
<time>2010-05-04T11:01:18Z</time>
</trkpt>
<trkpt lat="35.3357635" lon="24.5046156">
<ele>241.9089355</ele>
<time>2010-05-04T11:01:25Z</time>
</trkpt>
<trkpt lat="35.3358229" lon="24.5046315">
<ele>240.4670410</ele>
<time>2010-05-04T11:01:31Z</time>
</trkpt>
<trkpt lat="35.3358740" lon="24.5046492">
<ele>239.5054932</ele>
<time>2010-05-04T11:01:37Z</time>
</trkpt>
<trkpt lat="35.3359515" lon="24.5046539">
<ele>239.5054932</ele>
<time>2010-05-04T11:01:45Z</time>
</trkpt>
<trkpt lat="35.3360405" lon="24.5046932">
<ele>238.5443115</ele>
<time>2010-05-04T11:01:54Z</time>
</trkpt>
<trkpt lat="35.3360613" lon="24.5047767">
<ele>236.6217041</ele>
<time>2010-05-04T11:02:01Z</time>
</trkpt>
<trkpt lat="35.3361301" lon="24.5048356">
<ele>239.9862061</ele>
<time>2010-05-04T11:02:10Z</time>
</trkpt>
<trkpt lat="35.3361768" lon="24.5048444">
<ele>243.3508301</ele>
<time>2010-05-04T11:02:16Z</time>
</trkpt>
<trkpt lat="35.3362145" lon="24.5048440">
<ele>247.6767578</ele>
<time>2010-05-04T11:02:23Z</time>
</trkpt>
<trkpt lat="35.3362195" lon="24.5048724">
<ele>244.3122559</ele>
<time>2010-05-04T11:02:32Z</time>
</trkpt>
<trkpt lat="35.3362987" lon="24.5049247">
<ele>246.7154541</ele>
<time>2010-05-04T11:02:39Z</time>
</trkpt>
<trkpt lat="35.3363676" lon="24.5049299">
<ele>247.6767578</ele>
<time>2010-05-04T11:02:43Z</time>
</trkpt>
<trkpt lat="35.3363855" lon="24.5049292">
<ele>246.2348633</ele>
<time>2010-05-04T11:02:45Z</time>
</trkpt>
<trkpt lat="35.3364229" lon="24.5048700">
<ele>248.1575928</ele>
<time>2010-05-04T11:02:50Z</time>
</trkpt>
<trkpt lat="35.3364362" lon="24.5048510">
<ele>248.6381836</ele>
<time>2010-05-04T11:02:52Z</time>
</trkpt>
<trkpt lat="35.3364945" lon="24.5048558">
<ele>248.6381836</ele>
<time>2010-05-04T11:03:00Z</time>
</trkpt>
<trkpt lat="35.3365773" lon="24.5048402">
<ele>246.7154541</ele>
<time>2010-05-04T11:03:11Z</time>
</trkpt>
<trkpt lat="35.3366431" lon="24.5048665">
<ele>242.8702393</ele>
<time>2010-05-04T11:03:18Z</time>
</trkpt>
<trkpt lat="35.3366757" lon="24.5048629">
<ele>242.8702393</ele>
<time>2010-05-04T11:03:21Z</time>
</trkpt>
<trkpt lat="35.3367742" lon="24.5048708">
<ele>244.3122559</ele>
<time>2010-05-04T11:03:32Z</time>
</trkpt>
<trkpt lat="35.3368411" lon="24.5049088">
<ele>246.7154541</ele>
<time>2010-05-04T11:03:40Z</time>
</trkpt>
<trkpt lat="35.3369278" lon="24.5049124">
<ele>246.7154541</ele>
<time>2010-05-04T11:03:49Z</time>
</trkpt>
<trkpt lat="35.3370207" lon="24.5049039">
<ele>247.1960449</ele>
<time>2010-05-04T11:03:58Z</time>
</trkpt>
<trkpt lat="35.3370855" lon="24.5049433">
<ele>242.8702393</ele>
<time>2010-05-04T11:04:07Z</time>
</trkpt>
<trkpt lat="35.3371015" lon="24.5049340">
<ele>238.5443115</ele>
<time>2010-05-04T11:04:20Z</time>
</trkpt>
<trkpt lat="35.3371436" lon="24.5049218">
<ele>242.8702393</ele>
<time>2010-05-04T11:04:32Z</time>
</trkpt>
<trkpt lat="35.3371327" lon="24.5049059">
<ele>241.9089355</ele>
<time>2010-05-04T11:04:42Z</time>
</trkpt>
<trkpt lat="35.3371170" lon="24.5049382">
<ele>237.5828857</ele>
<time>2010-05-04T11:04:56Z</time>
</trkpt>
<trkpt lat="35.3371088" lon="24.5049180">
<ele>237.5828857</ele>
<time>2010-05-04T11:05:03Z</time>
</trkpt>
<trkpt lat="35.3371060" lon="24.5048968">
<ele>235.6602783</ele>
<time>2010-05-04T11:05:11Z</time>
</trkpt>
<trkpt lat="35.3371321" lon="24.5048207">
<ele>239.5054932</ele>
<time>2010-05-04T11:05:36Z</time>
</trkpt>
<trkpt lat="35.3371150" lon="24.5048424">
<ele>235.6602783</ele>
<time>2010-05-04T11:05:59Z</time>
</trkpt>
<trkpt lat="35.3371145" lon="24.5048361">
<ele>236.1409912</ele>
<time>2010-05-04T11:06:06Z</time>
</trkpt>
<trkpt lat="35.3371112" lon="24.5048383">
<ele>236.1409912</ele>
<time>2010-05-04T11:06:13Z</time>
</trkpt>
<trkpt lat="35.3371088" lon="24.5048325">
<ele>234.2183838</ele>
<time>2010-05-04T11:06:21Z</time>
</trkpt>
<trkpt lat="35.3371174" lon="24.5048498">
<ele>230.3730469</ele>
<time>2010-05-04T11:06:36Z</time>
</trkpt>
<trkpt lat="35.3371329" lon="24.5048377">
<ele>236.6217041</ele>
<time>2010-05-04T11:07:10Z</time>
</trkpt>
<trkpt lat="35.3371166" lon="24.5048408">
<ele>237.1022949</ele>
<time>2010-05-04T11:07:16Z</time>
</trkpt>
<trkpt lat="35.3371161" lon="24.5048319">
<ele>235.1796875</ele>
<time>2010-05-04T11:07:24Z</time>
</trkpt>
<trkpt lat="35.3371096" lon="24.5048363">
<ele>236.6217041</ele>
<time>2010-05-04T11:07:41Z</time>
</trkpt>
<trkpt lat="35.3371295" lon="24.5048455">
<ele>245.7541504</ele>
<time>2010-05-04T11:08:21Z</time>
</trkpt>
</trkseg>
<trkseg>
<trkpt lat="35.3393320" lon="24.5059354">
<ele>207.3013916</ele>
<time>2010-05-04T11:55:18Z</time>
</trkpt>
<trkpt lat="35.3393552" lon="24.5060041">
<ele>207.3013916</ele>
<time>2010-05-04T11:55:24Z</time>
</trkpt>
<trkpt lat="35.3393865" lon="24.5060250">
<ele>207.7821045</ele>
<time>2010-05-04T11:55:27Z</time>
</trkpt>
<trkpt lat="35.3394372" lon="24.5060815">
<ele>206.8206787</ele>
<time>2010-05-04T11:55:35Z</time>
</trkpt>
<trkpt lat="35.3395019" lon="24.5061332">
<ele>205.8594971</ele>
<time>2010-05-04T11:55:42Z</time>
</trkpt>
<trkpt lat="35.3395639" lon="24.5061711">
<ele>202.9754639</ele>
<time>2010-05-04T11:55:51Z</time>
</trkpt>
<trkpt lat="35.3396218" lon="24.5061818">
<ele>202.0142822</ele>
<time>2010-05-04T11:55:58Z</time>
</trkpt>
<trkpt lat="35.3396960" lon="24.5061820">
<ele>203.9368896</ele>
<time>2010-05-04T11:56:14Z</time>
</trkpt>
<trkpt lat="35.3397316" lon="24.5061958">
<ele>202.4948730</ele>
<time>2010-05-04T11:56:20Z</time>
</trkpt>
<trkpt lat="35.3397993" lon="24.5062118">
<ele>200.0916748</ele>
<time>2010-05-04T11:56:27Z</time>
</trkpt>
<trkpt lat="35.3398387" lon="24.5062170">
<ele>198.6495361</ele>
<time>2010-05-04T11:56:31Z</time>
</trkpt>
<trkpt lat="35.3398786" lon="24.5062054">
<ele>200.5722656</ele>
<time>2010-05-04T11:56:38Z</time>
</trkpt>
<trkpt lat="35.3399075" lon="24.5061663">
<ele>206.8206787</ele>
<time>2010-05-04T11:56:48Z</time>
</trkpt>
<trkpt lat="35.3399530" lon="24.5061935">
<ele>205.3787842</ele>
<time>2010-05-04T11:56:59Z</time>
</trkpt>
<trkpt lat="35.3399853" lon="24.5062295">
<ele>201.0528564</ele>
<time>2010-05-04T11:57:08Z</time>
</trkpt>
<trkpt lat="35.3400061" lon="24.5062579">
<ele>196.2463379</ele>
<time>2010-05-04T11:57:29Z</time>
</trkpt>
<trkpt lat="35.3400162" lon="24.5062654">
<ele>195.2849121</ele>
<time>2010-05-04T11:57:41Z</time>
</trkpt>
<trkpt lat="35.3400374" lon="24.5062675">
<ele>193.8430176</ele>
<time>2010-05-04T11:57:50Z</time>
</trkpt>
<trkpt lat="35.3400402" lon="24.5062535">
<ele>194.3237305</ele>
<time>2010-05-04T11:58:06Z</time>
</trkpt>
<trkpt lat="35.3400328" lon="24.5062676">
<ele>194.3237305</ele>
<time>2010-05-04T11:58:33Z</time>
</trkpt>
<trkpt lat="35.3400350" lon="24.5062576">
<ele>196.2463379</ele>
<time>2010-05-04T11:58:42Z</time>
</trkpt>
<trkpt lat="35.3400266" lon="24.5063027">
<ele>193.8430176</ele>
<time>2010-05-04T11:59:03Z</time>
</trkpt>
<trkpt lat="35.3400288" lon="24.5063392">
<ele>193.3623047</ele>
<time>2010-05-04T11:59:09Z</time>
</trkpt>
<trkpt lat="35.3400330" lon="24.5063861">
<ele>195.7656250</ele>
<time>2010-05-04T11:59:17Z</time>
</trkpt>
<trkpt lat="35.3400606" lon="24.5063749">
<ele>198.1689453</ele>
<time>2010-05-04T11:59:25Z</time>
</trkpt>
<trkpt lat="35.3399967" lon="24.5064783">
<ele>198.6495361</ele>
<time>2010-05-04T11:59:57Z</time>
</trkpt>
<trkpt lat="35.3400310" lon="24.5064428">
<ele>209.7048340</ele>
<time>2010-05-04T12:00:05Z</time>
</trkpt>
<trkpt lat="35.3398864" lon="24.5064138">
<ele>201.0528564</ele>
<time>2010-05-04T12:00:25Z</time>
</trkpt>
<trkpt lat="35.3398505" lon="24.5065908">
<ele>190.4783936</ele>
<time>2010-05-04T12:00:38Z</time>
</trkpt>
<trkpt lat="35.3400276" lon="24.5065083">
<ele>195.2849121</ele>
<time>2010-05-04T12:00:46Z</time>
</trkpt>
<trkpt lat="35.3400355" lon="24.5063151">
<ele>194.8043213</ele>
<time>2010-05-04T12:01:33Z</time>
</trkpt>
<trkpt lat="35.3400796" lon="24.5063415">
<ele>193.3623047</ele>
<time>2010-05-04T12:01:39Z</time>
</trkpt>
<trkpt lat="35.3401289" lon="24.5063663">
<ele>192.8817139</ele>
<time>2010-05-04T12:01:44Z</time>
</trkpt>
<trkpt lat="35.3401401" lon="24.5063654">
<ele>192.4011230</ele>
<time>2010-05-04T12:01:45Z</time>
</trkpt>
<trkpt lat="35.3401970" lon="24.5063752">
<ele>190.4783936</ele>
<time>2010-05-04T12:01:51Z</time>
</trkpt>
<trkpt lat="35.3402504" lon="24.5063670">
<ele>190.9589844</ele>
<time>2010-05-04T12:01:57Z</time>
</trkpt>
<trkpt lat="35.3403298" lon="24.5063685">
<ele>192.8817139</ele>
<time>2010-05-04T12:02:04Z</time>
</trkpt>
<trkpt lat="35.3403520" lon="24.5063494">
<ele>192.4011230</ele>
<time>2010-05-04T12:02:09Z</time>
</trkpt>
<trkpt lat="35.3403685" lon="24.5063203">
<ele>197.6882324</ele>
<time>2010-05-04T12:02:15Z</time>
</trkpt>
<trkpt lat="35.3404026" lon="24.5063193">
<ele>198.6495361</ele>
<time>2010-05-04T12:02:34Z</time>
</trkpt>
<trkpt lat="35.3404494" lon="24.5063305">
<ele>196.2463379</ele>
<time>2010-05-04T12:02:42Z</time>
</trkpt>
<trkpt lat="35.3404946" lon="24.5063348">
<ele>189.5169678</ele>
<time>2010-05-04T12:02:51Z</time>
</trkpt>
<trkpt lat="35.3405301" lon="24.5063510">
<ele>187.1137695</ele>
<time>2010-05-04T12:02:57Z</time>
</trkpt>
<trkpt lat="35.3405748" lon="24.5063482">
<ele>190.4783936</ele>
<time>2010-05-04T12:03:03Z</time>
</trkpt>
<trkpt lat="35.3406432" lon="24.5063812">
<ele>194.8043213</ele>
<time>2010-05-04T12:03:20Z</time>
</trkpt>
<trkpt lat="35.3406778" lon="24.5063576">
<ele>197.2075195</ele>
<time>2010-05-04T12:03:24Z</time>
</trkpt>
<trkpt lat="35.3407616" lon="24.5063695">
<ele>197.6882324</ele>
<time>2010-05-04T12:03:32Z</time>
</trkpt>
<trkpt lat="35.3407975" lon="24.5064213">
<ele>200.0916748</ele>
<time>2010-05-04T12:03:38Z</time>
</trkpt>
<trkpt lat="35.3408560" lon="24.5064312">
<ele>201.5335693</ele>
<time>2010-05-04T12:03:44Z</time>
</trkpt>
<trkpt lat="35.3408908" lon="24.5064185">
<ele>204.8980713</ele>
<time>2010-05-04T12:03:48Z</time>
</trkpt>
<trkpt lat="35.3409605" lon="24.5064223">
<ele>214.0306396</ele>
<time>2010-05-04T12:04:02Z</time>
</trkpt>
<trkpt lat="35.3409928" lon="24.5064606">
<ele>212.5886230</ele>
<time>2010-05-04T12:04:11Z</time>
</trkpt>
<trkpt lat="35.3410047" lon="24.5065229">
<ele>205.8594971</ele>
<time>2010-05-04T12:04:19Z</time>
</trkpt>
<trkpt lat="35.3410445" lon="24.5065439">
<ele>204.4174805</ele>
<time>2010-05-04T12:04:24Z</time>
</trkpt>
<trkpt lat="35.3410874" lon="24.5065425">
<ele>202.4948730</ele>
<time>2010-05-04T12:04:30Z</time>
</trkpt>
<trkpt lat="35.3411176" lon="24.5065437">
<ele>202.9754639</ele>
<time>2010-05-04T12:04:34Z</time>
</trkpt>
<trkpt lat="35.3411753" lon="24.5064907">
<ele>215.4726563</ele>
<time>2010-05-04T12:04:39Z</time>
</trkpt>
<trkpt lat="35.3412934" lon="24.5064307">
<ele>266.4224854</ele>
<time>2010-05-04T12:04:57Z</time>
</trkpt>
<trkpt lat="35.3413715" lon="24.5064348">
<ele>269.3065186</ele>
<time>2010-05-04T12:05:11Z</time>
</trkpt>
<trkpt lat="35.3414068" lon="24.5064537">
<ele>255.8480225</ele>
<time>2010-05-04T12:05:17Z</time>
</trkpt>
<trkpt lat="35.3414491" lon="24.5064679">
<ele>242.3896484</ele>
<time>2010-05-04T12:05:26Z</time>
</trkpt>
<trkpt lat="35.3414616" lon="24.5065114">
<ele>238.5443115</ele>
<time>2010-05-04T12:05:28Z</time>
</trkpt>
<trkpt lat="35.3414565" lon="24.5066175">
<ele>227.4891357</ele>
<time>2010-05-04T12:05:33Z</time>
</trkpt>
<trkpt lat="35.3414698" lon="24.5066473">
<ele>225.0859375</ele>
<time>2010-05-04T12:05:37Z</time>
</trkpt>
<trkpt lat="35.3415340" lon="24.5067229">
<ele>214.5112305</ele>
<time>2010-05-04T12:06:07Z</time>
</trkpt>
<trkpt lat="35.3415642" lon="24.5067786">
<ele>209.2241211</ele>
<time>2010-05-04T12:06:12Z</time>
</trkpt>
<trkpt lat="35.3415895" lon="24.5068336">
<ele>207.3013916</ele>
<time>2010-05-04T12:06:17Z</time>
</trkpt>
<trkpt lat="35.3416030" lon="24.5069201">
<ele>200.5722656</ele>
<time>2010-05-04T12:06:24Z</time>
</trkpt>
<trkpt lat="35.3416259" lon="24.5069631">
<ele>192.8817139</ele>
<time>2010-05-04T12:06:29Z</time>
</trkpt>
<trkpt lat="35.3416562" lon="24.5069900">
<ele>185.6717529</ele>
<time>2010-05-04T12:06:35Z</time>
</trkpt>
<trkpt lat="35.3417253" lon="24.5070038">
<ele>172.2132568</ele>
<time>2010-05-04T12:06:45Z</time>
</trkpt>
<trkpt lat="35.3417553" lon="24.5069463">
<ele>162.6000977</ele>
<time>2010-05-04T12:07:43Z</time>
</trkpt>
<trkpt lat="35.3418349" lon="24.5069874">
<ele>165.4841309</ele>
<time>2010-05-04T12:07:50Z</time>
</trkpt>
<trkpt lat="35.3418750" lon="24.5069811">
<ele>169.3294678</ele>
<time>2010-05-04T12:07:56Z</time>
</trkpt>
<trkpt lat="35.3417834" lon="24.5070906">
<ele>201.5335693</ele>
<time>2010-05-04T12:08:15Z</time>
</trkpt>
<trkpt lat="35.3417682" lon="24.5071014">
<ele>202.9754639</ele>
<time>2010-05-04T12:08:19Z</time>
</trkpt>
<trkpt lat="35.3417414" lon="24.5071601">
<ele>208.2628174</ele>
<time>2010-05-04T12:08:29Z</time>
</trkpt>
<trkpt lat="35.3416241" lon="24.5072730">
<ele>215.4726563</ele>
<time>2010-05-04T12:08:43Z</time>
</trkpt>
<trkpt lat="35.3416143" lon="24.5072802">
<ele>213.0693359</ele>
<time>2010-05-04T12:08:49Z</time>
</trkpt>
<trkpt lat="35.3417013" lon="24.5073044">
<ele>219.7985840</ele>
<time>2010-05-04T12:09:01Z</time>
</trkpt>
<trkpt lat="35.3417921" lon="24.5073656">
<ele>222.2017822</ele>
<time>2010-05-04T12:09:09Z</time>
</trkpt>
<trkpt lat="35.3418884" lon="24.5074071">
<ele>223.6437988</ele>
<time>2010-05-04T12:09:17Z</time>
</trkpt>
<trkpt lat="35.3420206" lon="24.5074405">
<ele>215.4726563</ele>
<time>2010-05-04T12:09:26Z</time>
</trkpt>
<trkpt lat="35.3420968" lon="24.5074944">
<ele>216.9146729</ele>
<time>2010-05-04T12:09:34Z</time>
</trkpt>
<trkpt lat="35.3422111" lon="24.5075463">
<ele>220.7598877</ele>
<time>2010-05-04T12:09:42Z</time>
</trkpt>
<trkpt lat="35.3422556" lon="24.5075552">
<ele>219.7985840</ele>
<time>2010-05-04T12:09:46Z</time>
</trkpt>
<trkpt lat="35.3422029" lon="24.5075623">
<ele>219.7985840</ele>
<time>2010-05-04T12:09:52Z</time>
</trkpt>
<trkpt lat="35.3421283" lon="24.5078049">
<ele>220.7598877</ele>
<time>2010-05-04T12:10:20Z</time>
</trkpt>
<trkpt lat="35.3422696" lon="24.5078723">
<ele>222.6824951</ele>
<time>2010-05-04T12:10:25Z</time>
</trkpt>
<trkpt lat="35.3419843" lon="24.5080344">
<ele>238.0635986</ele>
<time>2010-05-04T12:10:32Z</time>
</trkpt>
<trkpt lat="35.3419485" lon="24.5080753">
<ele>248.6381836</ele>
<time>2010-05-04T12:10:45Z</time>
</trkpt>
<trkpt lat="35.3420141" lon="24.5078707">
<ele>244.7928467</ele>
<time>2010-05-04T12:10:56Z</time>
</trkpt>
<trkpt lat="35.3420372" lon="24.5078405">
<ele>237.5828857</ele>
<time>2010-05-04T12:11:04Z</time>
</trkpt>
<trkpt lat="35.3420717" lon="24.5078202">
<ele>230.3730469</ele>
<time>2010-05-04T12:11:14Z</time>
</trkpt>
<trkpt lat="35.3421121" lon="24.5077739">
<ele>227.4891357</ele>
<time>2010-05-04T12:11:20Z</time>
</trkpt>
<trkpt lat="35.3421478" lon="24.5077677">
<ele>227.4891357</ele>
<time>2010-05-04T12:11:32Z</time>
</trkpt>
<trkpt lat="35.3421207" lon="24.5078100">
<ele>229.8923340</ele>
<time>2010-05-04T12:11:37Z</time>
</trkpt>
<trkpt lat="35.3421180" lon="24.5078164">
<ele>230.3730469</ele>
<time>2010-05-04T12:11:38Z</time>
</trkpt>
<trkpt lat="35.3421113" lon="24.5078633">
<ele>234.6990967</ele>
<time>2010-05-04T12:11:45Z</time>
</trkpt>
<trkpt lat="35.3422521" lon="24.5077971">
<ele>229.4117432</ele>
<time>2010-05-04T12:11:52Z</time>
</trkpt>
<trkpt lat="35.3423051" lon="24.5077909">
<ele>230.3730469</ele>
<time>2010-05-04T12:11:59Z</time>
</trkpt>
<trkpt lat="35.3423355" lon="24.5078204">
<ele>230.3730469</ele>
<time>2010-05-04T12:12:03Z</time>
</trkpt>
<trkpt lat="35.3424028" lon="24.5078722">
<ele>226.5278320</ele>
<time>2010-05-04T12:12:10Z</time>
</trkpt>
<trkpt lat="35.3424750" lon="24.5079028">
<ele>221.2406006</ele>
<time>2010-05-04T12:12:16Z</time>
</trkpt>
<trkpt lat="35.3424308" lon="24.5079727">
<ele>234.2183838</ele>
<time>2010-05-04T12:12:17Z</time>
</trkpt>
<trkpt lat="35.3425096" lon="24.5079313">
<ele>224.6052246</ele>
<time>2010-05-04T12:12:23Z</time>
</trkpt>
<trkpt lat="35.3426006" lon="24.5079023">
<ele>211.1467285</ele>
<time>2010-05-04T12:12:28Z</time>
</trkpt>
<trkpt lat="35.3428463" lon="24.5077624">
<ele>170.7713623</ele>
<time>2010-05-04T12:12:36Z</time>
</trkpt>
<trkpt lat="35.3430264" lon="24.5076840">
<ele>143.3736572</ele>
<time>2010-05-04T12:12:43Z</time>
</trkpt>
<trkpt lat="35.3431286" lon="24.5076801">
<ele>130.8767090</ele>
<time>2010-05-04T12:12:49Z</time>
</trkpt>
<trkpt lat="35.3432110" lon="24.5077069">
<ele>128.4733887</ele>
<time>2010-05-04T12:12:56Z</time>
</trkpt>
<trkpt lat="35.3432684" lon="24.5077456">
<ele>129.4346924</ele>
<time>2010-05-04T12:13:03Z</time>
</trkpt>
<trkpt lat="35.3432691" lon="24.5077582">
<ele>130.8767090</ele>
<time>2010-05-04T12:13:10Z</time>
</trkpt>
<trkpt lat="35.3433114" lon="24.5077723">
<ele>131.3572998</ele>
<time>2010-05-04T12:13:29Z</time>
</trkpt>
<trkpt lat="35.3433601" lon="24.5077741">
<ele>131.8378906</ele>
<time>2010-05-04T12:13:34Z</time>
</trkpt>
<trkpt lat="35.3433865" lon="24.5078027">
<ele>130.3959961</ele>
<time>2010-05-04T12:13:39Z</time>
</trkpt>
<trkpt lat="35.3434213" lon="24.5078334">
<ele>128.9541016</ele>
<time>2010-05-04T12:13:43Z</time>
</trkpt>
<trkpt lat="35.3434746" lon="24.5078385">
<ele>129.4346924</ele>
<time>2010-05-04T12:13:49Z</time>
</trkpt>
<trkpt lat="35.3435112" lon="24.5078563">
<ele>129.4346924</ele>
<time>2010-05-04T12:13:59Z</time>
</trkpt>
<trkpt lat="35.3435155" lon="24.5078873">
<ele>130.3959961</ele>
<time>2010-05-04T12:14:26Z</time>
</trkpt>
<trkpt lat="35.3435317" lon="24.5079188">
<ele>129.4346924</ele>
<time>2010-05-04T12:14:34Z</time>
</trkpt>
<trkpt lat="35.3435773" lon="24.5079340">
<ele>129.4346924</ele>
<time>2010-05-04T12:14:43Z</time>
</trkpt>
<trkpt lat="35.3436859" lon="24.5080070">
<ele>125.1087646</ele>
<time>2010-05-04T12:15:35Z</time>
</trkpt>
<trkpt lat="35.3436474" lon="24.5080355">
<ele>125.5893555</ele>
<time>2010-05-04T12:16:09Z</time>
</trkpt>
<trkpt lat="35.3436296" lon="24.5080276">
<ele>121.7441406</ele>
<time>2010-05-04T12:16:18Z</time>
</trkpt>
<trkpt lat="35.3436140" lon="24.5080551">
<ele>121.7441406</ele>
<time>2010-05-04T12:16:23Z</time>
</trkpt>
<trkpt lat="35.3436246" lon="24.5080613">
<ele>121.2635498</ele>
<time>2010-05-04T12:16:25Z</time>
</trkpt>
<trkpt lat="35.3436317" lon="24.5080860">
<ele>113.5729980</ele>
<time>2010-05-04T12:16:33Z</time>
</trkpt>
<trkpt lat="35.3435853" lon="24.5081225">
<ele>111.1695557</ele>
<time>2010-05-04T12:16:42Z</time>
</trkpt>
<trkpt lat="35.3435730" lon="24.5081332">
<ele>112.6115723</ele>
<time>2010-05-04T12:16:43Z</time>
</trkpt>
<trkpt lat="35.3435507" lon="24.5081836">
<ele>114.5341797</ele>
<time>2010-05-04T12:16:50Z</time>
</trkpt>
<trkpt lat="35.3435091" lon="24.5082006">
<ele>112.1309814</ele>
<time>2010-05-04T12:16:57Z</time>
</trkpt>
<trkpt lat="35.3434962" lon="24.5081989">
<ele>112.1309814</ele>
<time>2010-05-04T12:16:59Z</time>
</trkpt>
<trkpt lat="35.3434295" lon="24.5082041">
<ele>115.9761963</ele>
<time>2010-05-04T12:17:07Z</time>
</trkpt>
<trkpt lat="35.3434099" lon="24.5082618">
<ele>119.8214111</ele>
<time>2010-05-04T12:17:15Z</time>
</trkpt>
<trkpt lat="35.3434359" lon="24.5082909">
<ele>117.8988037</ele>
<time>2010-05-04T12:17:22Z</time>
</trkpt>
<trkpt lat="35.3433809" lon="24.5083058">
<ele>116.9375000</ele>
<time>2010-05-04T12:17:31Z</time>
</trkpt>
<trkpt lat="35.3433695" lon="24.5082944">
<ele>115.4956055</ele>
<time>2010-05-04T12:17:38Z</time>
</trkpt>
<trkpt lat="35.3433317" lon="24.5082918">
<ele>120.3021240</ele>
<time>2010-05-04T12:17:44Z</time>
</trkpt>
<trkpt lat="35.3433161" lon="24.5082509">
<ele>115.4956055</ele>
<time>2010-05-04T12:17:49Z</time>
</trkpt>
<trkpt lat="35.3432969" lon="24.5082329">
<ele>114.0535889</ele>
<time>2010-05-04T12:17:55Z</time>
</trkpt>
<trkpt lat="35.3432322" lon="24.5082481">
<ele>115.4956055</ele>
<time>2010-05-04T12:18:05Z</time>
</trkpt>
<trkpt lat="35.3432017" lon="24.5083095">
<ele>117.4182129</ele>
<time>2010-05-04T12:18:12Z</time>
</trkpt>
<trkpt lat="35.3431900" lon="24.5083421">
<ele>112.1309814</ele>
<time>2010-05-04T12:18:21Z</time>
</trkpt>
<trkpt lat="35.3432506" lon="24.5083598">
<ele>125.1087646</ele>
<time>2010-05-04T12:18:31Z</time>
</trkpt>
<trkpt lat="35.3432602" lon="24.5083556">
<ele>121.7441406</ele>
<time>2010-05-04T12:18:36Z</time>
</trkpt>
<trkpt lat="35.3432867" lon="24.5083584">
<ele>120.7828369</ele>
<time>2010-05-04T12:18:38Z</time>
</trkpt>
<trkpt lat="35.3433568" lon="24.5083916">
<ele>110.2082520</ele>
<time>2010-05-04T12:18:47Z</time>
</trkpt>
<trkpt lat="35.3433644" lon="24.5083916">
<ele>102.0371094</ele>
<time>2010-05-04T12:18:54Z</time>
</trkpt>
<trkpt lat="35.3433856" lon="24.5084254">
<ele>101.5563965</ele>
<time>2010-05-04T12:19:04Z</time>
</trkpt>
<trkpt lat="35.3433770" lon="24.5084602">
<ele>104.9210205</ele>
<time>2010-05-04T12:19:10Z</time>
</trkpt>
<trkpt lat="35.3433929" lon="24.5084643">
<ele>105.8824463</ele>
<time>2010-05-04T12:19:11Z</time>
</trkpt>
<trkpt lat="35.3434684" lon="24.5084530">
<ele>113.5729980</ele>
<time>2010-05-04T12:19:18Z</time>
</trkpt>
<trkpt lat="35.3435148" lon="24.5083991">
<ele>123.1861572</ele>
<time>2010-05-04T12:19:25Z</time>
</trkpt>
<trkpt lat="35.3435457" lon="24.5084280">
<ele>122.7054443</ele>
<time>2010-05-04T12:19:30Z</time>
</trkpt>
<trkpt lat="35.3435952" lon="24.5084425">
<ele>125.1087646</ele>
<time>2010-05-04T12:19:37Z</time>
</trkpt>
<trkpt lat="35.3436159" lon="24.5084468">
<ele>126.5506592</ele>
<time>2010-05-04T12:19:44Z</time>
</trkpt>
<trkpt lat="35.3436476" lon="24.5084216">
<ele>129.9152832</ele>
<time>2010-05-04T12:19:53Z</time>
</trkpt>
<trkpt lat="35.3436103" lon="24.5084258">
<ele>122.7054443</ele>
<time>2010-05-04T12:20:01Z</time>
</trkpt>
<trkpt lat="35.3435055" lon="24.5085201">
<ele>111.1695557</ele>
<time>2010-05-04T12:20:18Z</time>
</trkpt>
<trkpt lat="35.3436108" lon="24.5084612">
<ele>118.3793945</ele>
<time>2010-05-04T12:21:25Z</time>
</trkpt>
<trkpt lat="35.3436533" lon="24.5084948">
<ele>117.4182129</ele>
<time>2010-05-04T12:21:53Z</time>
</trkpt>
<trkpt lat="35.3436678" lon="24.5085431">
<ele>112.1309814</ele>
<time>2010-05-04T12:22:08Z</time>
</trkpt>
<trkpt lat="35.3437678" lon="24.5085419">
<ele>120.3021240</ele>
<time>2010-05-04T12:22:15Z</time>
</trkpt>
<trkpt lat="35.3438375" lon="24.5085397">
<ele>121.7441406</ele>
<time>2010-05-04T12:22:23Z</time>
</trkpt>
<trkpt lat="35.3438515" lon="24.5084960">
<ele>119.3408203</ele>
<time>2010-05-04T12:22:28Z</time>
</trkpt>
<trkpt lat="35.3439015" lon="24.5085195">
<ele>114.5341797</ele>
<time>2010-05-04T12:22:39Z</time>
</trkpt>
<trkpt lat="35.3439484" lon="24.5085270">
<ele>108.7662354</ele>
<time>2010-05-04T12:22:47Z</time>
</trkpt>
<trkpt lat="35.3440082" lon="24.5085287">
<ele>104.9210205</ele>
<time>2010-05-04T12:22:55Z</time>
</trkpt>
<trkpt lat="35.3440445" lon="24.5085550">
<ele>103.4790039</ele>
<time>2010-05-04T12:23:00Z</time>
</trkpt>
<trkpt lat="35.3440666" lon="24.5085229">
<ele>99.6337891</ele>
<time>2010-05-04T12:23:08Z</time>
</trkpt>
<trkpt lat="35.3440847" lon="24.5085135">
<ele>98.6724854</ele>
<time>2010-05-04T12:23:16Z</time>
</trkpt>
<trkpt lat="35.3441040" lon="24.5085021">
<ele>96.2692871</ele>
<time>2010-05-04T12:23:23Z</time>
</trkpt>
<trkpt lat="35.3441289" lon="24.5084772">
<ele>93.3851318</ele>
<time>2010-05-04T12:23:30Z</time>
</trkpt>
<trkpt lat="35.3441895" lon="24.5084367">
<ele>90.5013428</ele>
<time>2010-05-04T12:23:39Z</time>
</trkpt>
<trkpt lat="35.3442242" lon="24.5084326">
<ele>89.5399170</ele>
<time>2010-05-04T12:23:43Z</time>
</trkpt>
<trkpt lat="35.3443068" lon="24.5084063">
<ele>89.0593262</ele>
<time>2010-05-04T12:23:52Z</time>
</trkpt>
<trkpt lat="35.3443700" lon="24.5083735">
<ele>87.6171875</ele>
<time>2010-05-04T12:24:00Z</time>
</trkpt>
<trkpt lat="35.3444293" lon="24.5083690">
<ele>87.1365967</ele>
<time>2010-05-04T12:24:06Z</time>
</trkpt>
<trkpt lat="35.3445056" lon="24.5083833">
<ele>85.6945801</ele>
<time>2010-05-04T12:24:14Z</time>
</trkpt>
<trkpt lat="35.3445543" lon="24.5083826">
<ele>88.0980225</ele>
<time>2010-05-04T12:24:20Z</time>
</trkpt>
<trkpt lat="35.3445987" lon="24.5083653">
<ele>87.6171875</ele>
<time>2010-05-04T12:24:27Z</time>
</trkpt>
<trkpt lat="35.3446190" lon="24.5083365">
<ele>86.6560059</ele>
<time>2010-05-04T12:24:32Z</time>
</trkpt>
<trkpt lat="35.3446495" lon="24.5082909">
<ele>90.0206299</ele>
<time>2010-05-04T12:24:39Z</time>
</trkpt>
<trkpt lat="35.3446684" lon="24.5082365">
<ele>102.9982910</ele>
<time>2010-05-04T12:24:49Z</time>
</trkpt>
<trkpt lat="35.3447468" lon="24.5082631">
<ele>100.1145020</ele>
<time>2010-05-04T12:24:55Z</time>
</trkpt>
<trkpt lat="35.3447959" lon="24.5082882">
<ele>107.8050537</ele>
<time>2010-05-04T12:25:02Z</time>
</trkpt>
<trkpt lat="35.3448511" lon="24.5082965">
<ele>106.3630371</ele>
<time>2010-05-04T12:25:08Z</time>
</trkpt>
<trkpt lat="35.3448939" lon="24.5083208">
<ele>106.8436279</ele>
<time>2010-05-04T12:25:11Z</time>
</trkpt>
<trkpt lat="35.3449417" lon="24.5083674">
<ele>110.2082520</ele>
<time>2010-05-04T12:25:16Z</time>
</trkpt>
<trkpt lat="35.3449761" lon="24.5083974">
<ele>105.4017334</ele>
<time>2010-05-04T12:25:20Z</time>
</trkpt>
<trkpt lat="35.3450069" lon="24.5084395">
<ele>103.9597168</ele>
<time>2010-05-04T12:25:28Z</time>
</trkpt>
<trkpt lat="35.3450372" lon="24.5084089">
<ele>93.3851318</ele>
<time>2010-05-04T12:25:36Z</time>
</trkpt>
<trkpt lat="35.3450404" lon="24.5083820">
<ele>84.2526855</ele>
<time>2010-05-04T12:25:44Z</time>
</trkpt>
<trkpt lat="35.3450327" lon="24.5083555">
<ele>83.2913818</ele>
<time>2010-05-04T12:25:54Z</time>
</trkpt>
<trkpt lat="35.3450494" lon="24.5083263">
<ele>82.3300781</ele>
<time>2010-05-04T12:26:10Z</time>
</trkpt>
<trkpt lat="35.3450774" lon="24.5083002">
<ele>86.6560059</ele>
<time>2010-05-04T12:26:16Z</time>
</trkpt>
<trkpt lat="35.3451048" lon="24.5082766">
<ele>86.6560059</ele>
<time>2010-05-04T12:26:22Z</time>
</trkpt>
<trkpt lat="35.3451217" lon="24.5082471">
<ele>98.6724854</ele>
<time>2010-05-04T12:26:30Z</time>
</trkpt>
<trkpt lat="35.3451649" lon="24.5083220">
<ele>100.5950928</ele>
<time>2010-05-04T12:26:40Z</time>
</trkpt>
<trkpt lat="35.3451735" lon="24.5083773">
<ele>105.8824463</ele>
<time>2010-05-04T12:26:45Z</time>
</trkpt>
<trkpt lat="35.3451965" lon="24.5083906">
<ele>106.3630371</ele>
<time>2010-05-04T12:26:47Z</time>
</trkpt>
<trkpt lat="35.3452670" lon="24.5084082">
<ele>107.3243408</ele>
<time>2010-05-04T12:26:53Z</time>
</trkpt>
<trkpt lat="35.3452952" lon="24.5084113">
<ele>107.3243408</ele>
<time>2010-05-04T12:26:55Z</time>
</trkpt>
<trkpt lat="35.3453651" lon="24.5083624">
<ele>104.4404297</ele>
<time>2010-05-04T12:27:03Z</time>
</trkpt>
<trkpt lat="35.3454017" lon="24.5083510">
<ele>103.4790039</ele>
<time>2010-05-04T12:27:08Z</time>
</trkpt>
<trkpt lat="35.3454447" lon="24.5083543">
<ele>105.4017334</ele>
<time>2010-05-04T12:27:15Z</time>
</trkpt>
<trkpt lat="35.3455311" lon="24.5083742">
<ele>105.4017334</ele>
<time>2010-05-04T12:27:25Z</time>
</trkpt>
<trkpt lat="35.3456212" lon="24.5083784">
<ele>104.9210205</ele>
<time>2010-05-04T12:27:36Z</time>
</trkpt>
<trkpt lat="35.3456560" lon="24.5083673">
<ele>103.9597168</ele>
<time>2010-05-04T12:27:40Z</time>
</trkpt>
<trkpt lat="35.3457324" lon="24.5083732">
<ele>101.0756836</ele>
<time>2010-05-04T12:27:48Z</time>
</trkpt>
<trkpt lat="35.3457683" lon="24.5083927">
<ele>102.5177002</ele>
<time>2010-05-04T12:27:52Z</time>
</trkpt>
<trkpt lat="35.3458382" lon="24.5084310">
<ele>102.5177002</ele>
<time>2010-05-04T12:28:00Z</time>
</trkpt>
<trkpt lat="35.3459139" lon="24.5084685">
<ele>102.5177002</ele>
<time>2010-05-04T12:28:09Z</time>
</trkpt>
<trkpt lat="35.3460132" lon="24.5084769">
<ele>99.1530762</ele>
<time>2010-05-04T12:28:18Z</time>
</trkpt>
<trkpt lat="35.3460890" lon="24.5084602">
<ele>96.7498779</ele>
<time>2010-05-04T12:28:27Z</time>
</trkpt>
<trkpt lat="35.3461092" lon="24.5084788">
<ele>105.4017334</ele>
<time>2010-05-04T12:29:13Z</time>
</trkpt>
<trkpt lat="35.3462517" lon="24.5085213">
<ele>96.2692871</ele>
<time>2010-05-04T12:30:40Z</time>
</trkpt>
<trkpt lat="35.3462517" lon="24.5085835">
<ele>104.4404297</ele>
<time>2010-05-04T12:30:46Z</time>
</trkpt>
<trkpt lat="35.3462553" lon="24.5086319">
<ele>115.4956055</ele>
<time>2010-05-04T12:30:51Z</time>
</trkpt>
<trkpt lat="35.3462257" lon="24.5087439">
<ele>142.4124756</ele>
<time>2010-05-04T12:30:58Z</time>
</trkpt>
<trkpt lat="35.3461914" lon="24.5088187">
<ele>156.8321533</ele>
<time>2010-05-04T12:31:01Z</time>
</trkpt>
<trkpt lat="35.3462056" lon="24.5088337">
<ele>162.6000977</ele>
<time>2010-05-04T12:31:07Z</time>
</trkpt>
<trkpt lat="35.3461330" lon="24.5089823">
<ele>194.3237305</ele>
<time>2010-05-04T12:31:19Z</time>
</trkpt>
<trkpt lat="35.3461781" lon="24.5090013">
<ele>194.3237305</ele>
<time>2010-05-04T12:31:25Z</time>
</trkpt>
<trkpt lat="35.3461919" lon="24.5090340">
<ele>200.5722656</ele>
<time>2010-05-04T12:31:30Z</time>
</trkpt>
<trkpt lat="35.3462040" lon="24.5090616">
<ele>203.9368896</ele>
<time>2010-05-04T12:31:34Z</time>
</trkpt>
<trkpt lat="35.3462252" lon="24.5091149">
<ele>211.6274414</ele>
<time>2010-05-04T12:31:40Z</time>
</trkpt>
<trkpt lat="35.3462587" lon="24.5091199">
<ele>215.9532471</ele>
<time>2010-05-04T12:31:49Z</time>
</trkpt>
<trkpt lat="35.3464471" lon="24.5088714">
<ele>163.5615234</ele>
<time>2010-05-04T12:32:20Z</time>
</trkpt>
<trkpt lat="35.3464973" lon="24.5088830">
<ele>158.7547607</ele>
<time>2010-05-04T12:32:27Z</time>
</trkpt>
<trkpt lat="35.3464963" lon="24.5089425">
<ele>165.0034180</ele>
<time>2010-05-04T12:32:31Z</time>
</trkpt>
<trkpt lat="35.3465313" lon="24.5090057">
<ele>160.6774902</ele>
<time>2010-05-04T12:32:39Z</time>
</trkpt>
<trkpt lat="35.3465769" lon="24.5090378">
<ele>160.1968994</ele>
<time>2010-05-04T12:32:47Z</time>
</trkpt>
<trkpt lat="35.3466350" lon="24.5090739">
<ele>153.9483643</ele>
<time>2010-05-04T12:32:55Z</time>
</trkpt>
<trkpt lat="35.3467381" lon="24.5090599">
<ele>133.2799072</ele>
<time>2010-05-04T12:33:03Z</time>
</trkpt>
<trkpt lat="35.3467666" lon="24.5090704">
<ele>128.9541016</ele>
<time>2010-05-04T12:33:07Z</time>
</trkpt>
<trkpt lat="35.3468468" lon="24.5090510">
<ele>114.5341797</ele>
<time>2010-05-04T12:33:13Z</time>
</trkpt>
<trkpt lat="35.3469524" lon="24.5090135">
<ele>100.5950928</ele>
<time>2010-05-04T12:33:21Z</time>
</trkpt>
<trkpt lat="35.3470364" lon="24.5090272">
<ele>96.2692871</ele>
<time>2010-05-04T12:33:28Z</time>
</trkpt>
<trkpt lat="35.3471417" lon="24.5090227">
<ele>91.4625244</ele>
<time>2010-05-04T12:33:37Z</time>
</trkpt>
<trkpt lat="35.3471763" lon="24.5090401">
<ele>93.3851318</ele>
<time>2010-05-04T12:33:43Z</time>
</trkpt>
<trkpt lat="35.3471897" lon="24.5090586">
<ele>96.2692871</ele>
<time>2010-05-04T12:33:47Z</time>
</trkpt>
<trkpt lat="35.3472560" lon="24.5090733">
<ele>92.9045410</ele>
<time>2010-05-04T12:33:52Z</time>
</trkpt>
<trkpt lat="35.3473504" lon="24.5090973">
<ele>100.1145020</ele>
<time>2010-05-04T12:34:01Z</time>
</trkpt>
<trkpt lat="35.3473799" lon="24.5090962">
<ele>99.6337891</ele>
<time>2010-05-04T12:34:08Z</time>
</trkpt>
<trkpt lat="35.3474124" lon="24.5091503">
<ele>100.1145020</ele>
<time>2010-05-04T12:34:15Z</time>
</trkpt>
<trkpt lat="35.3474652" lon="24.5091656">
<ele>95.7884521</ele>
<time>2010-05-04T12:34:20Z</time>
</trkpt>
<trkpt lat="35.3474970" lon="24.5091696">
<ele>91.4625244</ele>
<time>2010-05-04T12:34:23Z</time>
</trkpt>
<trkpt lat="35.3475677" lon="24.5091762">
<ele>85.2139893</ele>
<time>2010-05-04T12:34:28Z</time>
</trkpt>
<trkpt lat="35.3476524" lon="24.5091909">
<ele>75.6008301</ele>
<time>2010-05-04T12:34:35Z</time>
</trkpt>
<trkpt lat="35.3478202" lon="24.5091543">
<ele>78.0040283</ele>
<time>2010-05-04T12:35:10Z</time>
</trkpt>
<trkpt lat="35.3478134" lon="24.5091755">
<ele>76.0814209</ele>
<time>2010-05-04T12:35:15Z</time>
</trkpt>
<trkpt lat="35.3477876" lon="24.5091858">
<ele>69.8328857</ele>
<time>2010-05-04T12:35:23Z</time>
</trkpt>
<trkpt lat="35.3478086" lon="24.5092214">
<ele>68.3908691</ele>
<time>2010-05-04T12:35:33Z</time>
</trkpt>
<trkpt lat="35.3478575" lon="24.5092663">
<ele>70.7941895</ele>
<time>2010-05-04T12:35:41Z</time>
</trkpt>
<trkpt lat="35.3478892" lon="24.5093077">
<ele>72.2362061</ele>
<time>2010-05-04T12:35:47Z</time>
</trkpt>
<trkpt lat="35.3479453" lon="24.5093367">
<ele>70.7941895</ele>
<time>2010-05-04T12:35:54Z</time>
</trkpt>
<trkpt lat="35.3479746" lon="24.5093465">
<ele>65.5070801</ele>
<time>2010-05-04T12:36:02Z</time>
</trkpt>
<trkpt lat="35.3479576" lon="24.5092921">
<ele>63.5843506</ele>
<time>2010-05-04T12:36:12Z</time>
</trkpt>
<trkpt lat="35.3479567" lon="24.5091090">
<ele>66.9489746</ele>
<time>2010-05-04T12:37:05Z</time>
</trkpt>
<trkpt lat="35.3479783" lon="24.5091191">
<ele>66.4682617</ele>
<time>2010-05-04T12:37:11Z</time>
</trkpt>
<trkpt lat="35.3480238" lon="24.5091055">
<ele>68.8715820</ele>
<time>2010-05-04T12:37:21Z</time>
</trkpt>
<trkpt lat="35.3480000" lon="24.5090812">
<ele>65.5070801</ele>
<time>2010-05-04T12:37:32Z</time>
</trkpt>
<trkpt lat="35.3480010" lon="24.5091192">
<ele>63.5843506</ele>
<time>2010-05-04T12:37:39Z</time>
</trkpt>
<trkpt lat="35.3481163" lon="24.5092562">
<ele>63.5843506</ele>
<time>2010-05-04T12:37:49Z</time>
</trkpt>
<trkpt lat="35.3481928" lon="24.5092921">
<ele>62.6229248</ele>
<time>2010-05-04T12:37:56Z</time>
</trkpt>
<trkpt lat="35.3483019" lon="24.5092759">
<ele>56.3745117</ele>
<time>2010-05-04T12:38:15Z</time>
</trkpt>
<trkpt lat="35.3483266" lon="24.5092154">
<ele>55.8937988</ele>
<time>2010-05-04T12:38:22Z</time>
</trkpt>
<trkpt lat="35.3483868" lon="24.5091533">
<ele>69.8328857</ele>
<time>2010-05-04T12:38:49Z</time>
</trkpt>
<trkpt lat="35.3484165" lon="24.5092002">
<ele>65.0263672</ele>
<time>2010-05-04T12:38:56Z</time>
</trkpt>
<trkpt lat="35.3484683" lon="24.5092434">
<ele>66.4682617</ele>
<time>2010-05-04T12:39:01Z</time>
</trkpt>
<trkpt lat="35.3484831" lon="24.5092880">
<ele>71.2749023</ele>
<time>2010-05-04T12:39:09Z</time>
</trkpt>
<trkpt lat="35.3484536" lon="24.5093214">
<ele>73.1976318</ele>
<time>2010-05-04T12:39:20Z</time>
</trkpt>
<trkpt lat="35.3485308" lon="24.5093429">
<ele>72.2362061</ele>
<time>2010-05-04T12:39:28Z</time>
</trkpt>
<trkpt lat="35.3485542" lon="24.5093478">
<ele>65.5070801</ele>
<time>2010-05-04T12:39:36Z</time>
</trkpt>
<trkpt lat="35.3485932" lon="24.5093470">
<ele>62.1423340</ele>
<time>2010-05-04T12:39:42Z</time>
</trkpt>
<trkpt lat="35.3486096" lon="24.5093682">
<ele>62.1423340</ele>
<time>2010-05-04T12:39:48Z</time>
</trkpt>
<trkpt lat="35.3486557" lon="24.5094051">
<ele>61.1810303</ele>
<time>2010-05-04T12:39:54Z</time>
</trkpt>
<trkpt lat="35.3487139" lon="24.5094542">
<ele>68.8715820</ele>
<time>2010-05-04T12:40:00Z</time>
</trkpt>
<trkpt lat="35.3487588" lon="24.5094605">
<ele>72.2362061</ele>
<time>2010-05-04T12:40:04Z</time>
</trkpt>
<trkpt lat="35.3488039" lon="24.5094896">
<ele>79.4460449</ele>
<time>2010-05-04T12:40:09Z</time>
</trkpt>
<trkpt lat="35.3488666" lon="24.5095206">
<ele>86.1752930</ele>
<time>2010-05-04T12:40:15Z</time>
</trkpt>
<trkpt lat="35.3488688" lon="24.5095262">
<ele>88.0980225</ele>
<time>2010-05-04T12:40:17Z</time>
</trkpt>
<trkpt lat="35.3489162" lon="24.5095196">
<ele>86.1752930</ele>
<time>2010-05-04T12:40:21Z</time>
</trkpt>
<trkpt lat="35.3489516" lon="24.5095572">
<ele>90.9819336</ele>
<time>2010-05-04T12:40:27Z</time>
</trkpt>
<trkpt lat="35.3489860" lon="24.5095615">
<ele>96.2692871</ele>
<time>2010-05-04T12:40:32Z</time>
</trkpt>
<trkpt lat="35.3490480" lon="24.5096159">
<ele>97.7111816</ele>
<time>2010-05-04T12:40:40Z</time>
</trkpt>
<trkpt lat="35.3491225" lon="24.5096875">
<ele>102.0371094</ele>
<time>2010-05-04T12:40:49Z</time>
</trkpt>
<trkpt lat="35.3491761" lon="24.5097640">
<ele>92.9045410</ele>
<time>2010-05-04T12:40:59Z</time>
</trkpt>
<trkpt lat="35.3491815" lon="24.5097949">
<ele>89.0593262</ele>
<time>2010-05-04T12:41:04Z</time>
</trkpt>
<trkpt lat="35.3492639" lon="24.5097869">
<ele>71.2749023</ele>
<time>2010-05-04T12:41:11Z</time>
</trkpt>
<trkpt lat="35.3492645" lon="24.5097956">
<ele>69.3522949</ele>
<time>2010-05-04T12:41:12Z</time>
</trkpt>
<trkpt lat="35.3492969" lon="24.5098236">
<ele>68.8715820</ele>
<time>2010-05-04T12:41:16Z</time>
</trkpt>
<trkpt lat="35.3493635" lon="24.5098895">
<ele>65.0263672</ele>
<time>2010-05-04T12:41:26Z</time>
</trkpt>
<trkpt lat="35.3493706" lon="24.5099324">
<ele>68.3908691</ele>
<time>2010-05-04T12:41:32Z</time>
</trkpt>
<trkpt lat="35.3493794" lon="24.5099016">
<ele>76.5621338</ele>
<time>2010-05-04T12:41:44Z</time>
</trkpt>
<trkpt lat="35.3493632" lon="24.5098940">
<ele>77.5234375</ele>
<time>2010-05-04T12:41:50Z</time>
</trkpt>
<trkpt lat="35.3494083" lon="24.5099106">
<ele>62.1423340</ele>
<time>2010-05-04T12:42:17Z</time>
</trkpt>
<trkpt lat="35.3494416" lon="24.5099256">
<ele>70.7941895</ele>
<time>2010-05-04T12:42:24Z</time>
</trkpt>
<trkpt lat="35.3493837" lon="24.5098897">
<ele>63.5843506</ele>
<time>2010-05-04T12:42:46Z</time>
</trkpt>
<trkpt lat="35.3493455" lon="24.5099097">
<ele>61.6617432</ele>
<time>2010-05-04T12:42:49Z</time>
</trkpt>
<trkpt lat="35.3492489" lon="24.5099271">
<ele>60.2197266</ele>
<time>2010-05-04T12:42:55Z</time>
</trkpt>
<trkpt lat="35.3493295" lon="24.5098946">
<ele>49.1645508</ele>
<time>2010-05-04T12:43:16Z</time>
</trkpt>
<trkpt lat="35.3492955" lon="24.5098423">
<ele>48.2033691</ele>
<time>2010-05-04T12:43:21Z</time>
</trkpt>
<trkpt lat="35.3491157" lon="24.5096700">
<ele>40.9934082</ele>
<time>2010-05-04T12:43:26Z</time>
</trkpt>
<trkpt lat="35.3492339" lon="24.5098806">
<ele>40.5128174</ele>
<time>2010-05-04T12:43:31Z</time>
</trkpt>
<trkpt lat="35.3492686" lon="24.5099329">
<ele>41.9547119</ele>
<time>2010-05-04T12:43:35Z</time>
</trkpt>
<trkpt lat="35.3493224" lon="24.5098649">
<ele>52.0485840</ele>
<time>2010-05-04T12:43:49Z</time>
</trkpt>
<trkpt lat="35.3494204" lon="24.5099397">
<ele>56.8551025</ele>
<time>2010-05-04T12:43:55Z</time>
</trkpt>
<trkpt lat="35.3492851" lon="24.5099480">
<ele>59.2584229</ele>
<time>2010-05-04T12:44:41Z</time>
</trkpt>
<trkpt lat="35.3493403" lon="24.5099229">
<ele>66.4682617</ele>
<time>2010-05-04T12:44:46Z</time>
</trkpt>
<trkpt lat="35.3494188" lon="24.5098407">
<ele>89.0593262</ele>
<time>2010-05-04T12:45:00Z</time>
</trkpt>
<trkpt lat="35.3492561" lon="24.5099070">
<ele>89.0593262</ele>
<time>2010-05-04T12:45:10Z</time>
</trkpt>
<trkpt lat="35.3493038" lon="24.5098235">
<ele>89.0593262</ele>
<time>2010-05-04T12:45:21Z</time>
</trkpt>
<trkpt lat="35.3492494" lon="24.5098857">
<ele>84.2526855</ele>
<time>2010-05-04T12:45:28Z</time>
</trkpt>
<trkpt lat="35.3493296" lon="24.5098975">
<ele>72.7169189</ele>
<time>2010-05-04T12:45:35Z</time>
</trkpt>
<trkpt lat="35.3493432" lon="24.5099495">
<ele>75.1202393</ele>
<time>2010-05-04T12:45:44Z</time>
</trkpt>
<trkpt lat="35.3493096" lon="24.5099804">
<ele>71.2749023</ele>
<time>2010-05-04T12:45:52Z</time>
</trkpt>
<trkpt lat="35.3492872" lon="24.5099080">
<ele>66.9489746</ele>
<time>2010-05-04T12:46:40Z</time>
</trkpt>
<trkpt lat="35.3492577" lon="24.5099338">
<ele>65.0263672</ele>
<time>2010-05-04T12:46:49Z</time>
</trkpt>
<trkpt lat="35.3492640" lon="24.5099273">
<ele>66.4682617</ele>
<time>2010-05-04T12:46:50Z</time>
</trkpt>
<trkpt lat="35.3493158" lon="24.5099313">
<ele>71.2749023</ele>
<time>2010-05-04T12:46:57Z</time>
</trkpt>
<trkpt lat="35.3492644" lon="24.5099371">
<ele>67.9102783</ele>
<time>2010-05-04T12:47:17Z</time>
</trkpt>
<trkpt lat="35.3493162" lon="24.5100861">
<ele>78.9654541</ele>
<time>2010-05-04T12:47:51Z</time>
</trkpt>
<trkpt lat="35.3493458" lon="24.5100327">
<ele>75.6008301</ele>
<time>2010-05-04T12:48:07Z</time>
</trkpt>
<trkpt lat="35.3493311" lon="24.5100779">
<ele>84.2526855</ele>
<time>2010-05-04T12:49:25Z</time>
</trkpt>
<trkpt lat="35.3494123" lon="24.5099964">
<ele>76.5621338</ele>
<time>2010-05-04T12:49:42Z</time>
</trkpt>
<trkpt lat="35.3493254" lon="24.5100794">
<ele>73.6782227</ele>
<time>2010-05-04T12:49:49Z</time>
</trkpt>
<trkpt lat="35.3492951" lon="24.5099993">
<ele>74.1588135</ele>
<time>2010-05-04T12:50:04Z</time>
</trkpt>
<trkpt lat="35.3492551" lon="24.5100127">
<ele>70.7941895</ele>
<time>2010-05-04T12:50:08Z</time>
</trkpt>
<trkpt lat="35.3492427" lon="24.5099645">
<ele>77.0428467</ele>
<time>2010-05-04T12:51:16Z</time>
</trkpt>
<trkpt lat="35.3493191" lon="24.5099981">
<ele>87.1365967</ele>
<time>2010-05-04T12:51:24Z</time>
</trkpt>
<trkpt lat="35.3492485" lon="24.5099458">
<ele>63.1036377</ele>
<time>2010-05-04T12:52:00Z</time>
</trkpt>
<trkpt lat="35.3493327" lon="24.5100505">
<ele>69.8328857</ele>
<time>2010-05-04T12:52:36Z</time>
</trkpt>
<trkpt lat="35.3493214" lon="24.5100417">
<ele>69.8328857</ele>
<time>2010-05-04T12:52:37Z</time>
</trkpt>
<trkpt lat="35.3491914" lon="24.5100938">
<ele>75.6008301</ele>
<time>2010-05-04T12:52:45Z</time>
</trkpt>
<trkpt lat="35.3491831" lon="24.5100773">
<ele>73.1976318</ele>
<time>2010-05-04T12:52:51Z</time>
</trkpt>
<trkpt lat="35.3493649" lon="24.5099485">
<ele>71.2749023</ele>
<time>2010-05-04T12:53:39Z</time>
</trkpt>
<trkpt lat="35.3493908" lon="24.5099180">
<ele>71.2749023</ele>
<time>2010-05-04T12:53:43Z</time>
</trkpt>
<trkpt lat="35.3494180" lon="24.5099255">
<ele>66.4682617</ele>
<time>2010-05-04T12:53:48Z</time>
</trkpt>
<trkpt lat="35.3494634" lon="24.5099185">
<ele>69.8328857</ele>
<time>2010-05-04T12:53:51Z</time>
</trkpt>
<trkpt lat="35.3496125" lon="24.5099291">
<ele>78.4847412</ele>
<time>2010-05-04T12:53:59Z</time>
</trkpt>
<trkpt lat="35.3496498" lon="24.5099461">
<ele>71.2749023</ele>
<time>2010-05-04T12:54:08Z</time>
</trkpt>
<trkpt lat="35.3496710" lon="24.5099748">
<ele>66.4682617</ele>
<time>2010-05-04T12:54:13Z</time>
</trkpt>
<trkpt lat="35.3497275" lon="24.5100219">
<ele>57.8165283</ele>
<time>2010-05-04T12:54:24Z</time>
</trkpt>
<trkpt lat="35.3497835" lon="24.5100395">
<ele>54.4517822</ele>
<time>2010-05-04T12:54:31Z</time>
</trkpt>
<trkpt lat="35.3498610" lon="24.5100205">
<ele>51.5678711</ele>
<time>2010-05-04T12:54:40Z</time>
</trkpt>
<trkpt lat="35.3499658" lon="24.5100333">
<ele>52.0485840</ele>
<time>2010-05-04T12:54:49Z</time>
</trkpt>
<trkpt lat="35.3500625" lon="24.5100432">
<ele>52.0485840</ele>
<time>2010-05-04T12:54:58Z</time>
</trkpt>
<trkpt lat="35.3501109" lon="24.5100532">
<ele>51.0871582</ele>
<time>2010-05-04T12:55:06Z</time>
</trkpt>
<trkpt lat="35.3501145" lon="24.5100409">
<ele>51.5678711</ele>
<time>2010-05-04T12:55:26Z</time>
</trkpt>
<trkpt lat="35.3501158" lon="24.5100684">
<ele>50.6065674</ele>
<time>2010-05-04T12:55:48Z</time>
</trkpt>
<trkpt lat="35.3500964" lon="24.5100570">
<ele>45.7999268</ele>
<time>2010-05-04T12:56:54Z</time>
</trkpt>
<trkpt lat="35.3500808" lon="24.5100156">
<ele>46.7612305</ele>
<time>2010-05-04T12:57:07Z</time>
</trkpt>
<trkpt lat="35.3500673" lon="24.5099825">
<ele>48.2033691</ele>
<time>2010-05-04T12:57:15Z</time>
</trkpt>
<trkpt lat="35.3501057" lon="24.5099701">
<ele>49.6452637</ele>
<time>2010-05-04T12:57:22Z</time>
</trkpt>
<trkpt lat="35.3500915" lon="24.5099474">
<ele>51.0871582</ele>
<time>2010-05-04T12:57:35Z</time>
</trkpt>
<trkpt lat="35.3501023" lon="24.5099753">
<ele>49.1645508</ele>
<time>2010-05-04T12:57:44Z</time>
</trkpt>
<trkpt lat="35.3501186" lon="24.5100095">
<ele>46.7612305</ele>
<time>2010-05-04T12:57:59Z</time>
</trkpt>
<trkpt lat="35.3501580" lon="24.5100339">
<ele>50.6065674</ele>
<time>2010-05-04T12:58:42Z</time>
</trkpt>
<trkpt lat="35.3501319" lon="24.5100525">
<ele>53.4904785</ele>
<time>2010-05-04T12:59:03Z</time>
</trkpt>
<trkpt lat="35.3501305" lon="24.5100492">
<ele>51.5678711</ele>
<time>2010-05-04T12:59:20Z</time>
</trkpt>
<trkpt lat="35.3501259" lon="24.5100413">
<ele>49.1645508</ele>
<time>2010-05-04T12:59:40Z</time>
</trkpt>
<trkpt lat="35.3501308" lon="24.5099997">
<ele>47.2418213</ele>
<time>2010-05-04T13:00:19Z</time>
</trkpt>
<trkpt lat="35.3501455" lon="24.5099645">
<ele>45.3192139</ele>
<time>2010-05-04T13:00:46Z</time>
</trkpt>
<trkpt lat="35.3502181" lon="24.5099355">
<ele>45.3192139</ele>
<time>2010-05-04T13:00:52Z</time>
</trkpt>
<trkpt lat="35.3503388" lon="24.5098907">
<ele>45.3192139</ele>
<time>2010-05-04T13:01:01Z</time>
</trkpt>
<trkpt lat="35.3504782" lon="24.5098682">
<ele>44.3580322</ele>
<time>2010-05-04T13:01:10Z</time>
</trkpt>
<trkpt lat="35.3505921" lon="24.5098868">
<ele>45.3192139</ele>
<time>2010-05-04T13:01:17Z</time>
</trkpt>
<trkpt lat="35.3506856" lon="24.5099086">
<ele>43.3966064</ele>
<time>2010-05-04T13:01:24Z</time>
</trkpt>
<trkpt lat="35.3508091" lon="24.5099526">
<ele>41.4739990</ele>
<time>2010-05-04T13:01:33Z</time>
</trkpt>
<trkpt lat="35.3509301" lon="24.5100049">
<ele>40.9934082</ele>
<time>2010-05-04T13:01:41Z</time>
</trkpt>
<trkpt lat="35.3510382" lon="24.5100410">
<ele>39.5512695</ele>
<time>2010-05-04T13:01:49Z</time>
</trkpt>
<trkpt lat="35.3511707" lon="24.5100484">
<ele>36.6674805</ele>
<time>2010-05-04T13:01:59Z</time>
</trkpt>
<trkpt lat="35.3513096" lon="24.5100780">
<ele>32.8222656</ele>
<time>2010-05-04T13:02:10Z</time>
</trkpt>
<trkpt lat="35.3514173" lon="24.5101111">
<ele>29.4575195</ele>
<time>2010-05-04T13:02:19Z</time>
</trkpt>
<trkpt lat="35.3514896" lon="24.5101385">
<ele>28.9769287</ele>
<time>2010-05-04T13:02:25Z</time>
</trkpt>
<trkpt lat="35.3515369" lon="24.5101625">
<ele>28.9769287</ele>
<time>2010-05-04T13:02:29Z</time>
</trkpt>
<trkpt lat="35.3516025" lon="24.5101769">
<ele>28.4962158</ele>
<time>2010-05-04T13:02:35Z</time>
</trkpt>
<trkpt lat="35.3516007" lon="24.5101989">
<ele>33.7834473</ele>
<time>2010-05-04T13:02:53Z</time>
</trkpt>
<trkpt lat="35.3516108" lon="24.5102065">
<ele>34.7448730</ele>
<time>2010-05-04T13:02:56Z</time>
</trkpt>
<trkpt lat="35.3517348" lon="24.5102311">
<ele>36.1867676</ele>
<time>2010-05-04T13:03:03Z</time>
</trkpt>
<trkpt lat="35.3517586" lon="24.5102450">
<ele>36.1867676</ele>
<time>2010-05-04T13:03:05Z</time>
</trkpt>
<trkpt lat="35.3517745" lon="24.5102515">
<ele>35.2254639</ele>
<time>2010-05-04T13:03:12Z</time>
</trkpt>
<trkpt lat="35.3517675" lon="24.5102406">
<ele>36.1867676</ele>
<time>2010-05-04T13:03:39Z</time>
</trkpt>
<trkpt lat="35.3517867" lon="24.5102005">
<ele>45.7999268</ele>
<time>2010-05-04T13:04:03Z</time>
</trkpt>
<trkpt lat="35.3518164" lon="24.5102454">
<ele>43.3966064</ele>
<time>2010-05-04T13:04:08Z</time>
</trkpt>
<trkpt lat="35.3519237" lon="24.5103431">
<ele>45.3192139</ele>
<time>2010-05-04T13:04:16Z</time>
</trkpt>
<trkpt lat="35.3519735" lon="24.5103907">
<ele>44.3580322</ele>
<time>2010-05-04T13:04:20Z</time>
</trkpt>
<trkpt lat="35.3520083" lon="24.5104663">
<ele>43.3966064</ele>
<time>2010-05-04T13:04:25Z</time>
</trkpt>
<trkpt lat="35.3519983" lon="24.5105128">
<ele>42.4354248</ele>
<time>2010-05-04T13:04:28Z</time>
</trkpt>
<trkpt lat="35.3519850" lon="24.5105198">
<ele>41.4739990</ele>
<time>2010-05-04T13:04:41Z</time>
</trkpt>
<trkpt lat="35.3519892" lon="24.5105290">
<ele>41.4739990</ele>
<time>2010-05-04T13:04:42Z</time>
</trkpt>
<trkpt lat="35.3520535" lon="24.5106362">
<ele>41.4739990</ele>
<time>2010-05-04T13:04:50Z</time>
</trkpt>
<trkpt lat="35.3520785" lon="24.5107291">
<ele>40.0321045</ele>
<time>2010-05-04T13:04:57Z</time>
</trkpt>
<trkpt lat="35.3520749" lon="24.5107886">
<ele>40.0321045</ele>
<time>2010-05-04T13:05:03Z</time>
</trkpt>
<trkpt lat="35.3520783" lon="24.5109179">
<ele>38.5900879</ele>
<time>2010-05-04T13:05:12Z</time>
</trkpt>
<trkpt lat="35.3520897" lon="24.5110614">
<ele>38.5900879</ele>
<time>2010-05-04T13:05:22Z</time>
</trkpt>
<trkpt lat="35.3521161" lon="24.5111459">
<ele>39.0706787</ele>
<time>2010-05-04T13:05:31Z</time>
</trkpt>
<trkpt lat="35.3521293" lon="24.5112063">
<ele>38.5900879</ele>
<time>2010-05-04T13:05:38Z</time>
</trkpt>
<trkpt lat="35.3521325" lon="24.5112326">
<ele>37.6286621</ele>
<time>2010-05-04T13:05:45Z</time>
</trkpt>
<trkpt lat="35.3521418" lon="24.5112874">
<ele>37.1480713</ele>
<time>2010-05-04T13:05:52Z</time>
</trkpt>
<trkpt lat="35.3521531" lon="24.5113824">
<ele>37.1480713</ele>
<time>2010-05-04T13:05:59Z</time>
</trkpt>
<trkpt lat="35.3521667" lon="24.5114807">
<ele>36.6674805</ele>
<time>2010-05-04T13:06:06Z</time>
</trkpt>
<trkpt lat="35.3522089" lon="24.5116045">
<ele>36.1867676</ele>
<time>2010-05-04T13:06:14Z</time>
</trkpt>
<trkpt lat="35.3522446" lon="24.5116905">
<ele>35.7060547</ele>
<time>2010-05-04T13:06:20Z</time>
</trkpt>
<trkpt lat="35.3522992" lon="24.5117911">
<ele>32.8222656</ele>
<time>2010-05-04T13:06:28Z</time>
</trkpt>
<trkpt lat="35.3523068" lon="24.5118035">
<ele>32.8222656</ele>
<time>2010-05-04T13:06:29Z</time>
</trkpt>
<trkpt lat="35.3523823" lon="24.5118675">
<ele>30.4188232</ele>
<time>2010-05-04T13:06:37Z</time>
</trkpt>
<trkpt lat="35.3523956" lon="24.5119012">
<ele>28.9769287</ele>
<time>2010-05-04T13:06:40Z</time>
</trkpt>
<trkpt lat="35.3524213" lon="24.5119359">
<ele>28.9769287</ele>
<time>2010-05-04T13:06:44Z</time>
</trkpt>
<trkpt lat="35.3524652" lon="24.5119382">
<ele>30.4188232</ele>
<time>2010-05-04T13:06:51Z</time>
</trkpt>
<trkpt lat="35.3524869" lon="24.5119479">
<ele>30.8995361</ele>
<time>2010-05-04T13:06:57Z</time>
</trkpt>
<trkpt lat="35.3525103" lon="24.5119733">
<ele>29.4575195</ele>
<time>2010-05-04T13:07:04Z</time>
</trkpt>
<trkpt lat="35.3525527" lon="24.5120066">
<ele>28.4962158</ele>
<time>2010-05-04T13:07:09Z</time>
</trkpt>
<trkpt lat="35.3525926" lon="24.5120281">
<ele>28.4962158</ele>
<time>2010-05-04T13:07:13Z</time>
</trkpt>
<trkpt lat="35.3526299" lon="24.5120519">
<ele>26.5736084</ele>
<time>2010-05-04T13:07:20Z</time>
</trkpt>
<trkpt lat="35.3526162" lon="24.5120529">
<ele>25.1317139</ele>
<time>2010-05-04T13:07:30Z</time>
</trkpt>
<trkpt lat="35.3525683" lon="24.5120244">
<ele>28.0155029</ele>
<time>2010-05-04T13:07:36Z</time>
</trkpt>
<trkpt lat="35.3525231" lon="24.5119894">
<ele>29.9381104</ele>
<time>2010-05-04T13:07:42Z</time>
</trkpt>
<trkpt lat="35.3524724" lon="24.5119550">
<ele>30.8995361</ele>
<time>2010-05-04T13:07:49Z</time>
</trkpt>
<trkpt lat="35.3524295" lon="24.5119484">
<ele>31.8607178</ele>
<time>2010-05-04T13:08:02Z</time>
</trkpt>
<trkpt lat="35.3523848" lon="24.5119008">
<ele>30.4188232</ele>
<time>2010-05-04T13:08:08Z</time>
</trkpt>
<trkpt lat="35.3523588" lon="24.5118740">
<ele>28.9769287</ele>
<time>2010-05-04T13:08:11Z</time>
</trkpt>
<trkpt lat="35.3522990" lon="24.5118205">
<ele>28.0155029</ele>
<time>2010-05-04T13:08:18Z</time>
</trkpt>
<trkpt lat="35.3522793" lon="24.5117991">
<ele>28.9769287</ele>
<time>2010-05-04T13:08:21Z</time>
</trkpt>
<trkpt lat="35.3522555" lon="24.5117437">
<ele>28.4962158</ele>
<time>2010-05-04T13:08:25Z</time>
</trkpt>
<trkpt lat="35.3522231" lon="24.5116949">
<ele>28.9769287</ele>
<time>2010-05-04T13:08:30Z</time>
</trkpt>
<trkpt lat="35.3521999" lon="24.5116396">
<ele>30.4188232</ele>
<time>2010-05-04T13:08:34Z</time>
</trkpt>
<trkpt lat="35.3521630" lon="24.5115522">
<ele>31.3801270</ele>
<time>2010-05-04T13:08:39Z</time>
</trkpt>
<trkpt lat="35.3521331" lon="24.5113744">
<ele>30.4188232</ele>
<time>2010-05-04T13:08:49Z</time>
</trkpt>
<trkpt lat="35.3521127" lon="24.5112703">
<ele>28.9769287</ele>
<time>2010-05-04T13:08:56Z</time>
</trkpt>
<trkpt lat="35.3520944" lon="24.5111619">
<ele>30.8995361</ele>
<time>2010-05-04T13:09:03Z</time>
</trkpt>
<trkpt lat="35.3520659" lon="24.5110568">
<ele>29.9381104</ele>
<time>2010-05-04T13:09:11Z</time>
</trkpt>
<trkpt lat="35.3520573" lon="24.5109554">
<ele>29.4575195</ele>
<time>2010-05-04T13:09:17Z</time>
</trkpt>
<trkpt lat="35.3520440" lon="24.5108299">
<ele>28.9769287</ele>
<time>2010-05-04T13:09:25Z</time>
</trkpt>
<trkpt lat="35.3520392" lon="24.5107455">
<ele>28.0155029</ele>
<time>2010-05-04T13:09:31Z</time>
</trkpt>
<trkpt lat="35.3520144" lon="24.5106560">
<ele>28.0155029</ele>
<time>2010-05-04T13:09:37Z</time>
</trkpt>
<trkpt lat="35.3519684" lon="24.5105627">
<ele>24.1702881</ele>
<time>2010-05-04T13:09:44Z</time>
</trkpt>
<trkpt lat="35.3519203" lon="24.5104891">
<ele>23.2089844</ele>
<time>2010-05-04T13:09:50Z</time>
</trkpt>
<trkpt lat="35.3518798" lon="24.5104421">
<ele>22.2475586</ele>
<time>2010-05-04T13:09:55Z</time>
</trkpt>
<trkpt lat="35.3518321" lon="24.5103756">
<ele>23.6895752</ele>
<time>2010-05-04T13:10:01Z</time>
</trkpt>
<trkpt lat="35.3517861" lon="24.5103318">
<ele>22.2475586</ele>
<time>2010-05-04T13:10:05Z</time>
</trkpt>
<trkpt lat="35.3517053" lon="24.5102544">
<ele>23.2089844</ele>
<time>2010-05-04T13:10:12Z</time>
</trkpt>
<trkpt lat="35.3516074" lon="24.5102364">
<ele>33.3028564</ele>
<time>2010-05-04T13:10:19Z</time>
</trkpt>
<trkpt lat="35.3515577" lon="24.5102044">
<ele>40.9934082</ele>
<time>2010-05-04T13:10:24Z</time>
</trkpt>
<trkpt lat="35.3515126" lon="24.5101805">
<ele>44.3580322</ele>
<time>2010-05-04T13:10:30Z</time>
</trkpt>
<trkpt lat="35.3515067" lon="24.5101435">
<ele>40.9934082</ele>
<time>2010-05-04T13:10:39Z</time>
</trkpt>
<trkpt lat="35.3515131" lon="24.5101019">
<ele>33.7834473</ele>
<time>2010-05-04T13:11:28Z</time>
</trkpt>
<trkpt lat="35.3515131" lon="24.5101109">
<ele>33.3028564</ele>
<time>2010-05-04T13:11:35Z</time>
</trkpt>
<trkpt lat="35.3515061" lon="24.5101288">
<ele>38.1093750</ele>
<time>2010-05-04T13:11:46Z</time>
</trkpt>
<trkpt lat="35.3515047" lon="24.5101432">
<ele>40.9934082</ele>
<time>2010-05-04T13:11:52Z</time>
</trkpt>
<trkpt lat="35.3514943" lon="24.5101525">
<ele>40.5128174</ele>
<time>2010-05-04T13:12:17Z</time>
</trkpt>
<trkpt lat="35.3515248" lon="24.5101593">
<ele>40.5128174</ele>
<time>2010-05-04T13:12:21Z</time>
</trkpt>
<trkpt lat="35.3515576" lon="24.5101826">
<ele>40.5128174</ele>
<time>2010-05-04T13:12:24Z</time>
</trkpt>
<trkpt lat="35.3516043" lon="24.5101796">
<ele>38.5900879</ele>
<time>2010-05-04T13:12:29Z</time>
</trkpt>
<trkpt lat="35.3516439" lon="24.5101064">
<ele>33.7834473</ele>
<time>2010-05-04T13:12:35Z</time>
</trkpt>
<trkpt lat="35.3516789" lon="24.5100504">
<ele>29.9381104</ele>
<time>2010-05-04T13:12:40Z</time>
</trkpt>
<trkpt lat="35.3516932" lon="24.5100153">
<ele>28.9769287</ele>
<time>2010-05-04T13:12:45Z</time>
</trkpt>
<trkpt lat="35.3517216" lon="24.5099379">
<ele>29.4575195</ele>
<time>2010-05-04T13:12:51Z</time>
</trkpt>
<trkpt lat="35.3516958" lon="24.5098244">
<ele>30.4188232</ele>
<time>2010-05-04T13:12:59Z</time>
</trkpt>
<trkpt lat="35.3516788" lon="24.5098101">
<ele>36.1867676</ele>
<time>2010-05-04T13:13:05Z</time>
</trkpt>
<trkpt lat="35.3516421" lon="24.5097731">
<ele>42.4354248</ele>
<time>2010-05-04T13:13:11Z</time>
</trkpt>
<trkpt lat="35.3516467" lon="24.5097193">
<ele>46.7612305</ele>
<time>2010-05-04T13:13:17Z</time>
</trkpt>
<trkpt lat="35.3516968" lon="24.5097164">
<ele>47.2418213</ele>
<time>2010-05-04T13:13:24Z</time>
</trkpt>
<trkpt lat="35.3517631" lon="24.5097821">
<ele>47.7225342</ele>
<time>2010-05-04T13:13:32Z</time>
</trkpt>
<trkpt lat="35.3518648" lon="24.5098881">
<ele>47.7225342</ele>
<time>2010-05-04T13:13:43Z</time>
</trkpt>
<trkpt lat="35.3519656" lon="24.5099764">
<ele>46.7612305</ele>
<time>2010-05-04T13:13:53Z</time>
</trkpt>
<trkpt lat="35.3520673" lon="24.5100577">
<ele>46.7612305</ele>
<time>2010-05-04T13:14:02Z</time>
</trkpt>
<trkpt lat="35.3521457" lon="24.5101396">
<ele>48.2033691</ele>
<time>2010-05-04T13:14:10Z</time>
</trkpt>
<trkpt lat="35.3522384" lon="24.5102070">
<ele>49.6452637</ele>
<time>2010-05-04T13:14:18Z</time>
</trkpt>
<trkpt lat="35.3523078" lon="24.5102840">
<ele>50.6065674</ele>
<time>2010-05-04T13:14:25Z</time>
</trkpt>
<trkpt lat="35.3523850" lon="24.5103904">
<ele>51.5678711</ele>
<time>2010-05-04T13:14:34Z</time>
</trkpt>
<trkpt lat="35.3524357" lon="24.5105193">
<ele>55.4130859</ele>
<time>2010-05-04T13:14:43Z</time>
</trkpt>
<trkpt lat="35.3524438" lon="24.5105489">
<ele>55.8937988</ele>
<time>2010-05-04T13:14:50Z</time>
</trkpt>
<trkpt lat="35.3524699" lon="24.5105989">
<ele>57.3358154</ele>
<time>2010-05-04T13:15:03Z</time>
</trkpt>
<trkpt lat="35.3524803" lon="24.5106218">
<ele>56.3745117</ele>
<time>2010-05-04T13:15:05Z</time>
</trkpt>
<trkpt lat="35.3525332" lon="24.5107525">
<ele>55.8937988</ele>
<time>2010-05-04T13:15:15Z</time>
</trkpt>
<trkpt lat="35.3525874" lon="24.5108621">
<ele>54.4517822</ele>
<time>2010-05-04T13:15:25Z</time>
</trkpt>
<trkpt lat="35.3526496" lon="24.5109819">
<ele>55.8937988</ele>
<time>2010-05-04T13:15:35Z</time>
</trkpt>
<trkpt lat="35.3527062" lon="24.5110417">
<ele>56.3745117</ele>
<time>2010-05-04T13:15:42Z</time>
</trkpt>
<trkpt lat="35.3527952" lon="24.5111213">
<ele>57.3358154</ele>
<time>2010-05-04T13:15:51Z</time>
</trkpt>
<trkpt lat="35.3528869" lon="24.5112253">
<ele>59.7391357</ele>
<time>2010-05-04T13:16:01Z</time>
</trkpt>
<trkpt lat="35.3529879" lon="24.5112771">
<ele>58.2971191</ele>
<time>2010-05-04T13:16:10Z</time>
</trkpt>
<trkpt lat="35.3530330" lon="24.5113133">
<ele>58.7777100</ele>
<time>2010-05-04T13:16:15Z</time>
</trkpt>
<trkpt lat="35.3530915" lon="24.5112766">
<ele>57.8165283</ele>
<time>2010-05-04T13:16:22Z</time>
</trkpt>
<trkpt lat="35.3531037" lon="24.5112715">
<ele>57.3358154</ele>
<time>2010-05-04T13:16:23Z</time>
</trkpt>
<trkpt lat="35.3531408" lon="24.5112671">
<ele>57.8165283</ele>
<time>2010-05-04T13:16:26Z</time>
</trkpt>
<trkpt lat="35.3532335" lon="24.5113107">
<ele>60.7003174</ele>
<time>2010-05-04T13:16:35Z</time>
</trkpt>
<trkpt lat="35.3533323" lon="24.5113652">
<ele>61.6617432</ele>
<time>2010-05-04T13:16:45Z</time>
</trkpt>
<trkpt lat="35.3533976" lon="24.5114133">
<ele>63.1036377</ele>
<time>2010-05-04T13:16:52Z</time>
</trkpt>
<trkpt lat="35.3534837" lon="24.5114942">
<ele>65.5070801</ele>
<time>2010-05-04T13:17:01Z</time>
</trkpt>
<trkpt lat="35.3535671" lon="24.5115595">
<ele>66.4682617</ele>
<time>2010-05-04T13:17:09Z</time>
</trkpt>
<trkpt lat="35.3536820" lon="24.5115764">
<ele>64.5456543</ele>
<time>2010-05-04T13:17:18Z</time>
</trkpt>
<trkpt lat="35.3538042" lon="24.5115796">
<ele>61.6617432</ele>
<time>2010-05-04T13:17:29Z</time>
</trkpt>
<trkpt lat="35.3539190" lon="24.5115812">
<ele>61.1810303</ele>
<time>2010-05-04T13:17:39Z</time>
</trkpt>
<trkpt lat="35.3540383" lon="24.5115904">
<ele>63.5843506</ele>
<time>2010-05-04T13:17:49Z</time>
</trkpt>
<trkpt lat="35.3541602" lon="24.5115770">
<ele>62.1423340</ele>
<time>2010-05-04T13:17:59Z</time>
</trkpt>
<trkpt lat="35.3542782" lon="24.5115553">
<ele>61.1810303</ele>
<time>2010-05-04T13:18:08Z</time>
</trkpt>
<trkpt lat="35.3544016" lon="24.5115392">
<ele>63.1036377</ele>
<time>2010-05-04T13:18:17Z</time>
</trkpt>
<trkpt lat="35.3544533" lon="24.5115305">
<ele>64.5456543</ele>
<time>2010-05-04T13:18:21Z</time>
</trkpt>
<trkpt lat="35.3545631" lon="24.5115119">
<ele>64.5456543</ele>
<time>2010-05-04T13:18:30Z</time>
</trkpt>
<trkpt lat="35.3546652" lon="24.5115002">
<ele>63.1036377</ele>
<time>2010-05-04T13:18:37Z</time>
</trkpt>
<trkpt lat="35.3548152" lon="24.5114867">
<ele>60.7003174</ele>
<time>2010-05-04T13:18:48Z</time>
</trkpt>
<trkpt lat="35.3549619" lon="24.5114961">
<ele>59.7391357</ele>
<time>2010-05-04T13:18:59Z</time>
</trkpt>
<trkpt lat="35.3551230" lon="24.5115356">
<ele>58.7777100</ele>
<time>2010-05-04T13:19:11Z</time>
</trkpt>
<trkpt lat="35.3552455" lon="24.5115711">
<ele>58.7777100</ele>
<time>2010-05-04T13:19:20Z</time>
</trkpt>
<trkpt lat="35.3553810" lon="24.5116029">
<ele>59.7391357</ele>
<time>2010-05-04T13:19:30Z</time>
</trkpt>
<trkpt lat="35.3554861" lon="24.5116365">
<ele>59.2584229</ele>
<time>2010-05-04T13:19:38Z</time>
</trkpt>
<trkpt lat="35.3556297" lon="24.5116453">
<ele>55.8937988</ele>
<time>2010-05-04T13:19:48Z</time>
</trkpt>
<trkpt lat="35.3557395" lon="24.5116371">
<ele>56.3745117</ele>
<time>2010-05-04T13:19:56Z</time>
</trkpt>
<trkpt lat="35.3558830" lon="24.5115817">
<ele>55.8937988</ele>
<time>2010-05-04T13:20:07Z</time>
</trkpt>
<trkpt lat="35.3560207" lon="24.5115056">
<ele>55.8937988</ele>
<time>2010-05-04T13:20:18Z</time>
</trkpt>
<trkpt lat="35.3560988" lon="24.5114302">
<ele>56.3745117</ele>
<time>2010-05-04T13:20:25Z</time>
</trkpt>
<trkpt lat="35.3561923" lon="24.5113418">
<ele>56.3745117</ele>
<time>2010-05-04T13:20:33Z</time>
</trkpt>
<trkpt lat="35.3563200" lon="24.5112976">
<ele>53.0097656</ele>
<time>2010-05-04T13:20:42Z</time>
</trkpt>
<trkpt lat="35.3564850" lon="24.5112708">
<ele>49.1645508</ele>
<time>2010-05-04T13:20:54Z</time>
</trkpt>
<trkpt lat="35.3566222" lon="24.5112580">
<ele>48.2033691</ele>
<time>2010-05-04T13:21:04Z</time>
</trkpt>
<trkpt lat="35.3567610" lon="24.5112398">
<ele>48.2033691</ele>
<time>2010-05-04T13:21:14Z</time>
</trkpt>
<trkpt lat="35.3568824" lon="24.5112169">
<ele>49.6452637</ele>
<time>2010-05-04T13:21:23Z</time>
</trkpt>
<trkpt lat="35.3570288" lon="24.5111797">
<ele>48.2033691</ele>
<time>2010-05-04T13:21:34Z</time>
</trkpt>
<trkpt lat="35.3571651" lon="24.5111419">
<ele>46.2806396</ele>
<time>2010-05-04T13:21:44Z</time>
</trkpt>
<trkpt lat="35.3572972" lon="24.5110958">
<ele>44.8386230</ele>
<time>2010-05-04T13:21:54Z</time>
</trkpt>
<trkpt lat="35.3574275" lon="24.5110553">
<ele>42.4354248</ele>
<time>2010-05-04T13:22:04Z</time>
</trkpt>
<trkpt lat="35.3575513" lon="24.5110099">
<ele>39.5512695</ele>
<time>2010-05-04T13:22:13Z</time>
</trkpt>
<trkpt lat="35.3576630" lon="24.5109741">
<ele>38.5900879</ele>
<time>2010-05-04T13:22:21Z</time>
</trkpt>
<trkpt lat="35.3577220" lon="24.5109477">
<ele>37.1480713</ele>
<time>2010-05-04T13:22:27Z</time>
</trkpt>
<trkpt lat="35.3577265" lon="24.5109436">
<ele>38.5900879</ele>
<time>2010-05-04T13:22:36Z</time>
</trkpt>
<trkpt lat="35.3577728" lon="24.5109248">
<ele>38.5900879</ele>
<time>2010-05-04T13:22:41Z</time>
</trkpt>
<trkpt lat="35.3578981" lon="24.5108843">
<ele>37.1480713</ele>
<time>2010-05-04T13:22:50Z</time>
</trkpt>
<trkpt lat="35.3580025" lon="24.5108586">
<ele>37.1480713</ele>
<time>2010-05-04T13:22:57Z</time>
</trkpt>
<trkpt lat="35.3581115" lon="24.5108306">
<ele>39.0706787</ele>
<time>2010-05-04T13:23:05Z</time>
</trkpt>
<trkpt lat="35.3582698" lon="24.5107772">
<ele>35.7060547</ele>
<time>2010-05-04T13:23:17Z</time>
</trkpt>
<trkpt lat="35.3584233" lon="24.5107311">
<ele>40.0321045</ele>
<time>2010-05-04T13:23:28Z</time>
</trkpt>
<trkpt lat="35.3585734" lon="24.5106892">
<ele>36.6674805</ele>
<time>2010-05-04T13:23:39Z</time>
</trkpt>
<trkpt lat="35.3586803" lon="24.5106605">
<ele>33.7834473</ele>
<time>2010-05-04T13:23:47Z</time>
</trkpt>
<trkpt lat="35.3588342" lon="24.5106192">
<ele>30.8995361</ele>
<time>2010-05-04T13:23:58Z</time>
</trkpt>
<trkpt lat="35.3589683" lon="24.5105897">
<ele>28.4962158</ele>
<time>2010-05-04T13:24:08Z</time>
</trkpt>
<trkpt lat="35.3590787" lon="24.5105850">
<ele>27.0543213</ele>
<time>2010-05-04T13:24:16Z</time>
</trkpt>
<trkpt lat="35.3592641" lon="24.5105908">
<ele>27.0543213</ele>
<time>2010-05-04T13:24:29Z</time>
</trkpt>
<trkpt lat="35.3593958" lon="24.5105999">
<ele>26.5736084</ele>
<time>2010-05-04T13:24:38Z</time>
</trkpt>
<trkpt lat="35.3595598" lon="24.5106098">
<ele>25.6123047</ele>
<time>2010-05-04T13:24:49Z</time>
</trkpt>
<trkpt lat="35.3597360" lon="24.5106244">
<ele>24.6510010</ele>
<time>2010-05-04T13:25:01Z</time>
</trkpt>
<trkpt lat="35.3599117" lon="24.5106708">
<ele>25.6123047</ele>
<time>2010-05-04T13:25:13Z</time>
</trkpt>
<trkpt lat="35.3600343" lon="24.5107323">
<ele>24.6510010</ele>
<time>2010-05-04T13:25:22Z</time>
</trkpt>
<trkpt lat="35.3601731" lon="24.5107590">
<ele>26.5736084</ele>
<time>2010-05-04T13:25:32Z</time>
</trkpt>
<trkpt lat="35.3602405" lon="24.5107586">
<ele>30.4188232</ele>
<time>2010-05-04T13:25:38Z</time>
</trkpt>
<trkpt lat="35.3602699" lon="24.5107592">
<ele>34.7448730</ele>
<time>2010-05-04T13:25:48Z</time>
</trkpt>
<trkpt lat="35.3604005" lon="24.5107720">
<ele>36.1867676</ele>
<time>2010-05-04T13:25:57Z</time>
</trkpt>
<trkpt lat="35.3604270" lon="24.5107770">
<ele>37.1480713</ele>
<time>2010-05-04T13:26:02Z</time>
</trkpt>
<trkpt lat="35.3604758" lon="24.5107778">
<ele>37.6286621</ele>
<time>2010-05-04T13:26:07Z</time>
</trkpt>
<trkpt lat="35.3605229" lon="24.5107823">
<ele>37.1480713</ele>
<time>2010-05-04T13:26:13Z</time>
</trkpt>
<trkpt lat="35.3605284" lon="24.5107819">
<ele>36.1867676</ele>
<time>2010-05-04T13:26:32Z</time>
</trkpt>
<trkpt lat="35.3605530" lon="24.5107767">
<ele>38.1093750</ele>
<time>2010-05-04T13:26:41Z</time>
</trkpt>
<trkpt lat="35.3605929" lon="24.5107734">
<ele>37.1480713</ele>
<time>2010-05-04T13:26:48Z</time>
</trkpt>
<trkpt lat="35.3607123" lon="24.5107905">
<ele>34.7448730</ele>
<time>2010-05-04T13:26:56Z</time>
</trkpt>
<trkpt lat="35.3607673" lon="24.5107936">
<ele>33.3028564</ele>
<time>2010-05-04T13:27:01Z</time>
</trkpt>
<trkpt lat="35.3609085" lon="24.5108038">
<ele>32.3415527</ele>
<time>2010-05-04T13:27:11Z</time>
</trkpt>
<trkpt lat="35.3610491" lon="24.5108197">
<ele>32.3415527</ele>
<time>2010-05-04T13:27:21Z</time>
</trkpt>
<trkpt lat="35.3611495" lon="24.5108259">
<ele>30.8995361</ele>
<time>2010-05-04T13:27:29Z</time>
</trkpt>
<trkpt lat="35.3612546" lon="24.5108369">
<ele>29.9381104</ele>
<time>2010-05-04T13:27:38Z</time>
</trkpt>
<trkpt lat="35.3612867" lon="24.5108433">
<ele>28.9769287</ele>
<time>2010-05-04T13:27:41Z</time>
</trkpt>
<trkpt lat="35.3613062" lon="24.5108539">
<ele>28.4962158</ele>
<time>2010-05-04T13:27:48Z</time>
</trkpt>
<trkpt lat="35.3613210" lon="24.5108714">
<ele>29.9381104</ele>
<time>2010-05-04T13:27:53Z</time>
</trkpt>
<trkpt lat="35.3613780" lon="24.5108901">
<ele>28.9769287</ele>
<time>2010-05-04T13:27:59Z</time>
</trkpt>
<trkpt lat="35.3614522" lon="24.5109078">
<ele>27.0543213</ele>
<time>2010-05-04T13:28:05Z</time>
</trkpt>
<trkpt lat="35.3614763" lon="24.5109228">
<ele>26.5736084</ele>
<time>2010-05-04T13:28:08Z</time>
</trkpt>
<trkpt lat="35.3615262" lon="24.5109208">
<ele>26.0928955</ele>
<time>2010-05-04T13:28:13Z</time>
</trkpt>
<trkpt lat="35.3616615" lon="24.5109564">
<ele>23.2089844</ele>
<time>2010-05-04T13:28:24Z</time>
</trkpt>
<trkpt lat="35.3617464" lon="24.5109724">
<ele>22.7282715</ele>
<time>2010-05-04T13:28:30Z</time>
</trkpt>
<trkpt lat="35.3618601" lon="24.5109915">
<ele>22.7282715</ele>
<time>2010-05-04T13:28:39Z</time>
</trkpt>
<trkpt lat="35.3619604" lon="24.5110109">
<ele>23.6895752</ele>
<time>2010-05-04T13:28:47Z</time>
</trkpt>
<trkpt lat="35.3619985" lon="24.5110191">
<ele>23.2089844</ele>
<time>2010-05-04T13:28:53Z</time>
</trkpt>
<trkpt lat="35.3620624" lon="24.5110227">
<ele>21.7669678</ele>
<time>2010-05-04T13:29:01Z</time>
</trkpt>
<trkpt lat="35.3621212" lon="24.5110363">
<ele>21.2863770</ele>
<time>2010-05-04T13:29:08Z</time>
</trkpt>
<trkpt lat="35.3621718" lon="24.5110433">
<ele>20.8056641</ele>
<time>2010-05-04T13:29:16Z</time>
</trkpt>
<trkpt lat="35.3622835" lon="24.5110721">
<ele>19.3637695</ele>
<time>2010-05-04T13:29:24Z</time>
</trkpt>
<trkpt lat="35.3624534" lon="24.5111258">
<ele>17.4411621</ele>
<time>2010-05-04T13:29:36Z</time>
</trkpt>
<trkpt lat="35.3626300" lon="24.5111522">
<ele>14.5570068</ele>
<time>2010-05-04T13:29:48Z</time>
</trkpt>
<trkpt lat="35.3627284" lon="24.5111770">
<ele>12.6343994</ele>
<time>2010-05-04T13:29:55Z</time>
</trkpt>
<trkpt lat="35.3628876" lon="24.5112085">
<ele>9.7506104</ele>
<time>2010-05-04T13:30:06Z</time>
</trkpt>
<trkpt lat="35.3630077" lon="24.5112220">
<ele>8.7891846</ele>
<time>2010-05-04T13:30:15Z</time>
</trkpt>
<trkpt lat="35.3631134" lon="24.5112313">
<ele>9.7506104</ele>
<time>2010-05-04T13:30:23Z</time>
</trkpt>
<trkpt lat="35.3632196" lon="24.5112358">
<ele>10.7117920</ele>
<time>2010-05-04T13:30:31Z</time>
</trkpt>
<trkpt lat="35.3633419" lon="24.5112207">
<ele>9.2698975</ele>
<time>2010-05-04T13:30:40Z</time>
</trkpt>
<trkpt lat="35.3634216" lon="24.5110690">
<ele>8.7891846</ele>
<time>2010-05-04T13:30:50Z</time>
</trkpt>
<trkpt lat="35.3635092" lon="24.5109283">
<ele>6.8664551</ele>
<time>2010-05-04T13:31:00Z</time>
</trkpt>
<trkpt lat="35.3635766" lon="24.5108456">
<ele>6.8664551</ele>
<time>2010-05-04T13:31:07Z</time>
</trkpt>
<trkpt lat="35.3636263" lon="24.5107187">
<ele>6.3858643</ele>
<time>2010-05-04T13:31:15Z</time>
</trkpt>
<trkpt lat="35.3636536" lon="24.5105875">
<ele>5.9052734</ele>
<time>2010-05-04T13:31:23Z</time>
</trkpt>
<trkpt lat="35.3636660" lon="24.5104561">
<ele>5.9052734</ele>
<time>2010-05-04T13:31:30Z</time>
</trkpt>
<trkpt lat="35.3636659" lon="24.5103012">
<ele>5.9052734</ele>
<time>2010-05-04T13:31:39Z</time>
</trkpt>
<trkpt lat="35.3636616" lon="24.5101992">
<ele>5.4245605</ele>
<time>2010-05-04T13:31:46Z</time>
</trkpt>
<trkpt lat="35.3636504" lon="24.5100598">
<ele>4.9438477</ele>
<time>2010-05-04T13:31:55Z</time>
</trkpt>
<trkpt lat="35.3636343" lon="24.5098961">
<ele>4.4632568</ele>
<time>2010-05-04T13:32:05Z</time>
</trkpt>
<trkpt lat="35.3636214" lon="24.5097227">
<ele>4.4632568</ele>
<time>2010-05-04T13:32:15Z</time>
</trkpt>
<trkpt lat="35.3636335" lon="24.5095496">
<ele>2.5406494</ele>
<time>2010-05-04T13:32:25Z</time>
</trkpt>
<trkpt lat="35.3636722" lon="24.5094055">
<ele>1.5793457</ele>
<time>2010-05-04T13:32:34Z</time>
</trkpt>
<trkpt lat="35.3637617" lon="24.5092666">
<ele>1.0986328</ele>
<time>2010-05-04T13:32:45Z</time>
</trkpt>
<trkpt lat="35.3637537" lon="24.5092326">
<ele>1.5793457</ele>
<time>2010-05-04T13:32:48Z</time>
</trkpt>
<trkpt lat="35.3637225" lon="24.5091994">
<ele>-1.3046875</ele>
<time>2010-05-04T13:32:52Z</time>
</trkpt>
<trkpt lat="35.3637173" lon="24.5091889">
<ele>-3.7078857</ele>
<time>2010-05-04T13:32:54Z</time>
</trkpt>
<trkpt lat="35.3637160" lon="24.5092055">
<ele>-3.2272949</ele>
<time>2010-05-04T13:33:00Z</time>
</trkpt>
<trkpt lat="35.3637336" lon="24.5092189">
<ele>-2.7467041</ele>
<time>2010-05-04T13:33:01Z</time>
</trkpt>
<trkpt lat="35.3639717" lon="24.5092356">
<ele>-2.2659912</ele>
<time>2010-05-04T13:33:08Z</time>
</trkpt>
<trkpt lat="35.3641668" lon="24.5092621">
<ele>-1.7852783</ele>
<time>2010-05-04T13:33:19Z</time>
</trkpt>
<trkpt lat="35.3643279" lon="24.5092683">
<ele>-3.2272949</ele>
<time>2010-05-04T13:33:30Z</time>
</trkpt>
<trkpt lat="35.3644209" lon="24.5092821">
<ele>-3.2272949</ele>
<time>2010-05-04T13:33:38Z</time>
</trkpt>
<trkpt lat="35.3645118" lon="24.5092734">
<ele>-3.7078857</ele>
<time>2010-05-04T13:33:46Z</time>
</trkpt>
<trkpt lat="35.3646292" lon="24.5092470">
<ele>-4.1885986</ele>
<time>2010-05-04T13:33:55Z</time>
</trkpt>
<trkpt lat="35.3647546" lon="24.5092021">
<ele>-4.1885986</ele>
<time>2010-05-04T13:34:05Z</time>
</trkpt>
<trkpt lat="35.3648269" lon="24.5091671">
<ele>-3.7078857</ele>
<time>2010-05-04T13:34:11Z</time>
</trkpt>
<trkpt lat="35.3649208" lon="24.5090803">
<ele>-5.1499023</ele>
<time>2010-05-04T13:34:20Z</time>
</trkpt>
<trkpt lat="35.3649771" lon="24.5090155">
<ele>-2.7467041</ele>
<time>2010-05-04T13:34:26Z</time>
</trkpt>
<trkpt lat="35.3650531" lon="24.5089206">
<ele>-1.7852783</ele>
<time>2010-05-04T13:34:34Z</time>
</trkpt>
<trkpt lat="35.3651383" lon="24.5088077">
<ele>-2.2659912</ele>
<time>2010-05-04T13:34:43Z</time>
</trkpt>
<trkpt lat="35.3652062" lon="24.5087036">
<ele>-1.7852783</ele>
<time>2010-05-04T13:34:51Z</time>
</trkpt>
<trkpt lat="35.3652936" lon="24.5085606">
<ele>-2.2659912</ele>
<time>2010-05-04T13:35:02Z</time>
</trkpt>
<trkpt lat="35.3653652" lon="24.5084559">
<ele>-2.2659912</ele>
<time>2010-05-04T13:35:10Z</time>
</trkpt>
<trkpt lat="35.3654480" lon="24.5083064">
<ele>-1.7852783</ele>
<time>2010-05-04T13:35:21Z</time>
</trkpt>
<trkpt lat="35.3654912" lon="24.5081666">
<ele>-1.3046875</ele>
<time>2010-05-04T13:35:30Z</time>
</trkpt>
<trkpt lat="35.3655419" lon="24.5080816">
<ele>-0.8240967</ele>
<time>2010-05-04T13:35:36Z</time>
</trkpt>
<trkpt lat="35.3655828" lon="24.5079919">
<ele>-0.8240967</ele>
<time>2010-05-04T13:35:42Z</time>
</trkpt>
<trkpt lat="35.3656662" lon="24.5078496">
<ele>-0.3433838</ele>
<time>2010-05-04T13:35:52Z</time>
</trkpt>
<trkpt lat="35.3657141" lon="24.5077463">
<ele>-0.3433838</ele>
<time>2010-05-04T13:36:00Z</time>
</trkpt>
<trkpt lat="35.3657670" lon="24.5076469">
<ele>-0.8240967</ele>
<time>2010-05-04T13:36:08Z</time>
</trkpt>
<trkpt lat="35.3658288" lon="24.5075411">
<ele>0.1374512</ele>
<time>2010-05-04T13:36:16Z</time>
</trkpt>
<trkpt lat="35.3658773" lon="24.5074677">
<ele>-0.8240967</ele>
<time>2010-05-04T13:36:23Z</time>
</trkpt>
<trkpt lat="35.3658707" lon="24.5074222">
<ele>0.1374512</ele>
<time>2010-05-04T13:36:29Z</time>
</trkpt>
<trkpt lat="35.3658835" lon="24.5073381">
<ele>2.0600586</ele>
<time>2010-05-04T13:36:36Z</time>
</trkpt>
<trkpt lat="35.3658817" lon="24.5072898">
<ele>1.5793457</ele>
<time>2010-05-04T13:36:41Z</time>
</trkpt>
<trkpt lat="35.3659780" lon="24.5072310">
<ele>-0.8240967</ele>
<time>2010-05-04T13:36:48Z</time>
</trkpt>
<trkpt lat="35.3659951" lon="24.5072081">
<ele>-1.3046875</ele>
<time>2010-05-04T13:36:51Z</time>
</trkpt>
<trkpt lat="35.3660490" lon="24.5072015">
<ele>-1.7852783</ele>
<time>2010-05-04T13:36:56Z</time>
</trkpt>
<trkpt lat="35.3661371" lon="24.5072315">
<ele>-3.2272949</ele>
<time>2010-05-04T13:37:04Z</time>
</trkpt>
<trkpt lat="35.3661718" lon="24.5072326">
<ele>-3.2272949</ele>
<time>2010-05-04T13:37:07Z</time>
</trkpt>
<trkpt lat="35.3662635" lon="24.5072418">
<ele>-3.7078857</ele>
<time>2010-05-04T13:37:15Z</time>
</trkpt>
<trkpt lat="35.3663182" lon="24.5072307">
<ele>-0.8240967</ele>
<time>2010-05-04T13:37:20Z</time>
</trkpt>
<trkpt lat="35.3664349" lon="24.5071951">
<ele>3.5019531</ele>
<time>2010-05-04T13:37:30Z</time>
</trkpt>
<trkpt lat="35.3665130" lon="24.5071646">
<ele>8.3085938</ele>
<time>2010-05-04T13:37:38Z</time>
</trkpt>
<trkpt lat="35.3665821" lon="24.5071138">
<ele>10.7117920</ele>
<time>2010-05-04T13:37:45Z</time>
</trkpt>
<trkpt lat="35.3666626" lon="24.5071196">
<ele>11.1925049</ele>
<time>2010-05-04T13:37:52Z</time>
</trkpt>
<trkpt lat="35.3667237" lon="24.5070880">
<ele>7.8278809</ele>
<time>2010-05-04T13:37:57Z</time>
</trkpt>
<trkpt lat="35.3668497" lon="24.5070163">
<ele>2.0600586</ele>
<time>2010-05-04T13:38:09Z</time>
</trkpt>
<trkpt lat="35.3668678" lon="24.5070040">
<ele>1.0986328</ele>
<time>2010-05-04T13:38:11Z</time>
</trkpt>
<trkpt lat="35.3669213" lon="24.5069927">
<ele>0.1374512</ele>
<time>2010-05-04T13:38:18Z</time>
</trkpt>
<trkpt lat="35.3669740" lon="24.5069580">
<ele>-1.3046875</ele>
<time>2010-05-04T13:38:23Z</time>
</trkpt>
<trkpt lat="35.3670218" lon="24.5069398">
<ele>-1.3046875</ele>
<time>2010-05-04T13:38:27Z</time>
</trkpt>
<trkpt lat="35.3671589" lon="24.5068536">
<ele>-2.7467041</ele>
<time>2010-05-04T13:38:38Z</time>
</trkpt>
<trkpt lat="35.3672735" lon="24.5067932">
<ele>-5.1499023</ele>
<time>2010-05-04T13:38:47Z</time>
</trkpt>
<trkpt lat="35.3673943" lon="24.5067306">
<ele>-4.6693115</ele>
<time>2010-05-04T13:38:57Z</time>
</trkpt>
<trkpt lat="35.3675086" lon="24.5066699">
<ele>-5.1499023</ele>
<time>2010-05-04T13:39:07Z</time>
</trkpt>
<trkpt lat="35.3676230" lon="24.5066039">
<ele>-6.5919189</ele>
<time>2010-05-04T13:39:17Z</time>
</trkpt>
<trkpt lat="35.3677147" lon="24.5065581">
<ele>-5.6304932</ele>
<time>2010-05-04T13:39:26Z</time>
</trkpt>
<trkpt lat="35.3677872" lon="24.5065274">
<ele>-3.7078857</ele>
<time>2010-05-04T13:39:33Z</time>
</trkpt>
<trkpt lat="35.3678650" lon="24.5064482">
<ele>-5.1499023</ele>
<time>2010-05-04T13:39:41Z</time>
</trkpt>
<trkpt lat="35.3679463" lon="24.5063646">
<ele>-2.7467041</ele>
<time>2010-05-04T13:39:49Z</time>
</trkpt>
<trkpt lat="35.3680499" lon="24.5062663">
<ele>-0.3433838</ele>
<time>2010-05-04T13:39:58Z</time>
</trkpt>
<trkpt lat="35.3681731" lon="24.5061500">
<ele>-3.7078857</ele>
<time>2010-05-04T13:40:10Z</time>
</trkpt>
<trkpt lat="35.3682610" lon="24.5060726">
<ele>-4.1885986</ele>
<time>2010-05-04T13:40:19Z</time>
</trkpt>
<trkpt lat="35.3683437" lon="24.5059946">
<ele>-4.6693115</ele>
<time>2010-05-04T13:40:28Z</time>
</trkpt>
<trkpt lat="35.3683783" lon="24.5059457">
<ele>-4.6693115</ele>
<time>2010-05-04T13:40:33Z</time>
</trkpt>
<trkpt lat="35.3683717" lon="24.5058200">
<ele>-4.6693115</ele>
<time>2010-05-04T13:40:42Z</time>
</trkpt>
<trkpt lat="35.3683589" lon="24.5057353">
<ele>-4.1885986</ele>
<time>2010-05-04T13:40:48Z</time>
</trkpt>
<trkpt lat="35.3683539" lon="24.5056503">
<ele>-4.1885986</ele>
<time>2010-05-04T13:40:54Z</time>
</trkpt>
<trkpt lat="35.3683438" lon="24.5055780">
<ele>-3.7078857</ele>
<time>2010-05-04T13:40:59Z</time>
</trkpt>
<trkpt lat="35.3683069" lon="24.5055464">
<ele>-4.6693115</ele>
<time>2010-05-04T13:41:04Z</time>
</trkpt>
<trkpt lat="35.3683018" lon="24.5055807">
<ele>-5.6304932</ele>
<time>2010-05-04T13:41:12Z</time>
</trkpt>
<trkpt lat="35.3682923" lon="24.5056498">
<ele>-5.1499023</ele>
<time>2010-05-04T13:41:19Z</time>
</trkpt>
<trkpt lat="35.3682579" lon="24.5056478">
<ele>-6.1112061</ele>
<time>2010-05-04T13:41:23Z</time>
</trkpt>
<trkpt lat="35.3682128" lon="24.5056739">
<ele>-7.0725098</ele>
<time>2010-05-04T13:41:29Z</time>
</trkpt>
<trkpt lat="35.3681665" lon="24.5056972">
<ele>-7.0725098</ele>
<time>2010-05-04T13:41:35Z</time>
</trkpt>
<trkpt lat="35.3681583" lon="24.5057075">
<ele>-5.6304932</ele>
<time>2010-05-04T13:41:44Z</time>
</trkpt>
<trkpt lat="35.3681483" lon="24.5057256">
<ele>-2.7467041</ele>
<time>2010-05-04T13:41:55Z</time>
</trkpt>
<trkpt lat="35.3681500" lon="24.5057230">
<ele>-3.2272949</ele>
<time>2010-05-04T13:42:03Z</time>
</trkpt>
<trkpt lat="35.3681490" lon="24.5057229">
<ele>-3.2272949</ele>
<time>2010-05-04T13:42:17Z</time>
</trkpt>
<trkpt lat="35.3681619" lon="24.5057380">
<ele>2.0600586</ele>
<time>2010-05-04T13:42:28Z</time>
</trkpt>
<trkpt lat="35.3682091" lon="24.5057861">
<ele>7.3471680</ele>
<time>2010-05-04T13:42:51Z</time>
</trkpt>
<trkpt lat="35.3682084" lon="24.5058022">
<ele>9.2698975</ele>
<time>2010-05-04T13:43:03Z</time>
</trkpt>
<trkpt lat="35.3682102" lon="24.5057980">
<ele>7.8278809</ele>
<time>2010-05-04T13:43:11Z</time>
</trkpt>
</trkseg>
<trkseg>
<trkpt lat="35.3683177" lon="24.5055121">
<ele>-6.5919189</ele>
<time>2010-05-04T13:58:33Z</time>
</trkpt>
<trkpt lat="35.3683234" lon="24.5055034">
<ele>-6.5919189</ele>
<time>2010-05-04T13:58:34Z</time>
</trkpt>
<trkpt lat="35.3683432" lon="24.5054894">
<ele>-7.0725098</ele>
<time>2010-05-04T13:58:36Z</time>
</trkpt>
</trkseg>
</trk>
</gpx>
